[[{"header":{"parameterUnit":"m.s-1","parameterCategory":1,"la1":31.0,"la2":29.5877,"lo1":-88.7671,"lo2":-86.6584,"dy":0.0162,"dx":0.0185,"nx":115,"ny":88,"refTime":"2023-11-03T12:00:00:Z","depth":0,"parameterNumber":2,"parameterNumberName":"U-component_of_WINDS"},"data":[0.0,0.0,0.0,0.0,0.0,0.0,0.0,0.0,0.0,0.0,0.0,0.0,0.0,0.0,0.0,0.0,0.0,0.0,0.0,0.0,0.0,0.0,0.0,0.0,0.0,0.0,0.0,0.0,0.0,0.0,0.0,0.0,0.0,0.0,0.0,0.0,0.0,0.0,0.0,0.0,0.0,0.0,0.0,0.0,0.0,0.0,0.0,0.0,0.0,0.0,0.0,0.0,0.0,0.0,0.0,0.0,0.0,0.0,0.0,0.0,0.0,0.0,0.0,0.0,0.0,0.0,0.0,0.0,0.0,0.0,0.0,0.0,0.0,0.0,0.0,0.0,0.0,0.0,0.0,0.0,0.0,0.0,0.0,0.0,0.0,0.0,0.0,0.0,0.0,0.0,0.0,0.0,0.0,0.0,0.0,0.0,0.0,0.0,0.0,0.0,0.0,0.0,0.0,0.0,0.0,0.0,0.0,0.0,0.0,0.0,0.0,0.0,0.0,0.0,0.0,0.0,0.0,0.0,0.0,0.0,0.0,0.0,0.0,0.0,0.0,0.0,0.0,0.0,0.0,0.0,0.0,0.0,0.0,0.0,0.0,0.0,0.0,0.0,0.0,0.0,0.0,0.0,0.0,0.0,0.0,0.0,0.0,0.0,0.0,0.0,0.0,0.0,0.0,0.0,0.0,0.0,0.0,0.0,0.0,0.0,0.0,0.0,0.0,0.0,0.0,0.0,0.0,0.0,0.0,0.0,0.0,0.0,0.0,0.0,0.0,0.0,0.0,0.0,0.0,0.0,0.0,0.0,0.0,0.0,0.0,0.0,0.0,0.0,0.0,0.0,0.0,0.0,0.0,0.0,0.0,0.0,0.0,0.0,0.0,0.0,0.0,0.0,0.0,0.0,0.0,0.0,0.0,0.0,0.0,0.0,0.0,0.0,0.0,0.0,0.0,0.0,0.0,0.0,0.0,0.0,0.0,0.0,0.0,0.0,0.0,0.0,0.0,0.0,0.0,0.0,0.0,0.0,0.0,0.0,0.0,0.0,0.0,0.0,0.0,0.0,0.0,0.0,0.0,0.0,0.0,0.0,0.0,0.0,0.0,0.0,0.0,0.0,0.0,0.0,0.0,0.0,0.0,0.0,0.0,0.0,0.0,0.0,0.0,0.0,0.0,0.0,0.0,0.0,0.0,0.0,0.0,0.0,0.0,0.0,0.0,0.0,0.0,0.0,0.0,0.0,0.0,0.0,0.0,0.0,0.0,0.0,0.0,0.0,0.0,0.0,0.0,0.0,0.0,0.0,0.0,0.0,0.0,0.0,0.0,0.0,0.0,0.0,0.0,0.0,0.0,0.0,0.0,0.0,0.0,0.0,0.0,0.0,0.0,0.0,0.0,0.0,0.0,0.0,0.0,0.0,0.0,0.0,0.0,0.0,0.0,0.0,0.0,0.0,0.0,0.0,0.0,0.0,0.0,0.0,0.0,0.0,0.0,0.0,0.0,0.0,0.0,0.0,0.0,0.0,0.0,0.0,0.0,0.0,0.0,0.0,0.0,0.0,0.0,0.0,0.0,0.0,0.0,0.0,0.0,0.0,0.0,0.0,0.0,0.0,0.0,0.0,0.0,0.0,0.0,0.0,0.0,0.0,0.0,0.0,0.0,0.0,0.0,0.0,0.0,0.0,0.0,0.0,0.0,0.0,0.0,0.0,0.0,0.0,0.0,0.0,0.0,0.0,0.0,0.0,0.0,0.0,0.0,0.0,0.0,0.0,0.0,0.0,0.0,0.0,0.0,0.0,0.0,0.0,0.0,0.0,0.0,0.0,0.0,0.0,0.0,0.0,0.0,0.0,0.0,0.0,0.0,0.0,0.0,0.0,0.0,0.0,0.0,0.0,0.0,0.0,0.0,0.0,0.0,0.0,0.0,0.0,0.0,0.0,0.0,0.0,0.0,0.0,0.0,0.0,0.0,0.0,0.0,0.0,0.0,0.0,0.0,0.0,0.0,0.0,0.0,0.0,0.0,0.0,0.0,0.0,0.0,0.0,0.0,0.0,0.0,0.0,0.0,0.0,0.0,0.0,0.0,0.0,0.0,0.0,0.0,0.0,0.0,0.0,0.0,0.0,0.0,0.0,0.0,0.0,0.0,0.0,0.0,0.0,0.0,0.0,0.0,0.0,0.0,0.0,0.0,0.0,0.0,0.0,0.0,0.0,0.0,0.0,0.0,0.0,0.0,0.0,0.0,0.0,0.0,0.0,0.0,0.0,0.0,0.0,0.0,0.0,0.0,0.0,0.0,0.0,0.0,0.0,0.0,0.0,0.0,0.0,0.0,0.0,0.0,0.0,0.0,0.0,0.0,0.0,0.0,0.0,0.0,0.0,0.0,0.0,0.0,0.0,0.0,0.0,0.0,0.0,0.0,0.0,0.0,0.0,0.0,0.0,0.0,0.0,0.0,0.0,0.0,0.0,0.0,0.0,0.0,0.0,0.0,0.0,0.0,0.0,0.0,0.0,0.0,0.0,0.0,0.0,0.0,0.0,0.0,0.0,0.0,0.0,0.0,0.0,0.0,0.0,0.0,0.0,0.0,0.0,0.0,0.0,0.0,0.0,0.0,0.0,0.0,0.0,0.0,0.0,0.0,0.0,0.0,0.0,0.0,0.0,0.0,0.0,0.0,0.0,0.0,0.0,0.0,0.0,0.0,0.0,0.0,0.0,0.0,0.0,0.0,0.0,0.0,0.0,0.0,0.0,0.0,0.0,0.0,0.0,0.0,0.0,0.0,0.0,0.0,0.0,0.0,0.0,0.0,0.0,0.0,0.0,0.0,0.0,0.0,0.0,0.0,0.0,0.0,0.0,0.0,0.0,0.0,0.0,0.0,0.0,0.0,0.0,0.0,0.0,0.0,0.0,0.0,0.0,0.0,0.0,0.0,0.0,0.0,0.0,0.0,0.0,0.0,0.0,0.0,0.0,0.0,0.0,0.0,0.0,0.0,0.0,0.0,0.0,0.0,0.0,0.0,0.0,0.0,0.0,0.0,0.0,0.0,0.0,0.0,0.0,0.0,0.0,0.0,0.0,0.0,0.0,0.0,0.0,0.0,0.0,0.0,0.0,0.0,0.0,0.0,0.0,0.0,0.0,0.0,0.0,0.0,0.0,0.0,0.0,0.0,0.0,0.0,0.0,0.0,0.0,0.0,0.0,0.0,0.0,0.0,0.0,0.0,0.0,0.0,0.0,0.0,0.0,0.0,0.0,0.0,0.0,0.0,0.0,0.0,0.0,0.0,0.0,0.0,0.0,0.0,0.0,0.0,0.0,0.0,0.0,0.0,0.0,0.0,0.0,0.0,0.0,0.0,0.0,0.0,0.0,0.0,0.0,0.0,0.0,0.0,0.0,0.0,0.0,0.0,0.0,0.0,0.0,0.0,0.0,0.0,0.0,0.0,0.0,0.0,0.0,0.0,0.0,0.0,0.0,0.0,0.0,0.0,0.0,0.0,0.0,0.0,0.0,0.0,0.0,0.0,0.0,0.0,0.0,0.0,0.0,0.0,0.0,0.0,0.0,0.0,0.0,0.0,0.0,0.0,0.0,0.0,0.0,0.0,0.0,0.0,0.0,0.0,0.0,0.0,0.0,0.0,0.0,0.0,0.0,0.0,0.0,0.0,0.0,0.0,0.0,0.0,0.0,0.0,0.0,0.0,0.0,0.0,0.0,0.0,0.0,0.0,0.0,0.0,0.0,0.0,0.0,0.0,0.0,0.0,0.0,0.0,0.0,0.0,0.0,0.0,0.0,0.0,0.0,0.0,0.0,0.0,0.0,0.0,0.0,0.0,0.0,0.0,0.0,0.0,0.0,0.0,0.0,0.0,0.0,0.0,0.0,0.0,0.0,0.0,0.0,0.0,0.0,0.0,0.0,0.0,0.0,0.0,0.0,0.0,0.0,0.0,0.0,0.0,0.0,0.0,0.0,0.0,0.0,0.0,0.0,0.0,0.0,0.0,0.0,0.0,0.0,0.0,0.0,0.0,0.0,0.0,0.0,0.0,0.0,0.0,0.0,0.0,0.0,0.0,0.0,0.0,0.0,0.0,0.0,0.0,0.0,0.0,0.0,0.0,0.0,0.0,0.0,0.0,0.0,0.0,0.0,0.0,0.0,0.0,0.0,0.0,0.0,0.0,0.0,0.0,0.0,0.0,0.0,0.0,0.0,0.0,0.0,0.0,0.0,0.0,0.0,0.0,0.0,0.0,0.0,0.0,0.0,0.0,0.0,0.57,0.0,0.0,0.0,0.0,0.0,0.0,0.0,0.0,0.0,0.0,0.0,0.0,0.0,0.0,0.0,0.0,0.0,0.0,0.0,0.0,0.0,0.0,0.0,0.0,0.0,0.0,0.0,0.0,0.0,0.0,0.0,0.0,0.0,0.0,0.0,0.0,0.0,0.0,0.0,0.0,0.0,0.0,0.0,0.0,0.0,0.0,0.0,0.0,0.0,0.0,0.0,0.0,0.0,0.0,0.0,0.0,0.0,0.0,0.0,0.0,0.0,0.0,0.0,0.0,0.0,0.0,0.0,0.0,0.0,0.0,0.0,0.0,0.0,0.0,0.0,0.0,0.0,0.0,0.0,0.0,0.0,0.0,0.0,0.0,0.0,0.0,0.0,0.0,0.0,0.0,0.0,0.0,0.0,0.0,0.0,0.0,0.0,0.0,0.0,0.0,0.0,0.0,0.0,0.0,0.0,0.0,0.0,0.0,0.0,0.0,0.6465,0.5823,0.6002,0.6027,0.5817,0.0,0.0,0.0,0.0,0.0,0.0,0.0,0.0,0.0,0.0,0.0,0.0,0.0,0.0,0.0,0.0,0.0,0.0,0.0,0.0,0.0,0.0,0.0,0.0,0.0,0.0,0.0,0.0,0.0,0.0,0.0,0.0,0.0,0.0,0.0,0.0,0.0,0.0,0.0,0.0,0.0,0.0,0.0,0.0,0.0,0.0,0.0,0.0,0.0,0.0,0.0,0.0,0.0,0.0,0.0,0.0,0.0,0.0,0.0,0.0,0.0,0.0,0.0,0.0,0.0,0.0,0.0,0.0,0.0,0.0,0.0,0.0,0.0,0.0,0.0,0.0,0.0,0.0,0.0,0.0,0.0,0.0,0.0,0.0,0.0,0.0,0.0,0.0,0.0,0.0,0.0,0.0,0.0,0.0,0.0,0.0,0.0,0.0,0.0,0.0,0.0,0.0,0.0,0.0,0.0,0.0,0.0,0.0,0.0,0.0,0.0,0.0,0.6627,0.6706,0.643,0.0,0.0,0.0,0.0,0.0,0.0,0.0,0.0,0.0,0.0,0.0,0.0,0.0,0.0,0.0,0.0,0.0,0.0,0.0,0.0,0.0,0.0,0.0,0.0,0.0,0.0,0.0,0.0,0.0,0.0,0.0,0.0,0.0,0.0,0.0,0.0,0.0,0.0,0.0,0.0,0.0,0.0,0.0,0.0,0.0,0.0,0.0,0.0,0.0,0.0,0.0,0.0,0.0,0.0,0.0,0.0,0.0,0.0,0.0,0.0,0.0,0.0,0.0,0.0,0.0,0.0,0.0,0.0,0.0,0.0,0.0,0.0,0.0,0.0,0.0,0.0,0.0,0.0,0.0,0.0,0.0,0.0,0.0,0.0,0.0,0.0,0.0,0.0,0.0,0.0,0.0,0.0,0.0,0.0,0.0,0.0,0.0,0.0,0.0,0.0,0.0,0.0,0.0,0.0,0.0,0.0,0.0,0.0,0.0,0.0,0.681,0.7518,0.7961,0.0,0.8219,0.0,0.0,0.0,0.0,0.0,0.0,0.0,0.0,0.0,0.0,0.0,0.0,0.0,0.0,0.0,0.0,0.0,0.0,0.0,0.0,0.0,0.0,0.0,0.0,0.0,0.0,0.0,0.0,0.0,0.0,0.0,0.0,0.0,0.0,0.0,0.0,0.0,0.0,0.0,0.0,0.0,0.0,0.0,0.0,0.0,0.0,0.0,0.0,0.0,0.0,0.0,0.0,0.0,0.0,0.0,0.0,0.0,0.0,0.0,0.0,0.0,0.0,0.0,0.0,0.0,0.0,0.0,0.0,0.0,0.0,0.0,0.0,0.0,0.0,0.0,0.0,0.0,0.0,0.0,0.0,0.0,0.0,0.0,0.0,0.0,0.0,0.0,0.0,0.0,0.0,0.0,0.0,0.0,0.0,0.0,0.0,0.0,0.0,0.0,0.0,0.0,0.0,0.0,0.0,0.0,0.0,0.0,0.0,0.0,0.0,0.7226,0.7349,0.8042,0.8395,0.0,0.0,0.0,0.0,0.0,0.0,0.0,0.0,0.0,0.0,0.0,0.0,0.0,0.0,0.0,0.0,0.0,0.0,0.0,0.0,0.0,0.0,0.0,0.0,0.0,0.0,0.0,0.0,0.0,0.0,0.0,0.0,0.0,0.0,0.0,0.0,0.0,0.0,0.0,0.0,0.0,0.0,0.0,0.0,0.0,0.0,0.0,0.0,0.0,0.0,0.0,0.0,0.0,0.0,0.0,0.0,0.0,0.0,0.0,0.0,0.0,0.0,0.0,0.0,0.0,0.0,0.0,0.0,0.0,0.0,0.0,0.0,0.0,0.0,0.0,0.0,0.0,0.0,0.0,0.0,0.0,0.0,0.0,0.0,0.0,0.0,0.0,0.0,0.0,0.0,0.0,0.0,0.0,0.0,0.0,0.0,0.0,0.0,0.0,0.0,0.0,0.0,0.0,0.0,0.0,0.0,0.0,0.0,0.0,0.0,0.7349,0.7732,0.7812,0.8281,0.8453,0.8203,0.0,0.0,0.0,0.0,0.0,0.0,0.0,0.0,0.0,0.0,0.0,0.0,0.0,0.0,0.0,0.0,0.0,0.0,0.0,0.0,0.0,0.0,0.0,0.0,0.0,0.0,0.0,0.0,0.0,0.0,0.0,0.0,0.0,0.0,0.0,0.0,0.0,0.0,0.0,0.0,0.0,0.0,0.0,0.0,0.0,0.0,0.0,0.0,0.0,0.0,0.0,0.0,0.0,0.0,0.0,0.0,0.0,0.0,0.0,0.0,0.0,0.0,0.0,0.0,0.0,0.0,0.0,0.0,0.0,0.0,0.0,0.0,0.0,0.0,0.0,0.0,0.0,0.0,0.0,0.0,0.0,0.0,0.0,0.0,0.0,0.0,0.0,0.0,0.0,0.0,0.0,0.0,0.0,0.0,0.0,0.0,0.0,0.0,0.0,0.0,0.0,0.0,0.0,0.0,0.0,0.0,0.0,0.0,0.8672,0.8063,0.8277,0.9417,0.9171,0.8586,0.0,0.0,0.0,0.0,0.0,0.0,0.0,0.0,0.0,0.0,0.0,0.0,0.0,0.0,0.0,0.0,0.0,0.0,0.0,0.0,0.0,0.0,0.0,0.0,0.0,0.0,0.0,0.0,0.0,0.0,0.0,0.0,0.0,0.0,0.0,0.0,0.0,0.0,0.0,0.0,0.0,0.0,0.0,0.0,0.0,0.0,0.0,0.0,0.0,0.0,0.0,0.0,0.0,0.0,0.0,0.0,0.0,0.0,0.0,0.0,0.0,0.0,0.0,0.0,0.0,0.0,0.0,0.0,0.0,0.0,0.0,0.0,0.0,0.0,0.0,0.0,0.0,0.0,0.0,0.0,0.0,0.0,0.0,0.0,0.0,0.0,0.0,0.0,0.0,0.0,0.0,0.0,0.0,0.0,0.0,0.0,0.0,0.0,0.0,0.0,0.0,0.0,0.0,0.0,0.0,0.0,0.0,0.0,0.0,0.6466,0.7031,0.8297,1.0273,0.8976,0.8394,0.0,0.0,0.0,0.0,0.0,0.0,0.0,0.0,0.0,0.0,0.0,0.0,0.0,0.0,0.0,0.0,0.0,0.0,0.0,0.0,0.0,0.0,0.0,0.0,0.0,0.0,0.0,0.0,0.0,0.0,0.0,0.0,0.0,0.0,0.0,0.0,0.0,0.0,0.0,0.0,0.0,0.0,0.0,0.0,0.0,0.0,0.0,0.0,0.0,0.0,0.0,0.0,0.0,0.0,0.0,0.0,0.0,0.0,0.0,0.0,0.0,0.0,0.0,0.0,0.0,0.0,0.0,0.0,0.0,0.0,0.0,0.0,0.0,0.0,0.0,0.0,0.0,0.0,0.0,0.0,0.0,0.0,0.0,0.0,0.0,0.0,0.0,0.0,0.0,0.0,0.0,0.0,0.0,0.0,0.0,0.0,0.0,0.0,0.0,0.0,0.0,0.0,0.0,0.0,0.0,0.0,0.0,0.0,0.0,0.6369,0.0,0.9034,1.0332,0.9084,0.8328,0.0,0.0,0.0,0.0,0.0,0.0,0.0,0.0,0.0,0.0,0.0,0.0,0.0,0.0,0.0,0.0,0.0,0.0,0.0,0.0,0.0,0.0,0.0,0.0,0.0,0.0,0.0,0.0,0.0,0.0,0.0,0.0,0.0,0.0,0.0,0.0,0.0,0.0,0.0,0.0,0.0,0.0,0.0,0.0,0.0,0.0,0.0,0.0,0.0,0.0,0.0,0.0,0.0,0.0,0.0,0.0,0.0,0.0,0.0,0.0,0.0,0.0,0.0,0.0,0.0,0.0,0.0,0.0,0.0,0.0,0.0,0.0,0.0,0.0,0.0,0.0,0.0,0.0,0.0,0.0,0.0,0.0,0.0,0.0,0.0,0.0,0.0,0.0,0.0,0.0,0.0,0.0,0.0,0.0,0.0,0.0,0.0,0.0,0.0,0.0,0.0,0.0,0.0,0.0,0.0,0.0,0.0,0.0,0.6401,0.8831,1.0108,1.0371,0.967,0.9572,0.8402,0.0,0.0,0.0,0.0,0.0,0.0,0.0,0.0,0.0,0.0,0.0,0.0,0.0,0.0,0.0,0.0,0.0,0.0,0.0,0.0,0.0,0.0,0.0,0.0,0.0,0.0,0.0,0.0,0.0,0.0,0.0,0.0,0.0,0.0,0.0,0.0,0.0,0.0,0.0,0.0,0.0,0.0,0.0,0.0,0.0,0.0,0.0,0.0,0.0,0.0,0.0,0.0,0.0,0.0,0.0,0.0,0.0,0.0,0.0,0.0,0.0,0.0,0.0,0.0,0.0,0.0,0.0,0.0,0.0,0.0,0.0,0.0,0.0,0.0,0.0,0.0,0.0,0.0,0.0,0.0,0.0,0.0,0.0,0.0,0.0,0.0,0.0,0.0,0.0,0.0,0.0,0.0,0.0,0.0,0.0,0.0,0.0,0.0,0.0,0.0,0.0,0.0,0.0,0.0,0.0,0.0,0.0,0.0,0.0,0.8114,0.9073,1.0157,1.1257,0.9368,0.8608,0.0,0.0,0.0,0.0,0.0,0.0,0.0,0.0,0.0,0.0,0.0,0.0,0.0,0.0,0.0,0.0,0.0,0.0,0.0,0.0,0.0,0.0,0.0,0.0,0.0,0.0,0.0,0.0,0.0,0.0,0.0,0.0,0.0,0.0,0.0,0.0,0.0,0.0,0.0,0.0,0.0,0.0,0.0,0.0,0.0,0.0,0.0,0.0,0.0,0.0,0.0,0.0,0.0,0.0,0.0,0.0,0.0,0.0,0.0,0.0,0.0,0.0,0.0,0.0,0.0,0.0,0.0,0.0,0.0,0.0,0.0,0.0,0.0,0.0,0.0,0.0,0.0,0.0,0.0,0.0,0.0,0.0,0.0,0.0,0.0,0.0,0.0,0.0,0.0,0.0,0.0,0.0,0.0,0.0,0.0,0.0,0.0,0.0,0.0,0.0,0.0,0.0,0.0,0.0,0.0,0.0,0.0,0.0,0.0,0.9884,1.0546,1.1385,1.243,1.0634,0.9795,1.0108,0.0,0.0,0.0,0.0,0.0,0.0,0.0,0.0,0.0,0.0,0.0,0.0,0.0,0.0,0.0,0.0,0.0,0.0,0.0,0.0,0.0,0.0,0.0,0.0,0.0,0.0,0.0,0.0,0.0,0.0,0.0,0.0,0.0,0.0,0.0,0.0,0.0,0.0,0.0,0.0,0.0,0.0,0.0,0.0,0.0,0.0,0.0,0.0,0.0,0.0,0.0,0.0,0.0,0.0,0.0,0.0,0.0,0.0,0.0,0.0,0.0,0.0,0.0,0.0,0.0,0.0,0.0,0.0,0.0,0.0,0.0,0.0,0.0,0.0,0.0,0.0,0.0,0.0,0.0,0.0,0.0,0.0,0.0,0.0,0.0,0.0,0.0,0.0,0.0,0.0,0.0,0.0,0.0,0.0,0.0,0.0,0.0,0.0,0.0,0.0,0.0,0.0,0.0,0.0,0.0,0.0,0.0,0.0,1.3594,1.4036,1.3913,1.3228,1.3001,1.1758,0.0,0.0,0.0,0.0,0.0,0.0,0.0,0.0,0.0,0.0,0.0,0.0,0.0,0.0,0.0,0.0,0.0,0.0,0.0,0.0,0.0,0.0,0.0,0.0,0.0,0.0,0.0,0.0,0.0,0.0,0.0,0.0,0.0,0.0,0.0,0.0,0.0,0.0,0.0,0.0,0.0,0.0,0.0,0.0,0.0,0.0,0.0,0.0,0.0,0.0,0.0,0.0,0.0,0.0,0.0,0.0,0.0,0.0,0.0,0.0,0.0,0.0,0.0,0.0,0.0,0.0,0.0,0.0,0.0,0.0,0.0,0.0,0.0,0.0,0.0,0.0,0.0,0.0,0.0,0.0,0.0,0.0,0.0,0.0,0.0,0.0,0.0,0.0,0.0,0.0,0.0,0.0,0.0,0.0,0.0,0.0,0.0,0.0,0.0,0.0,0.0,0.0,0.0,0.0,0.0,0.0,0.0,0.0,0.0,1.483,1.5977,1.6441,1.6187,1.4369,1.3027,0.0,0.0,0.0,0.0,0.0,0.0,0.0,0.0,0.0,0.0,0.0,0.0,0.0,0.0,0.0,0.0,0.0,0.0,0.0,0.0,0.0,0.0,0.0,0.0,0.0,0.0,0.0,0.0,0.0,0.0,0.0,0.0,0.0,0.0,0.0,0.0,0.0,0.0,0.0,0.0,0.0,0.0,0.0,0.0,0.0,0.0,0.0,0.0,0.0,0.0,0.0,0.0,0.0,0.0,0.0,0.0,0.0,0.0,0.0,0.0,0.0,0.0,0.0,0.0,0.0,0.0,0.0,0.0,0.0,0.0,0.0,0.0,0.0,0.0,0.0,0.0,0.0,0.0,0.0,0.0,0.0,0.0,0.0,0.0,0.0,0.0,0.0,0.0,0.0,0.0,0.0,0.0,0.0,0.0,0.0,0.0,0.0,0.0,0.0,0.0,0.0,0.0,0.0,0.0,0.0,0.0,0.0,0.0,1.4258,1.6211,1.7871,1.865,1.8437,1.6625,1.503,0.0,0.0,0.0,0.0,0.0,0.0,0.0,0.0,0.0,0.0,0.0,0.0,0.0,0.0,0.0,0.0,0.0,0.0,0.0,0.0,0.0,0.0,0.0,0.0,0.0,0.0,0.0,0.0,0.0,0.0,0.0,0.0,0.0,0.0,0.0,0.0,0.0,0.0,0.0,0.0,0.0,0.0,0.0,0.0,0.0,0.0,0.0,0.0,0.0,0.0,0.0,0.0,0.0,0.0,0.0,0.0,0.0,0.0,0.0,0.0,0.0,0.0,0.0,0.0,0.0,0.0,0.0,0.0,0.0,0.0,0.0,0.0,0.0,0.0,0.0,0.0,0.0,0.0,0.0,0.0,0.0,0.0,0.0,0.0,0.0,0.0,0.0,0.0,0.0,0.0,0.0,0.0,0.0,0.0,0.0,0.0,0.0,0.0,0.0,0.0,0.0,0.0,0.0,0.0,0.0,0.0,0.0,0.0,1.5723,1.75,1.953,2.0449,2.0079,1.9124,1.7233,0.0,0.0,0.0,0.0,0.0,0.0,0.0,0.0,0.0,0.0,0.0,0.0,0.0,0.0,0.0,0.0,0.0,0.0,0.0,0.0,0.0,0.0,0.0,0.0,0.0,0.0,0.0,0.0,0.0,0.0,0.0,0.0,0.0,0.0,0.0,0.0,0.0,0.0,0.0,0.0,0.0,0.0,0.0,0.0,0.0,0.0,0.0,0.0,0.0,0.0,0.0,0.0,0.0,0.0,0.0,0.0,0.0,0.0,0.0,0.0,0.0,0.0,0.0,0.0,0.0,0.0,0.0,0.0,0.0,0.0,0.0,0.0,0.0,0.0,0.0,0.0,0.0,0.0,0.0,0.0,0.0,0.0,0.0,0.0,0.0,0.0,0.0,0.0,0.0,0.0,0.0,0.0,0.0,0.0,0.0,0.0,0.0,0.0,0.0,0.0,0.0,0.0,0.0,0.0,0.0,0.0,0.0,0.0,1.6289,1.8322,1.9823,2.0899,2.1445,1.9629,1.7506,0.0,0.0,0.0,0.0,0.0,0.0,0.0,0.0,0.0,0.0,0.0,0.0,0.0,0.0,0.0,0.0,0.0,0.0,0.0,0.0,0.0,0.0,0.0,0.0,0.0,0.0,0.0,0.0,0.0,0.0,0.0,0.0,0.0,0.0,0.0,0.0,0.0,0.0,0.0,0.0,0.0,0.0,0.0,0.0,0.0,0.0,0.0,0.0,1.4812,0.0,0.0,0.0,0.0,0.0,0.0,0.0,0.0,0.0,0.0,0.0,0.0,0.0,0.0,0.0,0.0,0.0,0.0,0.0,0.0,0.0,0.0,0.0,0.0,0.0,0.0,0.0,0.0,0.0,0.0,0.0,0.0,0.0,0.0,0.0,0.0,0.0,0.0,0.0,0.0,0.0,0.0,0.0,0.0,0.0,0.0,0.0,0.0,0.0,0.0,0.0,0.0,0.0,0.0,0.0,0.0,0.0,0.0,0.0,1.7285,1.9163,2.0508,2.1426,2.1837,2.0547,1.8715,0.0,0.0,0.0,0.0,0.0,0.0,0.0,0.0,0.0,0.0,0.0,0.0,0.0,0.0,0.0,0.0,0.0,0.0,0.0,0.0,0.0,0.0,0.0,0.0,0.0,0.0,0.0,0.0,0.0,0.0,0.0,0.0,0.0,0.0,0.0,0.0,0.0,0.0,0.0,0.0,0.0,0.0,0.0,0.0,0.0,0.0,0.0,0.0,0.0,0.0,0.0,0.0,0.0,0.0,0.0,0.0,0.0,0.0,0.0,0.0,0.0,0.0,0.0,0.0,0.0,0.0,0.0,0.0,0.0,0.0,0.0,0.0,0.0,0.0,0.0,0.0,0.0,0.0,0.0,0.0,0.0,0.0,0.0,0.0,0.0,0.0,0.0,0.0,0.0,0.0,0.0,0.0,0.0,0.0,0.0,0.0,0.0,0.0,0.0,0.0,0.0,0.0,0.0,0.0,0.0,0.0,0.0,1.6089,1.8162,2.004,2.1269,2.1953,2.2091,2.1562,2.0118,1.7595,0.0,0.0,0.0,0.0,0.0,0.0,0.0,0.0,0.0,0.0,0.0,0.0,0.0,0.0,0.0,0.0,0.0,0.0,0.0,0.0,0.0,0.0,0.0,0.0,0.0,0.0,0.0,0.0,0.0,0.0,0.0,0.0,0.0,0.0,0.0,0.0,0.0,0.0,1.4667,1.6263,0.0,0.0,0.0,0.0,0.0,0.0,0.0,0.0,1.4564,0.0,0.0,0.0,0.0,0.0,0.0,0.0,0.0,0.0,0.0,0.0,0.0,0.0,0.0,0.0,0.0,0.0,0.0,0.0,0.0,0.0,0.0,0.0,0.0,0.0,0.0,0.0,0.0,0.0,0.0,0.0,0.0,0.0,0.0,0.0,0.0,0.0,0.0,0.0,0.0,0.0,0.0,0.0,0.0,0.0,0.0,0.0,0.0,0.0,0.0,0.0,0.0,0.0,0.0,0.0,0.0,1.5615,1.6085,1.7829,2.0918,2.1582,2.2207,2.2869,2.2166,2.0566,1.8008,0.0,0.0,0.0,0.0,0.0,0.0,0.0,0.0,0.0,0.0,0.0,0.0,0.0,0.0,0.0,0.0,0.0,0.0,0.0,0.0,0.0,0.0,0.0,0.0,0.0,0.0,0.0,0.0,0.0,0.0,0.0,0.0,0.0,0.0,0.0,0.0,0.0,0.0,0.0,1.8662,1.9446,0.0,0.0,0.0,0.0,0.0,0.0,0.0,0.0,1.4858,0.0,0.0,0.0,0.0,0.0,0.0,0.0,0.0,0.0,0.0,0.0,0.0,0.0,0.0,0.0,0.0,0.0,0.0,0.0,0.0,0.0,0.0,0.0,0.0,0.0,0.0,0.0,0.0,0.0,0.0,0.0,0.0,0.0,0.0,0.0,0.0,0.0,0.0,0.0,0.0,0.0,0.0,0.0,0.0,0.0,0.0,0.0,0.0,0.0,0.0,0.0,0.0,0.0,0.0,0.0,1.5581,1.6816,1.875,2.1445,2.1777,2.2187,2.2711,2.1543,1.9863,0.0,0.0,0.0,0.0,0.0,0.0,0.0,0.0,0.0,0.0,0.0,0.0,0.0,0.0,0.0,0.0,0.0,0.0,0.0,0.0,0.0,0.0,0.0,0.0,0.0,0.0,0.0,0.0,0.0,0.0,0.0,0.0,0.0,0.0,0.0,0.0,0.0,0.0,0.0,0.0,1.9156,1.9667,2.0421,0.0,0.0,0.0,0.0,0.0,0.0,1.5686,1.4824,0.0,0.0,0.0,0.0,0.0,0.0,0.0,0.0,0.0,0.0,0.0,0.0,0.0,0.0,0.0,0.0,0.0,0.0,0.0,0.0,0.0,0.0,0.0,0.0,0.0,0.0,0.0,0.0,0.0,0.0,0.0,0.0,0.0,0.0,0.0,0.0,0.0,0.0,0.0,0.0,0.0,0.0,0.0,0.0,0.0,0.0,0.0,0.0,0.0,0.0,0.0,0.0,0.0,0.0,0.0,1.5488,1.7467,1.9591,2.1778,2.1993,2.2207,2.2576,2.1015,1.9318,0.0,0.0,0.0,0.0,0.0,0.0,0.0,0.0,0.0,0.0,0.0,0.0,0.0,0.0,0.0,0.0,0.0,0.0,0.0,0.0,0.0,0.0,0.0,0.0,0.0,0.0,0.0,0.0,0.0,0.0,0.0,0.0,0.0,0.0,0.0,0.0,0.0,0.0,0.0,0.0,0.0,1.9996,2.0249,1.9364,0.0,0.0,0.0,0.0,1.7648,1.67,0.0,0.0,0.0,0.0,0.0,0.0,0.0,0.0,0.0,0.0,0.0,0.0,0.0,0.0,0.0,0.0,0.0,0.0,0.0,0.0,0.0,0.0,0.0,0.0,0.0,0.0,0.0,0.0,0.0,0.0,0.0,0.0,0.0,0.0,0.0,0.0,0.0,0.0,0.0,0.0,0.0,0.0,0.0,0.0,0.0,0.0,0.0,0.0,0.0,0.0,0.0,0.0,0.0,0.0,0.0,0.0,1.5928,1.7363,1.9298,2.1738,2.2246,2.2615,2.2984,2.1757,2.0079,0.0,0.0,0.0,0.0,0.0,0.0,0.0,0.0,0.0,0.0,0.0,0.0,0.0,0.0,0.0,0.0,0.0,0.0,0.0,0.0,0.0,0.0,0.0,0.0,0.0,0.0,0.0,0.0,0.0,0.0,0.0,0.0,0.0,0.0,0.0,0.0,0.0,0.0,0.0,0.0,0.0,2.1858,2.2576,2.1129,2.0208,0.0,0.0,2.0076,2.0842,2.0375,0.0,0.0,0.0,0.0,0.0,0.0,0.0,0.0,0.0,0.0,0.0,0.0,0.0,0.0,0.0,0.0,0.0,0.0,0.0,0.0,0.0,0.0,0.0,0.0,0.0,0.0,0.0,0.0,0.0,0.0,0.0,0.0,0.0,0.0,0.0,0.0,0.0,0.0,0.0,0.0,0.0,0.0,0.0,0.0,0.0,0.0,0.0,0.0,0.0,0.0,0.0,0.0,0.0,0.0,0.0,1.3372,1.6046,1.8066,1.9981,2.1837,2.2285,2.248,2.2422,2.0937,1.922,0.0,0.0,0.0,0.0,0.0,0.0,0.0,0.0,0.0,0.0,0.0,0.0,0.0,0.0,0.0,0.0,0.0,0.0,0.0,0.0,0.0,0.0,0.0,0.0,0.0,0.0,0.0,0.0,0.0,0.0,0.0,0.0,0.0,0.0,0.0,0.0,0.0,0.0,0.0,0.0,0.0,0.0,2.2393,2.2228,0.0,0.0,0.0,2.2319,2.179,0.0,0.0,0.0,0.0,0.0,0.0,0.0,0.0,0.0,0.0,0.0,0.0,0.0,0.0,0.0,0.0,0.0,0.0,0.0,0.0,0.0,0.0,0.0,0.0,0.0,0.0,0.0,0.0,0.0,0.0,0.0,0.0,0.0,0.0,0.0,0.0,0.0,0.0,0.0,0.0,0.0,0.0,0.0,0.0,0.0,0.0,0.0,0.0,0.0,0.0,0.0,0.0,0.0,0.0,0.0,0.0,0.0,1.571,1.8272,2.0095,2.1097,2.1826,2.2016,2.1594,2.0314,0.0,0.0,0.0,0.0,0.0,0.0,0.0,0.0,0.0,0.0,0.0,0.0,0.0,0.0,0.0,0.0,0.0,0.0,0.0,0.0,0.0,0.0,0.0,0.0,0.0,0.0,0.0,0.9242,0.0,0.0,0.0,0.0,0.0,0.0,0.0,0.0,0.0,0.0,0.0,0.0,0.0,0.0,2.2366,2.2328,2.3122,2.3511,0.0,0.0,2.4001,2.2884,2.2893,2.1954,0.0,0.0,0.0,0.0,0.0,0.0,0.0,0.0,0.0,0.0,0.0,0.0,0.0,0.0,0.0,0.0,0.0,0.0,0.0,0.0,0.0,0.0,0.0,0.0,0.0,0.0,0.0,0.0,0.0,0.0,0.0,0.0,0.0,0.0,0.0,0.0,0.0,0.0,0.0,0.0,0.0,0.0,0.0,0.0,0.0,0.0,0.0,0.0,0.0,0.0,0.0,0.0,0.0,0.0,1.3465,1.4647,1.7367,1.8868,1.9046,2.0563,2.1196,2.08,2.061,1.9511,0.0,0.0,0.0,0.0,0.0,0.0,0.0,0.0,0.0,0.0,0.0,0.0,0.0,0.0,0.0,0.0,0.0,0.0,0.0,0.0,0.0,0.0,0.0,0.0,0.0,0.0,0.0,0.0,0.0,0.0,0.0,0.0,0.0,0.0,0.0,0.0,0.0,0.0,0.0,0.0,0.0,2.3224,2.3453,2.3987,2.4601,0.0,2.5208,2.5,2.491,2.5551,2.4531,1.996,0.0,0.0,0.0,0.0,0.0,0.0,0.0,0.0,0.0,0.0,0.0,0.0,0.0,0.0,0.0,0.0,0.0,0.0,0.0,0.0,0.0,0.0,0.0,0.0,0.0,0.0,0.0,0.0,0.0,0.0,0.0,0.0,0.0,0.0,0.0,0.0,0.0,0.0,0.0,0.0,0.0,0.0,0.0,0.0,0.0,0.0,0.0,0.0,0.0,0.0,0.0,0.0,0.0,1.2971,1.5087,1.7109,1.833,1.8808,1.9704,2.0348,2.0681,2.0175,1.9071,0.0,0.0,0.0,0.0,0.0,0.0,0.0,0.0,0.0,0.0,0.0,0.0,0.0,0.0,0.0,0.0,0.0,0.0,0.0,0.0,0.0,0.0,0.0,0.0,0.0,0.0,0.0,0.0,1.2523,1.2964,1.3093,0.0,0.0,0.0,0.0,0.0,0.0,0.0,0.0,0.0,0.0,2.441,2.484,2.6141,0.0,0.0,2.6568,2.6746,2.6329,2.5644,2.4199,2.1348,1.9999,0.0,0.0,0.0,0.0,0.0,0.0,0.0,0.0,0.0,0.0,0.0,0.0,0.0,0.0,0.0,0.0,0.0,0.0,0.0,0.0,0.0,0.0,0.0,0.0,0.0,0.0,0.0,0.0,0.0,0.0,0.0,0.0,0.0,0.0,0.0,0.0,0.0,0.0,0.0,0.0,0.0,0.0,0.0,0.0,0.0,0.0,0.0,0.0,0.0,0.0,0.0,0.0,1.238,1.4518,1.6329,1.7453,1.7886,1.8956,1.9698,2.0097,2.0138,1.9407,0.0,0.0,0.0,0.0,0.0,0.0,0.0,0.0,0.0,0.0,0.0,0.0,0.0,0.0,0.0,0.0,0.0,0.0,0.0,0.0,0.0,0.0,0.0,0.0,0.0,0.0,0.0,0.0,1.3574,1.3545,1.2544,0.0,0.0,0.0,0.0,0.0,0.0,0.0,0.0,0.0,0.0,2.5371,2.6006,2.7302,2.7849,2.6904,2.7102,2.7142,2.6682,2.5698,2.4297,2.2248,0.0,0.0,0.0,0.0,0.0,0.0,0.0,0.0,0.0,0.0,0.0,0.0,0.0,0.0,0.0,0.0,0.0,0.0,0.0,0.0,0.0,0.0,0.0,0.0,0.0,0.0,0.0,0.7103,0.0,0.0,0.6406,0.0,0.0,0.0,0.0,0.0,0.0,0.0,0.0,0.0,0.0,0.0,0.0,0.0,0.0,0.0,0.0,0.0,0.0,0.0,0.0,0.0,0.0,1.1676,1.2412,1.4793,1.5933,1.5967,1.8234,1.9241,1.8902,2.0768,2.0781,1.8582,0.0,0.0,0.0,0.0,0.0,0.0,0.0,0.0,0.0,0.0,0.0,0.0,0.0,0.0,0.0,0.0,0.0,0.0,0.0,0.0,0.0,0.0,0.0,0.0,0.0,0.0,1.3042,1.3109,1.2575,0.0,0.0,0.0,0.0,0.0,0.0,0.0,0.0,0.0,2.1681,2.4082,2.5991,2.685,2.7012,2.7278,2.7604,2.6607,2.5801,2.5835,2.6094,2.5332,0.0,0.0,0.0,0.0,0.0,0.0,0.0,0.0,0.0,0.0,0.0,0.0,0.0,0.0,0.0,0.0,0.0,0.0,0.0,0.0,0.0,0.0,0.0,0.0,0.0,0.0,0.0,1.0762,1.0087,0.0,0.0,0.0,0.0,0.0,0.0,0.0,0.0,0.0,0.0,0.0,1.3719,1.453,0.0,0.0,0.0,0.0,0.0,0.0,0.0,0.0,0.0,0.0,0.0,0.0,1.1648,1.3266,1.4781,1.5645,1.5805,1.6631,1.7369,1.8056,1.8434,1.8253,1.7424,0.0,0.0,0.0,0.0,0.0,0.0,0.0,0.0,0.0,0.0,0.0,0.0,0.0,0.0,0.0,0.0,0.0,0.0,0.0,0.0,0.0,0.0,0.0,0.0,0.0,1.2858,0.0,0.0,0.0,0.0,0.0,0.0,0.0,0.0,0.0,0.0,0.0,2.1778,2.3753,2.5766,2.7226,2.7793,2.834,2.8601,0.0,0.0,0.0,0.0,0.0,0.0,0.0,0.0,0.0,0.0,0.0,0.0,0.0,0.0,2.4528,2.0293,1.8533,1.8005,1.8887,0.0,0.0,0.0,0.0,0.0,0.0,0.0,0.0,0.0,0.0,0.0,0.0,0.0,0.0,1.3919,0.0,1.2903,0.0,0.0,0.0,0.0,0.0,0.0,0.0,0.0,1.4614,1.5294,1.5208,1.6023,1.5766,0.0,1.4675,1.3282,0.0,0.0,0.0,0.0,0.0,0.0,0.0,0.0,1.173,1.3663,1.4821,1.5538,1.5818,1.6221,1.6857,1.7684,1.7921,1.7856,1.7464,1.6755,1.5879,0.0,0.0,0.0,0.0,0.0,0.0,0.0,0.0,0.0,0.0,0.0,0.0,0.0,0.0,0.0,0.0,0.0,0.0,0.0,0.0,0.0,0.0,0.0,1.3809,0.0,0.0,0.0,0.0,0.0,0.0,0.0,0.0,0.0,1.9904,2.2012,2.4163,2.5981,2.7311,2.8262,2.8672,0.0,0.0,0.0,0.0,0.0,0.0,0.0,2.6016,2.6744,2.606,2.5454,2.5527,2.709,2.8125,2.7363,0.0,0.0,2.3457,2.2169,2.1894,2.2305,2.2969,2.3457,2.3477,2.4375,2.5102,0.0,0.0,0.0,0.0,0.0,0.0,0.0,0.0,1.6902,1.6882,0.0,1.6402,0.0,0.0,0.0,0.0,1.0983,1.3939,0.0,0.0,1.7147,1.7904,1.6911,1.8224,1.7606,1.5251,1.663,1.5971,1.3292,1.154,0.0,0.0,0.0,0.0,0.0,0.0,1.1931,1.362,1.4816,1.5538,1.5818,1.696,1.7614,1.7646,1.9127,1.9517,1.8772,1.9071,1.834,1.6316,1.4941,0.0,0.0,0.0,0.0,0.0,0.0,0.0,0.0,0.0,0.0,0.0,0.0,0.0,0.0,0.0,0.0,0.0,0.0,0.0,0.0,1.5156,0.0,0.0,0.0,0.0,0.0,0.0,0.0,0.0,0.0,2.3003,2.2791,2.4863,2.6914,2.8144,0.0,0.0,0.0,0.0,2.8516,2.8887,2.8281,2.78,2.78,2.8093,2.8191,2.7897,0.0,0.0,2.8054,2.9559,3.0234,2.8249,2.9246,3.0,2.9062,2.7402,2.6523,2.6894,2.6699,2.6836,2.7624,2.8288,2.884,2.0449,0.0,0.0,0.0,0.0,1.842,1.9513,2.1249,2.0957,2.0488,1.9903,1.9473,0.0,0.0,0.0,0.0,0.0,0.0,1.5176,1.5568,1.6647,1.7017,1.6752,1.7176,1.6964,1.623,1.6491,1.6228,1.541,1.4467,1.2716,1.0312,0.0,0.0,0.0,0.0,1.3327,1.4247,1.5194,1.5728,1.5808,1.615,1.6339,1.6362,1.8223,1.9097,1.8856,2.0009,1.9942,1.8435,1.7165,0.0,0.0,0.0,0.0,0.0,0.0,0.0,0.0,0.0,0.0,0.0,0.0,0.0,0.0,0.0,0.0,0.0,0.0,0.0,1.4604,1.5156,1.5605,0.0,0.0,0.0,0.0,0.0,0.0,0.0,0.0,0.0,2.683,2.7461,2.8132,0.0,0.0,2.9461,2.9579,2.9637,2.959,2.9442,2.9461,0.0,2.9473,2.9062,2.9121,3.0234,3.0976,3.1338,3.0967,3.1416,3.1631,3.0986,3.1299,3.1445,3.0937,2.9687,2.8875,2.9082,2.9375,2.9766,3.0312,3.0859,3.124,2.4375,2.2246,2.0957,2.0918,2.1659,2.1699,2.2615,2.4137,2.3864,2.3239,2.2324,2.1784,2.0233,1.7904,1.6265,0.0,0.0,0.0,1.6184,1.6661,1.7016,1.7243,1.7421,1.7422,1.7355,1.7195,1.6927,1.6765,1.6645,1.6177,1.4763,1.2564,0.0,0.0,1.2425,1.3433,1.4367,1.519,1.5845,1.6102,1.6005,1.5875,1.5808,1.5842,1.7498,1.8417,1.8462,2.025,2.0734,1.9618,1.881,1.7285,0.0,0.0,0.0,0.0,0.0,0.0,0.0,0.0,0.0,0.0,0.0,1.0908,0.9123,0.0,0.0,0.0,1.3066,1.4891,1.6676,1.7363,0.0,0.0,0.0,0.0,0.0,0.0,0.0,2.4512,2.6177,2.7702,2.9219,2.9668,2.9931,3.0106,2.9941,2.997,3.0293,0.0,3.0293,3.0595,3.0664,3.0781,3.0957,3.0547,3.0625,3.1836,3.2383,3.2765,3.2922,3.2961,3.3019,3.3156,3.3195,3.3008,3.248,3.1797,3.1279,3.1094,3.1348,3.1719,3.1992,3.2363,3.2617,2.7193,2.6609,2.4298,2.3708,2.4365,2.4287,2.4679,2.5434,2.5429,2.4883,2.3875,2.3206,2.1429,1.8859,1.7378,0.0,1.6216,1.7237,1.7688,1.7689,1.7929,1.8196,1.849,1.849,1.8343,1.8009,1.7796,1.7541,1.7313,1.6981,1.642,1.5565,1.4474,1.4133,1.4541,1.4634,1.5231,1.631,1.6567,1.6567,1.6297,1.6005,1.5835,1.5832,1.7044,1.7707,1.7777,2.0003,2.0901,2.0045,1.9998,1.9044,1.6957,0.0,0.0,0.0,0.0,0.0,0.0,0.0,0.0,0.0,0.0,0.0,0.0,0.0,0.0,0.0,1.6644,0.0,1.9883,2.0742,0.0,0.0,0.0,2.1718,2.2383,2.4183,2.5727,2.6666,0.0,0.0,3.0351,3.1436,3.1905,3.1094,3.0625,3.0644,3.1416,3.0879,3.0801,3.1944,3.1816,3.1719,3.2081,3.2179,3.2355,3.2812,3.3203,3.3516,3.3919,3.4036,3.4231,3.4453,3.4648,3.4453,3.3691,3.3782,3.384,3.2863,3.2765,3.2812,3.2832,3.3086,3.3211,2.5349,2.5201,2.4588,2.4289,2.4106,2.3305,2.3065,2.3261,2.3244,2.2934,2.2411,2.2245,2.11,1.925,1.8885,1.8289,1.7548,1.7817,1.8036,1.8291,1.8357,1.8424,1.849,1.849,1.845,1.8384,1.8344,1.8264,1.8197,1.8103,1.7755,1.71,1.6805,1.6152,1.5244,1.5845,1.6326,1.6582,1.6673,1.6567,1.631,1.623,1.6059,1.5808,1.703,1.7707,1.7731,2.0019,2.0901,2.0084,2.0565,2.004,1.8227,1.602,0.0,0.0,0.0,0.0,0.0,0.0,0.0,0.0,0.0,1.5259,1.1719,0.0,1.6582,0.0,1.8147,1.9844,2.0781,2.1406,0.0,0.0,2.3981,2.4586,2.6947,2.7402,2.8125,2.9648,3.0644,3.1328,3.169,3.2003,3.212,3.1925,3.1777,3.1807,3.2003,3.1885,3.1827,3.212,3.2059,3.2198,3.2516,3.293,3.3293,3.3723,3.3574,3.3574,3.4036,3.4095,3.4153,3.4251,3.4492,3.4668,3.4726,3.4512,3.4199,3.3906,3.3574,3.325,3.325,3.3328,3.3398,2.5173,2.4907,2.4273,2.3764,2.3398,2.3458,2.3484,2.3484,2.3484,2.2901,2.1908,2.0988,1.9974,1.9015,1.8989,1.8794,1.8396,1.8409,1.8597,1.8906,1.8878,1.8906,1.8906,1.8878,1.8906,1.8906,1.8744,1.8691,1.8677,1.8557,1.8317,1.801,1.7983,1.7515,1.6633,1.6794,1.6993,1.7088,1.6993,1.6846,1.6685,1.6431,1.6217,1.6056,1.655,1.6786,1.669,1.848,1.9343,1.9056,1.9783,1.9831,1.8948,1.723,1.5996,0.0,0.0,0.0,0.0,0.0,0.0,0.0,0.0,0.0,0.0,0.0,1.8713,1.9221,2.0879,2.242,2.3669,2.4375,2.5391,2.6967,2.722,2.7969,2.9601,2.9922,3.0419,3.1377,3.1836,3.2246,3.2656,3.2044,3.1665,3.1803,3.1012,3.0921,3.2184,3.2335,3.2316,3.2656,3.1922,3.1457,3.1822,3.2943,3.3789,3.4036,3.4023,3.4141,3.457,3.4701,3.474,3.4902,3.5117,3.5332,3.5488,3.5078,3.4687,3.4609,3.4219,3.3828,3.373,3.3867,3.3945,2.5137,2.4637,2.3369,2.2612,2.2422,2.3704,2.4202,2.4122,2.4106,2.3245,2.1671,1.984,1.8958,1.8718,1.8718,1.8851,1.905,1.9063,1.9225,1.9508,1.9508,1.9495,1.9455,1.9455,1.9428,1.9388,1.9105,1.8956,1.8971,1.8731,1.8612,1.8544,1.8572,1.8397,1.8063,1.7582,1.746,1.7595,1.738,1.7207,1.7192,1.6632,1.6337,1.6284,1.5952,1.5658,1.5427,1.6563,1.7342,1.7657,1.85,1.9087,1.9273,1.8168,1.7315,0.0,1.6137,0.0,0.0,0.0,0.0,0.0,0.0,0.0,0.0,2.0019,2.1327,2.2791,2.4141,2.5527,2.7006,2.7988,2.8711,2.916,3.0293,3.1103,3.1152,3.1646,3.196,3.203,3.2181,3.2427,3.2511,3.1446,3.0701,3.0852,2.9586,2.939,3.1526,3.1782,3.17,3.2657,3.1193,3.0149,3.0581,3.2102,3.3234,3.3459,3.3814,3.4481,3.4767,3.5165,3.5488,3.5801,3.5898,3.5942,3.6035,3.5605,3.5307,3.5209,3.4824,3.4473,3.4271,3.4394,3.457,2.1985,2.1881,2.1613,2.1428,2.1405,2.1673,2.1519,2.106,2.1046,2.0868,2.0525,2.0117,1.993,1.9877,1.9877,1.9903,1.9957,1.9957,1.9983,2.0037,2.0037,1.9933,1.9733,1.972,1.9599,1.9401,1.9334,1.9321,1.9308,1.9254,1.9078,1.8823,1.881,1.8691,1.8424,0.0,0.0,0.0,1.7555,1.7408,1.7206,1.6832,1.6538,1.6297,1.5752,0.0,1.545,1.6563,1.7093,1.6885,1.811,0.0,0.0,0.0,0.0,0.0,0.0,0.0,0.0,0.0,0.0,0.0,2.207,2.1739,2.0449,2.3242,2.5156,2.5128,2.6602,2.7676,2.8027,2.9141,3.0019,3.0488,3.1367,3.2081,3.2352,3.1345,3.0686,3.1016,3.0118,2.9458,2.9642,2.9379,2.9378,2.9394,2.8925,2.876,2.9225,2.9213,2.9076,2.9148,2.9071,2.8976,2.8993,2.9598,3.0343,3.0532,3.165,3.2515,3.3065,3.4345,3.5324,3.548,3.5781,3.5947,3.6035,3.5918,3.5723,3.5444,3.5508,3.5469,3.4746,3.4648,3.4687,2.1109,2.1109,2.1109,2.1109,0.0,2.1109,2.0935,2.0637,2.0637,2.0588,2.0441,2.0264,2.021,2.021,2.021,2.021,2.021,2.021,2.021,2.021,2.021,2.013,2.0013,2.0013,1.9933,1.9786,1.9639,1.9586,1.9602,1.9468,1.9321,1.9145,1.9145,1.8998,1.8704,1.8557,1.8291,1.7822,1.7662,1.7528,1.742,1.71,1.6805,1.6486,1.6083,0.0,0.0,0.0,0.0,0.0,0.0,0.0,0.0,1.8213,0.0,1.9829,1.9889,2.0015,2.0383,2.098,2.1588,2.2078,2.305,2.3645,2.3735,2.5957,2.7065,2.6495,2.7406,2.7845,2.746,2.7959,2.8553,2.9146,2.9609,3.0036,3.0365,2.9889,2.9478,2.9635,2.9178,2.8852,2.9101,2.8209,2.7871,2.7892,2.6946,2.6265,2.6358,2.7405,2.7982,2.7328,2.8461,2.8793,2.7802,2.8003,2.8654,2.956,3.0476,3.1098,3.1375,3.2224,3.3157,3.4016,3.4493,3.483,3.5811,3.6035,3.5957,3.5781,3.5879,3.5898,3.543,3.5351,3.5273,2.1109,2.1109,2.1109,2.1109,2.1109,2.1109,2.1109,2.1109,2.1109,0.0,0.0,2.0464,2.0357,2.0357,2.0357,2.0357,2.0357,2.0357,2.0357,2.0357,2.0357,2.033,2.0277,2.0277,2.025,2.0197,1.9957,1.988,1.9837,1.9615,1.9481,1.9468,1.9415,1.9267,1.8998,1.8718,1.8423,1.8142,1.7849,1.7635,1.7608,1.7353,1.706,1.678,1.6484,1.6046,1.5601,1.5551,1.5677,1.5943,1.6001,1.6535,1.764,1.8001,1.906,2.1005,2.1802,2.2318,2.2632,2.3138,2.3092,2.237,2.3204,2.4561,2.6488,2.7316,2.7558,2.6949,2.7275,2.717,2.6478,2.6485,2.6781,2.7424,2.7588,2.7817,2.8163,2.8045,2.804,2.8102,2.7984,2.8212,2.8408,2.712,2.6208,2.6255,2.5199,2.3843,2.4105,2.581,2.678,2.5972,2.7071,2.7951,2.6653,2.652,2.7519,2.833,2.9209,2.9777,2.9812,3.0097,3.0928,3.2385,3.2665,3.3274,3.4624,3.5451,3.5811,3.5587,3.5811,3.6035,3.6035,3.6016,3.5879,2.1109,2.1109,2.1109,2.1109,2.1109,2.1109,2.1109,2.1109,2.1109,2.1051,2.1011,2.1002,2.0989,2.0989,2.0989,2.0989,2.0989,2.0989,2.0989,2.0989,2.0957,2.0824,2.0646,2.0646,2.0481,2.021,2.0157,2.0144,2.0117,1.988,1.9733,1.9706,1.9522,1.9374,1.9308,1.9011,1.881,1.8756,1.8236,1.7849,1.7608,1.7353,1.7179,1.7125,1.6591,1.627,1.6177,1.6177,1.6209,1.6248,1.6454,1.7089,1.8134,1.8596,1.9429,2.059,2.1163,2.1634,2.1997,2.2683,2.3568,2.4654,2.4949,2.5056,2.5038,2.5473,2.5818,2.6118,2.6218,2.6311,2.637,2.6621,2.6918,2.736,2.7801,2.8081,2.7982,2.6818,2.608,2.6353,2.526,2.4802,2.5224,2.507,2.4961,2.4892,2.4543,2.4062,2.3968,2.4113,2.4319,2.4162,2.4471,2.4715,2.4823,2.4793,2.5317,2.524,2.6866,2.7888,2.7888,2.8936,2.999,3.0628,3.0716,3.0911,3.1369,3.3882,3.4659,3.402,3.459,3.5587,3.5553,3.5675,3.586,2.1109,2.1109,2.1109,2.1109,2.1109,2.1109,2.1109,2.1109,2.1109,2.1109,2.1109,2.1109,2.1109,2.1109,2.1109,2.1109,2.1109,2.1109,2.1109,2.1109,2.1109,2.1042,2.0922,2.0909,2.0842,2.0664,2.0548,2.0468,2.0454,2.0187,2.004,1.9997,1.9907,1.984,1.9813,1.9517,1.929,1.9158,1.8584,1.8223,1.8076,1.7782,1.7555,1.7408,1.714,1.6926,1.6804,1.6926,1.7006,1.7006,1.7101,1.7413,1.79,1.8256,1.9098,2.045,2.1128,2.1589,2.1831,2.1766,2.2053,2.2748,2.2924,2.2937,2.279,2.4553,2.5491,2.4983,2.4906,2.4716,2.4322,2.4417,2.4686,2.4963,2.5208,2.5315,2.5307,2.5002,2.4672,2.4736,2.4492,2.4289,2.4422,2.4519,2.4599,2.4586,2.4466,2.4332,2.4249,2.4235,2.4182,2.4048,2.4035,2.4168,2.4382,2.4492,2.4586,2.4599,2.5322,2.5896,2.5932,2.6852,2.7599,2.8557,2.8772,2.9222,2.9971,3.1597,3.2228,3.2088,3.2158,3.2874,3.2978,3.3656,3.4815,2.1109,2.1109,2.1109,2.1109,2.1109,2.1109,2.1109,2.1109,2.1109,2.1109,2.1109,2.1109,2.1109,2.1109,2.1109,2.1109,2.1109,2.1109,2.1109,2.1109,2.1109,2.1109,2.1109,2.1109,2.1109,2.1082,2.0882,2.0775,2.0735,2.0481,2.0264,2.021,2.021,2.021,2.0197,2.0013,1.9786,1.9546,1.9052,1.8691,1.849,1.8236,1.8009,1.7809,1.7822,1.7702,1.7541,1.7689,1.7809,1.7822,1.7849,1.7943,1.7996,1.8277,1.9001,2.0326,2.0972,2.1351,2.1508,2.1028,2.0739,2.0775,2.0975,2.1096,2.1299,2.3432,2.4595,2.3642,2.3449,2.3178,2.2691,2.2506,2.2539,2.2853,2.2893,2.3139,2.3062,2.3429,2.3741,2.391,2.4275,2.4492,2.4586,2.4599,2.4599,2.4599,2.4599,2.4599,2.4599,2.4599,2.4492,2.4332,2.4199,2.4266,2.4546,2.4586,2.4626,2.4666,2.478,2.4945,2.4972,2.4884,2.5265,2.6741,2.6991,2.7421,2.8774,2.9565,2.9747,2.9718,3.0239,3.0699,3.1456,3.242,3.3847,2.1109,2.1109,2.1109,2.1109,2.1109,2.1109,2.1109,2.1109,2.1109,2.1109,2.1109,2.1109,2.1109,2.1109,2.1109,2.1109,2.1109,2.1109,2.1109,2.1109,2.1109,2.1109,2.1109,2.1109,2.1109,2.1109,2.1069,2.1042,2.1029,2.0775,2.0508,2.0237,2.021,2.0224,2.021,2.0184,2.0144,2.0117,1.984,1.9292,1.8544,1.8464,1.8437,1.8438,1.8397,1.8424,1.8384,1.8397,1.8438,1.8424,1.8664,1.8918,1.9201,1.9466,1.9819,2.0193,2.0318,2.0449,2.0763,2.0734,2.0788,2.1042,2.1082,2.1109,2.1122,2.1669,2.2011,2.1918,2.1918,2.2105,2.2358,2.2432,2.2565,2.2853,2.292,2.3,2.322,2.3327,2.3567,2.4115,2.4235,2.4306,2.4546,2.4599,2.4599,2.4599,2.4599,2.4599,2.4599,2.4599,2.4599,2.4546,2.4532,2.4532,2.4599,2.4599,2.4756,2.4957,2.5037,2.5117,2.5224,2.5184,2.5292,2.5763,2.5698,2.5809,2.6168,2.6809,2.8017,2.8009,2.8911,3.0558,3.2281,3.2665,3.3413,2.1269,2.1109,2.1109,2.1109,2.1109,2.1109,2.1109,2.1109,2.1109,2.1109,2.1109,2.1109,2.1109,2.1109,2.1109,2.1109,2.1109,2.1109,2.1109,2.1109,2.1109,2.1109,2.1109,2.1109,2.1109,2.1109,2.1109,2.1109,2.1082,2.0989,2.0869,2.0762,2.0717,2.0717,2.0735,2.0588,2.0494,2.0481,2.0201,1.988,1.9477,1.8983,1.8716,1.8716,1.8716,1.8838,1.9027,1.9201,1.9345,1.9477,1.9597,1.9717,1.9867,1.9987,2.0187,2.0468,2.0655,2.0802,2.0922,2.0935,2.0975,2.1096,2.1109,2.1109,2.1122,2.1408,2.1681,2.1836,2.1964,2.2245,2.2639,2.2686,2.276,2.2893,2.302,2.3193,2.3265,2.3599,2.3968,2.4182,2.4356,2.4452,2.4559,2.4599,2.4599,2.4599,2.4599,2.4613,2.4599,2.4599,2.4599,2.4599,2.4599,2.4599,2.4613,2.4796,2.493,2.5064,2.5237,2.5411,2.5438,2.54,2.5384,2.5504,2.5424,2.5344,2.5483,2.5721,2.6416,2.6418,2.6259,2.7527,2.9453,2.9809,3.061,2.1582,2.1363,2.1349,2.1349,2.1336,2.1256,2.1283,2.1323,2.1176,2.1149,2.1216,2.1149,2.1109,2.1109,2.1109,2.1109,2.1109,2.1109,2.1109,2.1109,2.1109,2.1109,2.1109,2.1109,2.1109,2.1109,2.1109,2.1109,2.1109,2.1109,2.1109,2.1109,2.1109,2.1109,2.1082,2.0895,2.0833,2.0775,2.0508,2.0361,2.0254,1.9623,1.9263,1.925,1.925,1.9386,1.9615,1.98,2.0013,2.0184,2.0307,2.0361,2.033,2.0397,2.0575,2.0775,2.0989,2.1109,2.1109,2.1109,2.1109,2.1109,2.1176,2.1229,2.1296,2.1609,2.1903,2.2084,2.2365,2.2632,2.2853,2.2893,2.292,2.2979,2.3207,2.3332,2.3545,2.3981,2.4222,2.4329,2.4466,2.4599,2.4599,2.4599,2.4599,2.4599,2.4666,2.4666,2.4639,2.4666,2.4743,2.4613,2.4599,2.4599,2.4626,2.4863,2.505,2.517,2.5344,2.5598,2.5571,2.5558,2.5625,2.5718,2.5651,2.5638,2.5638,2.5688,2.5606,2.5195,2.5049,2.5511,2.7599,2.7542,2.8429,2.1964,2.197,2.197,2.1943,2.1924,2.1676,2.1716,2.1857,2.1363,2.1283,2.1515,2.1256,2.1091,2.1136,2.1162,2.1122,2.1077,2.1109,2.1109,2.1109,2.1109,2.1109,2.1109,2.1109,2.1109,2.1109,2.1109,2.1109,2.1109,2.1109,2.1109,2.1109,2.1109,2.1109,2.1096,2.1069,2.1082,2.1029,2.0788,2.0686,2.0659,2.0334,2.0117,2.0117,2.013,2.009,2.0144,2.017,2.0197,2.021,2.0508,2.0655,2.0681,2.0909,2.1042,2.1069,2.1096,2.1109,2.1109,2.1109,2.1122,2.1149,2.1395,2.1555,2.1596,2.2004,2.2298,2.2378,2.2632,2.2867,2.2893,2.2934,2.3041,2.3233,2.3292,2.3607,2.4075,2.4155,2.4292,2.4492,2.4572,2.4599,2.4599,2.4599,2.4599,2.4639,2.4863,2.493,2.473,2.4863,2.4903,2.4719,2.4639,2.4613,2.4639,2.4957,2.5104,2.5197,2.5478,2.585,2.5745,2.5705,2.5877,2.5957,2.5971,2.5971,2.5971,2.5864,2.5677,2.5382,2.4997,2.5598,2.6733,2.7253,2.7885,2.2151,2.2024,2.2024,2.2024,2.1977,2.1903,2.193,2.1964,2.1764,2.1724,2.1804,2.171,2.167,2.167,2.167,2.147,2.1122,2.1109,2.1109,2.1109,2.1109,2.1109,2.1109,2.1109,2.1109,2.1109,2.1109,2.1109,2.1109,2.1109,2.1109,2.1109,2.1109,2.1109,2.1109,2.1109,2.1109,2.1096,2.1002,2.0949,2.0935,2.0842,2.0802,2.0744,2.0397,2.0321,2.0521,2.0508,2.0601,2.0788,2.0895,2.0949,2.0962,2.1056,2.1109,2.1109,2.1109,2.1109,2.1109,2.1109,2.1203,2.1408,2.1515,2.1689,2.189,2.2178,2.2418,2.2472,2.2686,2.2893,2.2934,2.3033,2.3193,2.3305,2.3661,2.3941,2.4182,2.4356,2.4479,2.4572,2.4599,2.4599,2.4599,2.4599,2.4599,2.4599,2.4693,2.4719,2.4693,2.489,2.505,2.4997,2.5077,2.5159,2.5197,2.5264,2.5358,2.5384,2.5558,2.5732,2.5758,2.5932,2.6066,2.5917,2.5984,2.6185,2.6158,2.6011,2.5837,2.5717,2.5317,2.5316,2.605,2.6429,2.668,2.2445,2.2318,2.2271,2.2305,2.2291,2.2164,2.2211,2.2231,2.2071,2.2031,2.2098,2.2031,2.2024,2.2024,2.2024,2.179,2.1403,2.1309,2.1203,2.1122,2.1203,2.1203,2.1136,2.1203,2.1203,2.1122,2.1109,2.1109,2.1109,2.1109,2.1109,2.1109,2.1109,2.1109,2.1109,2.1109,2.1109,2.1109,2.1109,2.1096,2.1109,2.1109,2.1109,2.1056,2.0691,2.057,2.0846,2.0815,2.0895,2.1069,2.1109,2.1109,2.1109,2.1109,2.1109,2.1109,2.1109,2.1109,2.1122,2.1203,2.1368,2.1582,2.177,2.1924,2.2124,2.2392,2.2539,2.2605,2.2726,2.292,2.3081,2.3287,2.3474,2.3514,2.3834,2.4155,2.4315,2.4479,2.4572,2.4586,2.4599,2.4599,2.4599,2.4599,2.4599,2.4599,2.4666,2.4746,2.4773,2.5024,2.5224,2.5237,2.5358,2.5438,2.5478,2.5531,2.5398,2.5398,2.565,2.5758,2.5665,2.5919,2.6039,2.5904,2.5984,2.6199,2.6253,2.6145,2.6065,2.5998,2.5665,2.5496,2.5637,2.5471,2.5899,2.288,2.2853,2.2893,2.284,2.2786,2.2525,2.2579,2.2719,2.2291,2.2205,2.2378,2.2151,2.2084,2.2077,2.2131,2.2004,2.1911,2.1743,2.1489,2.1243,2.1475,2.1448,2.1216,2.1435,2.1395,2.1122,2.1109,2.1109,2.1109,2.1109,2.1109,2.1109,2.1109,2.1109,2.1109,2.1109,2.1109,2.1109,2.1109,2.1109,2.1109,2.1109,2.1109,2.1109,2.1056,2.1042,2.1051,2.1082,2.1082,2.1096,2.1109,2.1109,2.1109,2.1109,2.1109,2.1109,2.1109,2.1109,2.1162,2.1422,2.1542,2.1729,2.2084,2.2352,2.2445,2.2659,2.2853,2.2853,2.288,2.3,2.326,2.3514,2.375,2.3817,2.3888,2.4128,2.4439,2.4586,2.4599,2.4599,2.4599,2.4599,2.4599,2.4599,2.4599,2.4639,2.4863,2.5024,2.505,2.5291,2.5491,2.5518,2.5625,2.5732,2.5732,2.5705,2.5529,2.5396,2.5703,2.5877,2.5344,2.5306,2.5638,2.5585,2.5998,2.6213,2.6346,2.6213,2.6158,2.6051,2.5758,2.5651,2.5678,2.5678,2.5464,2.2893,2.2893,2.2893,2.2893,2.2893,2.28,2.2813,2.288,2.2693,2.2679,2.2733,2.2666,2.2626,2.2626,2.2626,2.2505,2.2285,2.2178,2.1991,2.1764,2.185,2.1804,2.1697,2.1636,2.1435,2.1149,2.1109,2.1109,2.1077,2.1109,2.1109,2.1109,2.1109,2.1109,2.1109,2.1109,2.1109,2.1109,2.1109,2.1109,2.1109,2.1109,2.1109,2.1109,2.1109,2.1109,2.1109,2.1109,2.1109,2.1109,2.1109,2.1109,2.1077,2.1109,2.1109,2.1109,2.1109,2.1216,2.1422,2.1542,2.1783,2.2071,2.2325,2.2512,2.2686,2.284,2.2893,2.2893,2.2907,2.3027,2.3238,2.3394,2.3661,2.4035,2.4249,2.4382,2.4546,2.4599,2.4599,2.4599,2.4599,2.4599,2.4599,2.4599,2.4626,2.4653,2.4917,2.509,2.5157,2.5518,2.5798,2.5864,2.5945,2.6039,2.6052,2.5999,2.5825,2.565,2.5784,2.5743,2.5197,2.5026,2.5304,2.5571,2.5932,2.6172,2.6293,2.6319,2.6226,2.6226,2.6132,2.6092,2.6106,2.5959,2.577,2.2263,2.2859,2.2893,2.2893,2.2893,2.2893,2.2893,2.2893,2.2893,2.2893,2.2893,2.2893,2.2893,2.2893,2.2893,2.28,2.2592,2.2579,2.2485,2.2298,2.2178,2.2098,2.1991,2.185,2.1596,2.1355,2.1301,2.1216,2.1077,2.1109,2.1109,2.1109,2.1109,2.1109,2.1109,2.1109,2.1109,2.1109,2.1109,2.1109,2.1109,2.1109,2.1109,2.1109,2.1109,2.1109,2.1109,2.1109,2.1109,2.1109,2.1109,2.1109,2.1077,2.1203,2.1269,2.1296,2.139,2.1569,2.1729,2.1877,2.2004,2.2365,2.2512,2.2679,2.2853,2.2893,2.2893,2.2893,2.3014,2.3166,2.3434,2.3572,2.3861,2.4266,2.4396,2.4492,2.4559,2.4599,2.4599,2.4599,2.4599,2.4599,2.4599,2.4719,2.4759,2.485,2.505,2.5317,2.5424,2.5757,2.5957,2.6118,2.6213,2.6279,2.6346,2.6279,2.6159,2.5972,2.5877,2.5596,2.513,2.5264,2.5491,2.5692,2.6038,2.6159,2.6293,2.636,2.6333,2.6386,2.64,2.6333,2.6239,2.6132,2.5984,2.1148,2.268,2.2873,2.2893,2.2893,2.2893,2.2893,2.2893,2.2893,2.2893,2.2893,2.2893,2.2893,2.2893,2.2893,2.288,2.2893,2.2853,2.284,2.2726,2.2552,2.2325,2.2104,2.2017,2.189,2.1649,2.1569,2.1422,2.1189,2.1122,2.1122,2.1162,2.1176,2.1162,2.1216,2.1162,2.1162,2.1176,2.1136,2.1109,2.1109,2.1109,2.1109,2.1109,2.1109,2.1109,2.1109,2.1149,2.1149,2.1109,2.1109,2.1122,2.1189,2.1435,2.1555,2.1596,2.1863,2.1937,2.2044,2.2191,2.2378,2.2451,2.2686,2.2893,2.2893,2.2893,2.2934,2.2953,2.3153,2.3434,2.3741,2.3981,2.4275,2.4519,2.4439,2.4436,2.4559,2.4613,2.4679,2.4666,2.4639,2.4666,2.4733,2.497,2.5077,2.5157,2.5344,2.565,2.5837,2.5998,2.6145,2.6239,2.636,2.6373,2.64,2.6373,2.6239,2.6091,2.5971,2.5692,2.5344,2.5491,2.5638,2.5877,2.6065,2.6212,2.6266,2.6346,2.64,2.64,2.64,2.64,2.6333,2.6226,2.6172,2.0459,2.1105,2.2354,2.2893,2.2893,2.2893,2.2893,2.2893,2.2893,2.2893,2.2893,2.2893,2.2893,2.2893,2.2893,2.2893,2.2893,2.2893,2.2893,2.2893,2.2827,2.2579,2.2352,2.2298,2.2151,2.1884,2.1729,2.1542,2.1448,2.1243,2.1256,2.1462,2.1475,2.1582,2.1729,2.1555,2.1475,2.1435,2.1203,2.1109,2.1109,2.1109,2.1109,2.1109,2.1109,2.1122,2.1136,2.1323,2.1355,2.1122,2.1109,2.1216,2.1448,2.1569,2.1716,2.189,2.1984,2.2098,2.2271,2.2358,2.2525,2.2726,2.2893,2.2893,2.2893,2.2907,2.3014,2.314,2.3265,2.3505,2.3968,2.4168,2.4436,2.4823,2.4703,2.4519,2.4639,2.4823,2.4957,2.497,2.513,2.5211,2.5251,2.5317,2.5398,2.5451,2.5638,2.5904,2.6051,2.6185,2.6279,2.6319,2.6386,2.6386,2.64,2.64,2.6293,2.6131,2.6051,2.6026,2.5758,2.5705,2.5864,2.5984,2.6185,2.6306,2.6333,2.6386,2.64,2.64,2.64,2.64,2.64,2.6333,2.6319,1.9924,2.1475,2.2479,2.2893,2.2893,2.2893,2.2893,2.2893,2.2893,2.2893,2.2893,2.2893,2.2893,2.2893,2.2893,2.2893,2.2893,2.2893,2.2893,2.2893,2.2893,2.2786,2.2632,2.2605,2.2445,2.2178,2.1991,2.189,2.177,2.1582,2.1622,2.1729,2.177,2.185,2.197,2.1863,2.1703,2.1582,2.1408,2.1256,2.1122,2.1109,2.1109,2.1136,2.1216,2.1368,2.1483,2.1676,2.1676,2.151,2.1483,2.1596,2.1756,2.1903,2.1991,2.2164,2.2271,2.2445,2.2579,2.2712,2.2873,2.3046,2.3188,2.3268,2.3295,2.3281,2.3354,2.3487,2.3607,2.3861,2.4115,2.4302,2.4663,2.5104,2.4997,2.4853,2.4946,2.5037,2.5144,2.5251,2.5398,2.5518,2.5531,2.5625,2.5692,2.5797,2.5959,2.6118,2.6212,2.6319,2.64,2.64,2.64,2.64,2.64,2.64,2.64,2.6238,2.6185,2.6159,2.6092,2.5972,2.6052,2.6198,2.6306,2.64,2.64,2.64,2.64,2.64,2.64,2.64,2.64,2.64,2.64,1.9195,2.2336,2.2529,2.2722,2.2859,2.2893,2.2893,2.2893,2.2893,2.2893,2.2907,2.2934,2.2947,2.2893,2.2974,2.2934,2.2907,2.2893,2.2893,2.292,2.2947,2.296,2.2913,2.2853,2.2726,2.2505,2.2438,2.2245,2.2044,2.201,2.2024,2.2017,2.2031,2.2091,2.2171,2.2104,2.193,2.177,2.1676,2.1542,2.1349,2.1309,2.1309,2.1336,2.1515,2.177,2.1924,2.2031,2.2031,2.2104,2.2017,2.1964,2.2031,2.2251,2.2385,2.2512,2.2699,2.292,2.2987,2.3166,2.3354,2.3407,2.3629,2.3803,2.3736,2.371,2.3736,2.3843,2.4048,2.4195,2.4396,2.4583,2.4983,2.5398,2.5304,2.5291,2.5464,2.5344,2.5277,2.5518,2.5571,2.5611,2.5665,2.5798,2.6038,2.6038,2.6186,2.6239,2.6279,2.6346,2.64,2.64,2.64,2.64,2.64,2.64,2.64,2.6333,2.6306,2.6319,2.6306,2.6266,2.6319,2.64,2.64,2.64,2.64,2.64,2.64,2.64,2.64,2.64,2.64,2.64,2.64,1.6621,1.8769,2.0133,2.1562,2.2756,2.2893,2.2907,2.2907,2.2907,2.2947,2.296,2.3126,2.3086,2.2934,2.3113,2.31,2.2934,2.2907,2.2893,2.292,2.314,2.322,2.318,2.3067,2.2993,2.2953,2.2585,2.2418,2.2325,2.2218,2.2111,2.2325,2.2352,2.2432,2.2626,2.2405,2.2311,2.2205,2.2017,2.189,2.181,2.1737,2.175,2.1777,2.1857,2.2031,2.2258,2.2325,2.2445,2.2546,2.2318,2.2138,2.2311,2.2405,2.2552,2.2779,2.3033,2.3207,2.3273,2.3487,2.371,2.3688,2.3803,2.3817,2.3817,2.3843,2.3937,2.4048,2.4182,2.4409,2.481,2.5144,2.5451,2.5692,2.5611,2.5611,2.6012,2.5957,2.581,2.5904,2.6078,2.6186,2.6172,2.6172,2.6319,2.6332,2.6319,2.6386,2.64,2.64,2.64,2.64,2.64,2.64,2.64,2.64,2.64,2.64,2.64,2.64,2.64,2.64,2.64,2.64,2.64,2.64,2.64,2.64,2.64,2.64,2.64,2.64,2.64,2.64,2.64,1.7109,1.8869,2.0665,2.1988,2.2817,2.3054,2.3108,2.3113,2.3281,2.3322,2.3348,2.3474,2.3469,2.3335,2.3434,2.3367,2.3086,2.296,2.2987,2.3073,2.3238,2.3439,2.3674,2.346,2.338,2.3474,2.3247,2.306,2.2966,2.2766,2.2726,2.2772,2.2712,2.2719,2.2867,2.2733,2.2552,2.2405,2.2271,2.2124,2.2017,2.2024,2.2084,2.2164,2.2205,2.2325,2.2592,2.2632,2.2746,2.2773,2.2612,2.2492,2.2592,2.2632,2.2779,2.306,2.3207,2.3407,2.3554,2.3794,2.3981,2.3981,2.4088,2.4168,2.4182,2.4182,2.4235,2.4332,2.4426,2.4613,2.5197,2.5384,2.5692,2.6051,2.5931,2.5932,2.6226,2.6172,2.6065,2.6172,2.6319,2.6346,2.6386,2.64,2.6386,2.6346,2.6346,2.64,2.64,2.64,2.64,2.64,2.64,2.64,2.64,2.64,2.64,2.64,2.64,2.64,2.64,2.64,2.64,2.64,2.64,2.64,2.64,2.64,2.64,2.64,2.64,2.64,2.64,2.64,2.64,1.8268,1.9924,2.1792,2.2566,2.2653,2.3099,2.3135,2.2893,2.3541,2.3736,2.3817,2.3843,2.383,2.3803,2.3843,2.3647,2.3327,2.3113,2.31,2.3238,2.3359,2.3701,2.3968,2.3968,2.3901,2.3937,2.375,2.3674,2.3541,2.35,2.326,2.3238,2.3073,2.2947,2.2907,2.288,2.2773,2.2552,2.2498,2.2405,2.2231,2.2224,2.2311,2.2445,2.2498,2.2579,2.28,2.2853,2.288,2.2893,2.2893,2.292,2.296,2.2987,2.3033,2.3278,2.3399,2.3634,2.3848,2.4088,2.4275,2.4289,2.4462,2.4559,2.4559,2.4519,2.4519,2.4599,2.4693,2.4986,2.5491,2.5692,2.5932,2.6199,2.6185,2.6198,2.6305,2.6198,2.6225,2.6306,2.636,2.6386,2.64,2.64,2.64,2.64,2.64,2.64,2.64,2.64,2.64,2.64,2.64,2.64,2.64,2.64,2.64,2.64,2.64,2.6413,2.6413,2.64,2.64,2.64,2.64,2.64,2.64,2.64,2.64,2.64,2.64,2.64,2.64,2.64,2.6426,1.6589,1.8445,2.0399,2.1162,2.1353,2.2937,2.2772,2.1616,2.3112,2.3803,2.3857,2.4022,2.4008,2.3937,2.4048,2.3834,2.3439,2.33,2.33,2.3399,2.3594,2.3928,2.4182,2.4356,2.4372,2.4306,2.4075,2.3741,2.3621,2.3567,2.3567,2.3345,2.326,2.3126,2.2947,2.2893,2.288,2.2752,2.2773,2.2719,2.2679,2.2666,2.2679,2.2773,2.2773,2.284,2.288,2.2907,2.2893,2.2893,2.2893,2.302,2.3193,2.326,2.3292,2.3425,2.3768,2.3995,2.4155,2.4382,2.4492,2.4546,2.4572,2.4586,2.4599,2.4626,2.4666,2.4786,2.5079,2.5504,2.5877,2.6012,2.6226,2.636,2.6346,2.6306,2.636,2.6333,2.6332,2.6373,2.64,2.64,2.64,2.64,2.64,2.64,2.64,2.64,2.64,2.64,2.64,2.64,2.64,2.64,2.64,2.64,2.64,2.6413,2.6426,2.6466,2.6453,2.6413,2.64,2.6547,2.6493,2.6413,2.6413,2.6413,2.644,2.6466,2.644,2.64,2.6413,2.644,2.6573,1.5913,1.7725,1.9808,2.0626,2.0936,2.2988,2.2839,2.1461,2.3259,2.4222,2.4262,2.4356,2.4319,2.4289,2.4342,2.4168,2.3848,2.3607,2.3647,2.3781,2.3941,2.4155,2.4382,2.4532,2.4516,2.4422,2.4235,2.4128,2.3972,2.3981,2.3834,2.3581,2.342,2.3166,2.296,2.2893,2.2893,2.2893,2.2893,2.2907,2.2907,2.2907,2.2907,2.2907,2.2934,2.2974,2.3086,2.31,2.3193,2.3335,2.3375,2.342,2.3541,2.3688,2.3732,2.3834,2.4062,2.4289,2.4396,2.4546,2.4586,2.4586,2.4599,2.4599,2.4639,2.4733,2.4917,2.5106,2.5424,2.5837,2.5971,2.6226,2.636,2.64,2.64,2.64,2.64,2.64,2.64,2.64,2.6413,2.6413,2.64,2.64,2.64,2.64,2.64,2.64,2.64,2.64,2.64,2.64,2.64,2.6426,2.6426,2.6413,2.6507,2.6533,2.652,2.656,2.6653,2.668,2.6787,2.6921,2.6787,2.6547,2.652,2.656,2.656,2.6547,2.6493,2.6453,2.6453,2.6507,2.6694,1.6154,1.7541,1.9785,2.0388,2.0316,2.2576,2.2484,2.1442,2.3459,2.4559,2.4599,2.4586,2.4586,2.4586,2.4546,2.4426,2.4195,2.3941,2.3981,2.4088,2.4075,2.4249,2.4439,2.4492,2.4399,2.4315,2.4462,2.4559,2.4359,2.4342,2.4102,2.3781,2.35,2.3207,2.2974,2.2893,2.2893,2.2893,2.2893,2.2907,2.2974,2.2987,2.3027,2.3081,2.3081,2.3228,2.338,2.3407,2.3514,2.3683,2.3763,2.3817,2.391,2.4075,2.4249,2.4356,2.4369,2.4489,2.4532,2.4693,2.4733,2.477,2.4706,2.4719,2.4839,2.509,2.5277,2.5571,2.581,2.6024,2.6118,2.6253,2.6373,2.64,2.64,2.64,2.64,2.64,2.64,2.64,2.6426,2.6507,2.656,2.6413,2.6426,2.6493,2.6507,2.64,2.64,2.64,2.64,2.64,2.6413,2.6453,2.6453,2.6426,2.6587,2.6774,2.6747,2.6747,2.6907,2.7095,2.7188,2.7215,2.7028,2.6774,2.6747,2.6707,2.6707,2.6667,2.6573,2.66,2.6734,2.6841,2.6974,1.7745,1.8036,2.0416,2.0284,1.9001,2.1031,2.0834,1.9736,2.3054,2.4562,2.4599,2.4586,2.4572,2.4572,2.4599,2.4439,2.4275,2.4195,2.4195,2.4235,2.4048,2.4062,2.4235,2.4249,2.4235,2.4195,2.4462,2.4462,2.4342,2.4422,2.4262,2.3884,2.3683,2.3469,2.2947,2.2947,2.2893,2.2907,2.292,2.302,2.322,2.3273,2.3394,2.3541,2.3643,2.3669,2.3701,2.3714,2.3817,2.3843,2.3843,2.395,2.4102,2.4182,2.4516,2.4796,2.4994,2.4877,2.4746,2.4903,2.5024,2.5024,2.5024,2.5157,2.5304,2.5411,2.5623,2.5904,2.6011,2.6118,2.6239,2.6346,2.64,2.64,2.64,2.64,2.64,2.6507,2.6493,2.656,2.664,2.676,2.6841,2.6627,2.6466,2.6547,2.6587,2.6493,2.64,2.6413,2.64,2.64,2.6426,2.6466,2.6587,2.6547,2.672,2.7015,2.7028,2.7001,2.7175,2.7335,2.7362,2.7349,2.7202,2.7162,2.7175,2.7108,2.6961,2.6867,2.6867,2.6987,2.7148,2.7228,2.7281,1.6752,1.7643,1.8968,1.9584,1.976,2.1043,2.1141,2.1029,2.3302,2.4599,2.4559,2.4412,2.4359,2.4386,2.4506,2.4532,2.4426,2.4399,2.4412,2.4369,2.4168,2.4088,2.4128,2.4048,2.3955,2.4048,2.4195,2.4195,2.4142,2.4146,2.4155,2.3843,2.3594,2.33,2.2974,2.3046,2.3113,2.318,2.3322,2.3482,2.3576,2.3581,2.3634,2.3768,2.383,2.3875,2.3981,2.4022,2.4115,2.4209,2.4262,2.4302,2.4409,2.4476,2.4649,2.5048,2.5237,2.5251,2.5184,2.5264,2.5304,2.5331,2.5344,2.5451,2.5717,2.581,2.5931,2.6212,2.6238,2.6305,2.6346,2.6386,2.64,2.64,2.64,2.6413,2.6453,2.66,2.668,2.6774,2.6867,2.7028,2.7161,2.7081,2.6921,2.6907,2.6841,2.6653,2.6547,2.648,2.644,2.64,2.644,2.6493,2.664,2.668,2.6907,2.7148,2.7402,2.7402,2.7509,2.7589,2.7657,2.7737,2.7777,2.7724,2.7617,2.7403,2.7202,2.7175,2.7215,2.7295,2.7403,2.7482,2.7575,1.5757,1.7308,1.7296,1.8352,2.0047,2.0623,2.0804,2.1104,2.35,2.4599,2.4546,2.4386,2.4302,2.4275,2.4452,2.4586,2.4586,2.4599,2.4599,2.4506,2.4332,2.4209,2.4128,2.3941,2.383,2.3781,2.3981,2.3981,2.3758,2.3418,2.3177,2.3625,2.346,2.318,2.3067,2.314,2.3278,2.3447,2.3607,2.379,2.3897,2.3875,2.3928,2.3981,2.4008,2.4088,2.4275,2.4315,2.4412,2.4663,2.4716,2.4719,2.4826,2.4879,2.505,2.5344,2.5558,2.5665,2.5665,2.5692,2.5638,2.5651,2.5732,2.5852,2.6038,2.6105,2.6158,2.6346,2.636,2.6373,2.64,2.64,2.64,2.64,2.64,2.6426,2.6507,2.6707,2.6894,2.7028,2.7161,2.7388,2.7482,2.7563,2.7483,2.7362,2.7121,2.6867,2.6694,2.656,2.6493,2.6453,2.656,2.6653,2.6854,2.7001,2.7161,2.7335,2.7589,2.7736,2.7844,2.7938,2.8005,2.8125,2.8192,2.8098,2.7898,2.767,2.7469,2.7563,2.7617,2.7536,2.7576,2.7682,2.7802,1.5685,1.7566,1.6074,1.6638,1.8478,1.8659,1.8837,1.9666,2.3005,2.4438,2.4559,2.4546,2.4386,2.4329,2.4439,2.4599,2.4599,2.4599,2.4599,2.4506,2.4332,2.4222,2.4029,2.3798,2.3518,2.3483,2.3122,2.3109,2.3171,2.1413,2.2003,2.3025,2.2687,2.2897,2.303,2.3077,2.3559,2.3741,2.3888,2.3995,2.4115,2.4195,2.4275,2.4439,2.4506,2.4546,2.4559,2.4572,2.4703,2.4983,2.5037,2.513,2.5213,2.5304,2.5451,2.573,2.5837,2.5998,2.6079,2.6065,2.5984,2.6038,2.6132,2.6279,2.6346,2.6373,2.64,2.648,2.656,2.6507,2.6466,2.6413,2.6533,2.6573,2.664,2.6694,2.6774,2.6881,2.7068,2.7241,2.7496,2.7724,2.7804,2.7831,2.7817,2.7697,2.7321,2.7014,2.6787,2.664,2.6573,2.656,2.6707,2.6881,2.7202,2.7349,2.7443,2.7617,2.7816,2.7991,2.8072,2.8165,2.8192,2.8192,2.8192,2.8192,2.8152,2.7898,2.7777,2.7938,2.7965,2.7831,2.7831,2.7965,2.8045,1.4006,1.5876,1.4122,1.5904,1.9826,1.7615,1.8146,2.0418,2.2099,2.3422,2.4382,2.4492,2.4439,2.4356,2.4452,2.4599,2.4599,2.4599,2.4599,2.4506,2.4369,2.4222,2.3799,2.2777,2.1857,2.1678,2.1003,2.0181,1.9732,1.9264,1.9289,1.998,2.0947,2.1414,2.1707,2.3001,2.3883,2.4159,2.4289,2.4369,2.4422,2.4439,2.4492,2.4572,2.4599,2.4599,2.4613,2.4823,2.4957,2.5104,2.5264,2.5424,2.5545,2.5558,2.5705,2.5971,2.6024,2.6172,2.6346,2.6332,2.6265,2.6319,2.6466,2.664,2.664,2.6787,2.6948,2.6974,2.6934,2.6881,2.6961,2.6974,2.6974,2.6974,2.6974,2.6961,2.7054,2.7161,2.7321,2.7563,2.7791,2.8018,2.8058,2.8085,2.8072,2.8005,2.7589,2.7255,2.6987,2.6867,2.6787,2.6774,2.6921,2.7121,2.7388,2.7563,2.767,2.7871,2.8072,2.8112,2.8165,2.8165,2.8192,2.8192,2.8192,2.8192,2.8138,2.8045,2.8031,2.8098,2.8098,2.81,2.8112,2.8179,2.8192,1.2946,1.4722,1.2926,1.491,1.8862,1.6621,1.7474,2.0429,2.1365,2.2584,2.4186,2.4489,2.4439,2.4306,2.4466,2.4586,2.4599,2.4599,2.4599,2.4532,2.4412,2.4,2.2995,2.1898,2.0761,1.984,1.8843,1.8063,1.8108,1.7441,1.7189,1.7448,1.8223,1.9144,2.1209,2.286,2.4306,2.4532,2.4599,2.4599,2.4586,2.4586,2.4586,2.4599,2.4599,2.4679,2.4796,2.497,2.5222,2.5371,2.5545,2.5678,2.5745,2.5798,2.5892,2.5999,2.6145,2.6226,2.6413,2.6426,2.64,2.6386,2.6627,2.676,2.6894,2.7094,2.7202,2.7242,2.7269,2.7322,2.7322,2.7242,2.7215,2.7162,2.7162,2.7215,2.7348,2.7482,2.7642,2.7857,2.8045,2.8152,2.8152,2.8138,2.8045,2.7991,2.7722,2.7415,2.7242,2.7135,2.7162,2.7175,2.7229,2.7402,2.7615,2.7791,2.7911,2.7978,2.8138,2.8152,2.8179,2.8192,2.8192,2.8192,2.8192,2.8192,2.8152,2.8098,2.8125,2.8165,2.8165,2.8181,2.8152,2.8192,2.8192,1.285,1.4583,1.2838,1.3477,1.5692,1.5569,1.6637,1.8837,2.0793,2.2448,2.3924,2.4345,2.4466,2.4319,2.4506,2.4586,2.4599,2.4599,2.4599,2.4572,2.4509,2.3499,2.2201,2.1036,1.9682,1.84,1.7297,1.6786,1.7169,1.5786,1.5112,1.524,1.6035,1.7581,2.0584,2.3011,2.4283,2.4485,2.4401,2.4599,2.4599,2.4599,2.4599,2.4599,2.4666,2.4823,2.4957,2.5208,2.5462,2.5757,2.5904,2.6026,2.6199,2.6239,2.6279,2.6319,2.6346,2.6493,2.6747,2.6533,2.6493,2.652,2.68,2.6947,2.6934,2.7108,2.7429,2.7523,2.7443,2.7403,2.7362,2.7362,2.7403,2.7443,2.7469,2.751,2.7697,2.7749,2.7938,2.8005,2.8098,2.8179,2.8179,2.8152,2.8018,2.7911,2.7749,2.7589,2.7469,2.7469,2.7536,2.755,2.7576,2.767,2.7829,2.8031,2.8138,2.8179,2.8192,2.8192,2.8192,2.8192,2.8192,2.8192,2.8192,2.8192,2.8192,2.8179,2.8192,2.8192,2.8192,2.8179,2.8179,2.8192,2.8192,1.2092,1.2773,1.2141,1.2428,1.3228,1.3441,1.4667,1.6942,1.993,2.1927,2.2707,2.3844,2.4559,2.4519,2.4519,2.4599,2.4599,2.4599,2.4599,2.4525,2.4438,2.3302,2.1778,2.0041,1.8478,1.6482,1.5287,1.4506,1.4098,1.3703,1.3467,1.3504,1.5106,1.6794,1.9575,2.2202,2.4077,2.3141,2.3685,2.4599,2.4599,2.4599,2.4599,2.4613,2.481,2.497,2.5195,2.5449,2.577,2.6024,2.6131,2.6266,2.6373,2.6386,2.64,2.64,2.64,2.652,2.6787,2.6841,2.6867,2.6907,2.7068,2.7241,2.7188,2.7643,2.7817,2.7857,2.7804,2.7817,2.7911,2.7898,2.7924,2.7924,2.7951,2.7951,2.8045,2.8045,2.8112,2.8125,2.8179,2.8192,2.8192,2.8192,2.8085,2.8058,2.7978,2.7978,2.7871,2.7911,2.7965,2.7965,2.7978,2.7991,2.8072,2.8138,2.8179,2.8179,2.8192,2.8192,2.8192,2.8192,2.8192,2.8192,2.8192,2.8192,2.8192,2.8192,2.8192,2.8192,2.8219,2.8205,2.8192,2.8192,2.8192,1.1638,1.1726,1.1773,1.1847,1.2057,1.2305,1.3586,1.5904,1.9025,2.0579,2.0991,2.262,2.3487,2.3672,2.429,2.4599,2.4525,2.3759,2.3537,2.3537,2.3524,2.2124,2.0504,1.9176,1.771,1.5463,1.3683,1.2642,1.2853,1.2604,1.2597,1.3308,1.5119,1.6078,1.8164,2.0096,2.2955,2.2471,2.3413,2.4599,2.4599,2.4613,2.469,2.481,2.4983,2.5208,2.5462,2.5757,2.6051,2.6158,2.6305,2.64,2.64,2.64,2.64,2.64,2.6627,2.676,2.7001,2.7402,2.7429,2.7215,2.7535,2.7575,2.7563,2.7871,2.8058,2.8138,2.8192,2.8179,2.8165,2.8192,2.8179,2.8165,2.8165,2.8165,2.8165,2.8152,2.8152,2.8179,2.8192,2.8192,2.8192,2.8192,2.8152,2.8165,2.8165,2.8192,2.8192,2.8192,2.8192,2.8179,2.8165,2.8125,2.8125,2.8165,2.8179,2.8192,2.8192,2.8192,2.8192,2.8192,2.8192,2.8192,2.8192,2.8192,2.8192,2.8192,2.8192,2.8259,2.8339,2.8299,2.8205,2.8259,2.8339,1.1584,1.1604,1.1732,1.1786,1.184,1.2135,1.3429,1.5476,1.7568,1.8504,1.8665,2.0632,2.1489,2.19,2.3388,2.387,2.3574,2.2124,2.1714,2.1527,2.1515,2.0128,1.9101,1.8156,1.6599,1.5119,1.3676,1.2726,1.2656,1.3112,1.3074,1.376,1.618,1.6256,1.6866,1.8686,2.0954,2.0991,2.3153,2.3981,2.3994,2.4504,2.4786,2.4983,2.5184,2.5489,2.5757,2.6024,2.6185,2.6266,2.6386,2.64,2.64,2.64,2.64,2.656,2.6947,2.7215,2.7335,2.7804,2.7911,2.7655,2.7696,2.7722,2.7762,2.7965,2.8138,2.8192,2.8192,2.8192,2.8192,2.8192,2.8179,2.8179,2.8179,2.8179,2.8179,2.8179,2.8179,2.8192,2.8192,2.8192,2.8192,2.8192,2.8192,2.8192,2.8192,2.8192,2.8192,2.8192,2.8192,2.8179,2.8179,2.8179,2.8192,2.8192,2.8192,2.8192,2.8192,2.8192,2.8192,2.8192,2.8192,2.8192,2.8192,2.8219,2.8312,2.8286,2.8219,2.8286,2.8406,2.8406,2.8326,2.8511,2.8617,1.1584,1.159,1.1631,1.1644,1.1671,1.1847,1.2475,1.3452,1.5345,1.627,1.6354,1.8501,1.9409,1.9553,2.0091,2.0391,2.0193,1.9817,1.9591,1.9478,1.944,1.808,1.7132,1.6447,1.5119,1.3984,1.3074,1.3074,1.4245,1.4475,1.5463,1.7094,1.698,1.6485,1.717,1.861,1.8469,1.8971,2.1861,2.2893,2.3254,2.3704,2.4308,2.4818,2.5172,2.5527,2.5945,2.6198,2.6306,2.636,2.64,2.64,2.64,2.64,2.644,2.6747,2.7188,2.7575,2.7642,2.7965,2.8138,2.8045,2.8031,2.7869,2.7856,2.7991,2.8179,2.8192,2.8192,2.8192,2.8192,2.8192,2.8192,2.8192,2.8192,2.8192,2.8192,2.8192,2.8192,2.8192,2.8192,2.8192,2.8192,2.8192,2.8192,2.8192,2.8192,2.8192,2.8192,2.8192,2.8192,2.8192,2.8192,2.8192,2.8192,2.8192,2.8192,2.8192,2.8192,2.8192,2.8192,2.8192,2.8192,2.8219,2.8272,2.8379,2.847,2.8404,2.8326,2.8366,2.8417,2.8417,2.847,2.8684,2.8898,1.1584,1.1584,1.1584,1.1647,1.1671,1.1698,1.1891,1.2312,1.3499,1.4038,1.4287,1.6354,1.7303,1.7463,1.8258,1.8799,1.8761,1.7815,1.736,1.736,1.7398,1.6675,1.5807,1.5348,1.5004,1.3791,1.2997,1.2958,1.4445,1.5387,1.6256,1.6942,1.698,1.7512,1.8118,1.9262,1.8291,1.796,1.8638,2.0725,2.1659,2.2077,2.288,2.4086,2.4557,2.5049,2.5923,2.6162,2.6333,2.6386,2.64,2.6466,2.656,2.6667,2.6774,2.7068,2.7388,2.7629,2.7722,2.8005,2.8138,2.8192,2.8179,2.8098,2.8045,2.8098,2.8165,2.8192,2.8192,2.8192,2.8192,2.8192,2.8192,2.8192,2.8192,2.8192,2.8192,2.8192,2.8192,2.8192,2.8192,2.8192,2.8192,2.8192,2.8192,2.8192,2.8192,2.8192,2.8192,2.8192,2.8192,2.8192,2.8192,2.8192,2.8192,2.8192,2.8192,2.8192,2.8192,2.8192,2.8192,2.8219,2.8232,2.8312,2.8406,2.8511,2.8711,2.8524,2.846,2.8497,2.8604,2.8684,2.8751,2.8845,2.8988,1.1584,1.1584,1.1584,1.1644,1.1746,1.1644,1.1708,1.1786,1.2107,1.2159,1.2641,1.4204,1.5081,1.54,1.6462,1.7246,1.678,1.5845,1.5272,1.531,1.5272,1.4974,1.4974,1.5127,1.4437,1.4253,1.3876,1.2997,1.3421,1.4707,1.5953,1.6101,1.8939,1.9816,1.9229,2.0823,1.9618,1.6683,1.6961,1.83,1.8813,1.9216,2.0048,2.1963,2.2721,2.3301,2.5042,2.5858,2.6149,2.6109,2.6387,2.648,2.6774,2.7094,2.7228,2.7416,2.7629,2.7749,2.7898,2.8072,2.8152,2.8192,2.8179,2.8165,2.8152,2.8138,2.8179,2.8192,2.8192,2.8192,2.8192,2.8192,2.8192,2.8192,2.8192,2.8192,2.8192,2.8192,2.8192,2.8192,2.8192,2.8192,2.8192,2.8192,2.8192,2.8192,2.8192,2.8192,2.8192,2.8192,2.8192,2.8192,2.8192,2.8192,2.8192,2.8192,2.8192,2.8192,2.8192,2.8192,2.8192,2.8232,2.8299,2.8406,2.8484,2.8764,2.8898,2.8751,2.8698,2.8791,2.8911,2.8961,2.9015,2.9055,2.9215,1.1584,1.1584,1.1584,1.1604,1.1667,1.1597,1.164,1.1638,1.1708,1.19,1.2189,1.2669,1.3099,1.361,1.3961,1.4419,1.4084,1.4137,1.3375,1.3414,1.3452,1.3683,1.3375,1.3606,1.3414,1.3112,1.2881,1.3158,1.4184,1.5435,1.7326,1.9688,2.0818,1.9818,2.1011,2.2221,1.9135,1.6117,1.5607,1.6123,1.6682,1.8404,1.988,2.0342,2.0615,2.0892,2.2247,2.322,2.3592,2.3991,2.566,2.6374,2.676,2.7308,2.7562,2.7642,2.7884,2.7991,2.8058,2.8112,2.8165,2.8192,2.8192,2.8192,2.8179,2.8192,2.8192,2.8192,2.8192,2.8192,2.8192,2.8192,2.8192,2.8192,2.8192,2.8192,2.8192,2.8192,2.8192,2.8192,2.8192,2.8192,2.8192,2.8192,2.8192,2.8192,2.8192,2.8192,2.8192,2.8192,2.8192,2.8192,2.8192,2.8192,2.8192,2.8192,2.8192,2.8192,2.8192,2.8192,2.8192,2.8286,2.8337,2.8484,2.8644,2.8965,2.9152,2.9015,2.9045,2.9112,2.9112,2.9165,2.9299,2.9352,2.9539,1.1584,1.1584,1.1584,1.1584,1.1584,1.1584,1.1584,1.1584,1.1584,1.1789,1.207,1.2118,1.2234,1.2413,1.2379,1.24,1.2494,1.254,1.2695,1.2617,1.2501,1.2617,1.2501,1.2501,1.2656,1.2501,1.2585,1.3211,1.44,1.5557,1.7303,1.9308,1.8964,1.9798,2.1601,1.9514,1.8159,1.6344,1.4867,1.4786,1.5151,1.6225,1.7539,1.7796,1.8401,1.877,2.0069,2.1292,2.2164,2.367,2.5779,2.6838,2.7321,2.7655,2.7898,2.7978,2.8072,2.8192,2.8192,2.8192,2.8192,2.8192,2.8192,2.8192,2.8192,2.8192,2.8192,2.8192,2.8192,2.8192,2.8192,2.8192,2.8192,2.8192,2.8192,2.8192,2.8192,2.8192,2.8192,2.8192,2.8192,2.8192,2.8192,2.8192,2.8192,2.8192,2.8192,2.8192,2.8192,2.8192,2.8192,2.8192,2.8192,2.8192,2.8192,2.8192,2.8192,2.8192,2.8192,2.8192,2.8205,2.8339,2.843,2.8644,2.8911,2.9259,2.9366,2.9325,2.9299,2.9325,2.9312,2.9299,2.9446,2.9606,2.974,1.1584,1.1584,1.1584,1.1584,1.1584,1.1584,1.1584,1.1584,1.1619,1.1782,1.2077,1.2098,1.22,1.2318,1.2406,1.2461,1.2494,1.2501,1.2501,1.2501,1.2501,1.2501,1.2501,1.2501,1.2501,1.2501,1.254,1.2642,1.3091,1.4366,1.5428,1.6216,1.7131,1.8059,1.7378,1.7286,1.7376,1.5731,1.4616,1.4538,1.407,1.3397,1.4766,1.5745,1.6369,1.7261,1.8485,1.9694,2.0761,2.3231,2.5517,2.6566,2.7214,2.7493,2.8058,2.8152,2.8138,2.8192,2.8192,2.8192,2.8192,2.8192,2.8179,2.8192,2.8192,2.8192,2.8192,2.8192,2.8192,2.8192,2.8192,2.8192,2.8192,2.8192,2.8192,2.8192,2.8192,2.8192,2.8192,2.8192,2.8192,2.8192,2.8192,2.8192,2.8192,2.8192,2.8192,2.8192,2.8192,2.8192,2.8192,2.8192,2.8192,2.8192,2.8192,2.8192,2.8192,2.8192,2.8192,2.8192,2.8232,2.8393,2.8591,2.8925,2.9205,2.9472,2.9619,2.9633,2.9606,2.9553,2.9566,2.9579,2.9726,2.986,2.99,1.1584,1.1584,1.1584,1.1584,1.1584,1.1584,1.1584,1.1584,1.1619,1.1789,1.2043,1.2118,1.2241,1.2454,1.2352,1.2379,1.2501,1.2501,1.2501,1.2501,1.2501,1.2501,1.2501,1.2501,1.2501,1.2501,1.2515,1.2596,1.2759,1.3417,1.4531,1.6117,1.6405,1.7485,1.8829,1.8142,1.6431,1.5149,1.422,1.3851,1.3776,1.3438,1.348,1.3928,1.4052,1.43,1.4953,1.6369,1.8341,2.1139,2.453,2.579,2.6472,2.7081,2.797,2.8192,2.8192,2.7883,2.7841,2.8052,2.8094,2.7701,2.7799,2.8192,2.8192,2.8192,2.8192,2.8192,2.8192,2.8192,2.8192,2.8192,2.8192,2.8192,2.8192,2.8192,2.8192,2.8192,2.8192,2.8192,2.8192,2.8192,2.8192,2.8192,2.8192,2.8192,2.8192,2.8192,2.8192,2.8192,2.8192,2.8192,2.8192,2.8192,2.8192,2.8192,2.8192,2.8192,2.8205,2.8232,2.8312,2.8444,2.8711,2.9072,2.9339,2.9579,2.97,2.9806,2.982,2.9766,2.982,2.9887,3.0007,3.0034,3.002]},{"header":{"parameterUnit":"m.s-1","parameterCategory":1,"la1":31.0,"la2":29.5877,"lo1":-88.7671,"lo2":-86.6584,"dy":0.0162,"dx":0.0185,"nx":115,"ny":88,"refTime":"2023-11-03T12:00:00:Z","depth":0,"parameterNumber":3,"parameterNumberName":"V-component_of_WINDS"},"data":[0.0,0.0,0.0,0.0,0.0,0.0,0.0,0.0,0.0,0.0,0.0,0.0,0.0,0.0,0.0,0.0,0.0,0.0,0.0,0.0,0.0,0.0,0.0,0.0,0.0,0.0,0.0,0.0,0.0,0.0,0.0,0.0,0.0,0.0,0.0,0.0,0.0,0.0,0.0,0.0,0.0,0.0,0.0,0.0,0.0,0.0,0.0,0.0,0.0,0.0,0.0,0.0,0.0,0.0,0.0,0.0,0.0,0.0,0.0,0.0,0.0,0.0,0.0,0.0,0.0,0.0,0.0,0.0,0.0,0.0,0.0,0.0,0.0,0.0,0.0,0.0,0.0,0.0,0.0,0.0,0.0,0.0,0.0,0.0,0.0,0.0,0.0,0.0,0.0,0.0,0.0,0.0,0.0,0.0,0.0,0.0,0.0,0.0,0.0,0.0,0.0,0.0,0.0,0.0,0.0,0.0,0.0,0.0,0.0,0.0,0.0,0.0,0.0,0.0,0.0,0.0,0.0,0.0,0.0,0.0,0.0,0.0,0.0,0.0,0.0,0.0,0.0,0.0,0.0,0.0,0.0,0.0,0.0,0.0,0.0,0.0,0.0,0.0,0.0,0.0,0.0,0.0,0.0,0.0,0.0,0.0,0.0,0.0,0.0,0.0,0.0,0.0,0.0,0.0,0.0,0.0,0.0,0.0,0.0,0.0,0.0,0.0,0.0,0.0,0.0,0.0,0.0,0.0,0.0,0.0,0.0,0.0,0.0,0.0,0.0,0.0,0.0,0.0,0.0,0.0,0.0,0.0,0.0,0.0,0.0,0.0,0.0,0.0,0.0,0.0,0.0,0.0,0.0,0.0,0.0,0.0,0.0,0.0,0.0,0.0,0.0,0.0,0.0,0.0,0.0,0.0,0.0,0.0,0.0,0.0,0.0,0.0,0.0,0.0,0.0,0.0,0.0,0.0,0.0,0.0,0.0,0.0,0.0,0.0,0.0,0.0,0.0,0.0,0.0,0.0,0.0,0.0,0.0,0.0,0.0,0.0,0.0,0.0,0.0,0.0,0.0,0.0,0.0,0.0,0.0,0.0,0.0,0.0,0.0,0.0,0.0,0.0,0.0,0.0,0.0,0.0,0.0,0.0,0.0,0.0,0.0,0.0,0.0,0.0,0.0,0.0,0.0,0.0,0.0,0.0,0.0,0.0,0.0,0.0,0.0,0.0,0.0,0.0,0.0,0.0,0.0,0.0,0.0,0.0,0.0,0.0,0.0,0.0,0.0,0.0,0.0,0.0,0.0,0.0,0.0,0.0,0.0,0.0,0.0,0.0,0.0,0.0,0.0,0.0,0.0,0.0,0.0,0.0,0.0,0.0,0.0,0.0,0.0,0.0,0.0,0.0,0.0,0.0,0.0,0.0,0.0,0.0,0.0,0.0,0.0,0.0,0.0,0.0,0.0,0.0,0.0,0.0,0.0,0.0,0.0,0.0,0.0,0.0,0.0,0.0,0.0,0.0,0.0,0.0,0.0,0.0,0.0,0.0,0.0,0.0,0.0,0.0,0.0,0.0,0.0,0.0,0.0,0.0,0.0,0.0,0.0,0.0,0.0,0.0,0.0,0.0,0.0,0.0,0.0,0.0,0.0,0.0,0.0,0.0,0.0,0.0,0.0,0.0,0.0,0.0,0.0,0.0,0.0,0.0,0.0,0.0,0.0,0.0,0.0,0.0,0.0,0.0,0.0,0.0,0.0,0.0,0.0,0.0,0.0,0.0,0.0,0.0,0.0,0.0,0.0,0.0,0.0,0.0,0.0,0.0,0.0,0.0,0.0,0.0,0.0,0.0,0.0,0.0,0.0,0.0,0.0,0.0,0.0,0.0,0.0,0.0,0.0,0.0,0.0,0.0,0.0,0.0,0.0,0.0,0.0,0.0,0.0,0.0,0.0,0.0,0.0,0.0,0.0,0.0,0.0,0.0,0.0,0.0,0.0,0.0,0.0,0.0,0.0,0.0,0.0,0.0,0.0,0.0,0.0,0.0,0.0,0.0,0.0,0.0,0.0,0.0,0.0,0.0,0.0,0.0,0.0,0.0,0.0,0.0,0.0,0.0,0.0,0.0,0.0,0.0,0.0,0.0,0.0,0.0,0.0,0.0,0.0,0.0,0.0,0.0,0.0,0.0,0.0,0.0,0.0,0.0,0.0,0.0,0.0,0.0,0.0,0.0,0.0,0.0,0.0,0.0,0.0,0.0,0.0,0.0,0.0,0.0,0.0,0.0,0.0,0.0,0.0,0.0,0.0,0.0,0.0,0.0,0.0,0.0,0.0,0.0,0.0,0.0,0.0,0.0,0.0,0.0,0.0,0.0,0.0,0.0,0.0,0.0,0.0,0.0,0.0,0.0,0.0,0.0,0.0,0.0,0.0,0.0,0.0,0.0,0.0,0.0,0.0,0.0,0.0,0.0,0.0,0.0,0.0,0.0,0.0,0.0,0.0,0.0,0.0,0.0,0.0,0.0,0.0,0.0,0.0,0.0,0.0,0.0,0.0,0.0,0.0,0.0,0.0,0.0,0.0,0.0,0.0,0.0,0.0,0.0,0.0,0.0,0.0,0.0,0.0,0.0,0.0,0.0,0.0,0.0,0.0,0.0,0.0,0.0,0.0,0.0,0.0,0.0,0.0,0.0,0.0,0.0,0.0,0.0,0.0,0.0,0.0,0.0,0.0,0.0,0.0,0.0,0.0,0.0,0.0,0.0,0.0,0.0,0.0,0.0,0.0,0.0,0.0,0.0,0.0,0.0,0.0,0.0,0.0,0.0,0.0,0.0,0.0,0.0,0.0,0.0,0.0,0.0,0.0,0.0,0.0,0.0,0.0,0.0,0.0,0.0,0.0,0.0,0.0,0.0,0.0,0.0,0.0,0.0,0.0,0.0,0.0,0.0,0.0,0.0,0.0,0.0,0.0,0.0,0.0,0.0,0.0,0.0,0.0,0.0,0.0,0.0,0.0,0.0,0.0,0.0,0.0,0.0,0.0,0.0,0.0,0.0,0.0,0.0,0.0,0.0,0.0,0.0,0.0,0.0,0.0,0.0,0.0,0.0,0.0,0.0,0.0,0.0,0.0,0.0,0.0,0.0,0.0,0.0,0.0,0.0,0.0,0.0,0.0,0.0,0.0,0.0,0.0,0.0,0.0,0.0,0.0,0.0,0.0,0.0,0.0,0.0,0.0,0.0,0.0,0.0,0.0,0.0,0.0,0.0,0.0,0.0,0.0,0.0,0.0,0.0,0.0,0.0,0.0,0.0,0.0,0.0,0.0,0.0,0.0,0.0,0.0,0.0,0.0,0.0,0.0,0.0,0.0,0.0,0.0,0.0,0.0,0.0,0.0,0.0,0.0,0.0,0.0,0.0,0.0,0.0,0.0,0.0,0.0,0.0,0.0,0.0,0.0,0.0,0.0,0.0,0.0,0.0,0.0,0.0,0.0,0.0,0.0,0.0,0.0,0.0,0.0,0.0,0.0,0.0,0.0,0.0,0.0,0.0,0.0,0.0,0.0,0.0,0.0,0.0,0.0,0.0,0.0,0.0,0.0,0.0,0.0,0.0,0.0,0.0,0.0,0.0,0.0,0.0,0.0,0.0,0.0,0.0,0.0,0.0,0.0,0.0,0.0,0.0,0.0,0.0,0.0,0.0,0.0,0.0,0.0,0.0,0.0,0.0,0.0,0.0,0.0,0.0,0.0,0.0,0.0,0.0,0.0,0.0,0.0,0.0,0.0,0.0,0.0,0.0,0.0,0.0,0.0,0.0,0.0,0.0,0.0,0.0,0.0,0.0,0.0,0.0,0.0,0.0,0.0,0.0,0.0,0.0,0.0,0.0,0.0,0.0,0.0,0.0,0.0,0.0,0.0,0.0,0.0,0.0,0.0,0.0,0.0,0.0,0.0,0.0,0.0,0.0,0.0,0.0,0.0,0.0,0.0,0.0,0.0,0.0,0.0,0.0,0.0,0.0,0.0,0.0,0.0,0.0,0.0,0.0,0.0,0.0,0.0,0.0,0.0,0.0,0.0,0.0,0.0,0.0,0.0,0.0,0.0,0.0,0.0,0.0,0.0,0.0,0.0,0.0,0.0,0.0,0.0,0.0,0.0,0.0,0.0,0.0,0.0,0.0,0.0,0.0,0.0,0.0,0.0,0.0,0.0,0.0,0.0,0.0,0.0,0.0,0.0,0.0,0.0,0.0,0.0,0.0,0.0,0.0,0.0,0.0,0.0,0.0,0.9835,0.0,0.0,0.0,0.0,0.0,0.0,0.0,0.0,0.0,0.0,0.0,0.0,0.0,0.0,0.0,0.0,0.0,0.0,0.0,0.0,0.0,0.0,0.0,0.0,0.0,0.0,0.0,0.0,0.0,0.0,0.0,0.0,0.0,0.0,0.0,0.0,0.0,0.0,0.0,0.0,0.0,0.0,0.0,0.0,0.0,0.0,0.0,0.0,0.0,0.0,0.0,0.0,0.0,0.0,0.0,0.0,0.0,0.0,0.0,0.0,0.0,0.0,0.0,0.0,0.0,0.0,0.0,0.0,0.0,0.0,0.0,0.0,0.0,0.0,0.0,0.0,0.0,0.0,0.0,0.0,0.0,0.0,0.0,0.0,0.0,0.0,0.0,0.0,0.0,0.0,0.0,0.0,0.0,0.0,0.0,0.0,0.0,0.0,0.0,0.0,0.0,0.0,0.0,0.0,0.0,0.0,0.0,0.0,0.0,0.0,1.1197,1.0035,1.0382,1.0413,1.0038,0.0,0.0,0.0,0.0,0.0,0.0,0.0,0.0,0.0,0.0,0.0,0.0,0.0,0.0,0.0,0.0,0.0,0.0,0.0,0.0,0.0,0.0,0.0,0.0,0.0,0.0,0.0,0.0,0.0,0.0,0.0,0.0,0.0,0.0,0.0,0.0,0.0,0.0,0.0,0.0,0.0,0.0,0.0,0.0,0.0,0.0,0.0,0.0,0.0,0.0,0.0,0.0,0.0,0.0,0.0,0.0,0.0,0.0,0.0,0.0,0.0,0.0,0.0,0.0,0.0,0.0,0.0,0.0,0.0,0.0,0.0,0.0,0.0,0.0,0.0,0.0,0.0,0.0,0.0,0.0,0.0,0.0,0.0,0.0,0.0,0.0,0.0,0.0,0.0,0.0,0.0,0.0,0.0,0.0,0.0,0.0,0.0,0.0,0.0,0.0,0.0,0.0,0.0,0.0,0.0,0.0,0.0,0.0,0.0,0.0,0.0,0.0,1.1464,1.16,1.1082,0.0,0.0,0.0,0.0,0.0,0.0,0.0,0.0,0.0,0.0,0.0,0.0,0.0,0.0,0.0,0.0,0.0,0.0,0.0,0.0,0.0,0.0,0.0,0.0,0.0,0.0,0.0,0.0,0.0,0.0,0.0,0.0,0.0,0.0,0.0,0.0,0.0,0.0,0.0,0.0,0.0,0.0,0.0,0.0,0.0,0.0,0.0,0.0,0.0,0.0,0.0,0.0,0.0,0.0,0.0,0.0,0.0,0.0,0.0,0.0,0.0,0.0,0.0,0.0,0.0,0.0,0.0,0.0,0.0,0.0,0.0,0.0,0.0,0.0,0.0,0.0,0.0,0.0,0.0,0.0,0.0,0.0,0.0,0.0,0.0,0.0,0.0,0.0,0.0,0.0,0.0,0.0,0.0,0.0,0.0,0.0,0.0,0.0,0.0,0.0,0.0,0.0,0.0,0.0,0.0,0.0,0.0,0.0,0.0,0.0,1.181,1.307,1.3807,0.0,1.4199,0.0,0.0,0.0,0.0,0.0,0.0,0.0,0.0,0.0,0.0,0.0,0.0,0.0,0.0,0.0,0.0,0.0,0.0,0.0,0.0,0.0,0.0,0.0,0.0,0.0,0.0,0.0,0.0,0.0,0.0,0.0,0.0,0.0,0.0,0.0,0.0,0.0,0.0,0.0,0.0,0.0,0.0,0.0,0.0,0.0,0.0,0.0,0.0,0.0,0.0,0.0,0.0,0.0,0.0,0.0,0.0,0.0,0.0,0.0,0.0,0.0,0.0,0.0,0.0,0.0,0.0,0.0,0.0,0.0,0.0,0.0,0.0,0.0,0.0,0.0,0.0,0.0,0.0,0.0,0.0,0.0,0.0,0.0,0.0,0.0,0.0,0.0,0.0,0.0,0.0,0.0,0.0,0.0,0.0,0.0,0.0,0.0,0.0,0.0,0.0,0.0,0.0,0.0,0.0,0.0,0.0,0.0,0.0,0.0,0.0,1.2562,1.2762,1.3895,1.4504,0.0,0.0,0.0,0.0,0.0,0.0,0.0,0.0,0.0,0.0,0.0,0.0,0.0,0.0,0.0,0.0,0.0,0.0,0.0,0.0,0.0,0.0,0.0,0.0,0.0,0.0,0.0,0.0,0.0,0.0,0.0,0.0,0.0,0.0,0.0,0.0,0.0,0.0,0.0,0.0,0.0,0.0,0.0,0.0,0.0,0.0,0.0,0.0,0.0,0.0,0.0,0.0,0.0,0.0,0.0,0.0,0.0,0.0,0.0,0.0,0.0,0.0,0.0,0.0,0.0,0.0,0.0,0.0,0.0,0.0,0.0,0.0,0.0,0.0,0.0,0.0,0.0,0.0,0.0,0.0,0.0,0.0,0.0,0.0,0.0,0.0,0.0,0.0,0.0,0.0,0.0,0.0,0.0,0.0,0.0,0.0,0.0,0.0,0.0,0.0,0.0,0.0,0.0,0.0,0.0,0.0,0.0,0.0,0.0,0.0,1.2762,1.3443,1.3532,1.4344,1.4605,1.4208,0.0,0.0,0.0,0.0,0.0,0.0,0.0,0.0,0.0,0.0,0.0,0.0,0.0,0.0,0.0,0.0,0.0,0.0,0.0,0.0,0.0,0.0,0.0,0.0,0.0,0.0,0.0,0.0,0.0,0.0,0.0,0.0,0.0,0.0,0.0,0.0,0.0,0.0,0.0,0.0,0.0,0.0,0.0,0.0,0.0,0.0,0.0,0.0,0.0,0.0,0.0,0.0,0.0,0.0,0.0,0.0,0.0,0.0,0.0,0.0,0.0,0.0,0.0,0.0,0.0,0.0,0.0,0.0,0.0,0.0,0.0,0.0,0.0,0.0,0.0,0.0,0.0,0.0,0.0,0.0,0.0,0.0,0.0,0.0,0.0,0.0,0.0,0.0,0.0,0.0,0.0,0.0,0.0,0.0,0.0,0.0,0.0,0.0,0.0,0.0,0.0,0.0,0.0,0.0,0.0,0.0,0.0,0.0,1.502,1.4018,1.4391,1.6394,1.5905,1.4889,0.0,0.0,0.0,0.0,0.0,0.0,0.0,0.0,0.0,0.0,0.0,0.0,0.0,0.0,0.0,0.0,0.0,0.0,0.0,0.0,0.0,0.0,0.0,0.0,0.0,0.0,0.0,0.0,0.0,0.0,0.0,0.0,0.0,0.0,0.0,0.0,0.0,0.0,0.0,0.0,0.0,0.0,0.0,0.0,0.0,0.0,0.0,0.0,0.0,0.0,0.0,0.0,0.0,0.0,0.0,0.0,0.0,0.0,0.0,0.0,0.0,0.0,0.0,0.0,0.0,0.0,0.0,0.0,0.0,0.0,0.0,0.0,0.0,0.0,0.0,0.0,0.0,0.0,0.0,0.0,0.0,0.0,0.0,0.0,0.0,0.0,0.0,0.0,0.0,0.0,0.0,0.0,0.0,0.0,0.0,0.0,0.0,0.0,0.0,0.0,0.0,0.0,0.0,0.0,0.0,0.0,0.0,0.0,0.0,1.1242,1.2224,1.4425,1.7839,1.5566,1.4594,0.0,0.0,0.0,0.0,0.0,0.0,0.0,0.0,0.0,0.0,0.0,0.0,0.0,0.0,0.0,0.0,0.0,0.0,0.0,0.0,0.0,0.0,0.0,0.0,0.0,0.0,0.0,0.0,0.0,0.0,0.0,0.0,0.0,0.0,0.0,0.0,0.0,0.0,0.0,0.0,0.0,0.0,0.0,0.0,0.0,0.0,0.0,0.0,0.0,0.0,0.0,0.0,0.0,0.0,0.0,0.0,0.0,0.0,0.0,0.0,0.0,0.0,0.0,0.0,0.0,0.0,0.0,0.0,0.0,0.0,0.0,0.0,0.0,0.0,0.0,0.0,0.0,0.0,0.0,0.0,0.0,0.0,0.0,0.0,0.0,0.0,0.0,0.0,0.0,0.0,0.0,0.0,0.0,0.0,0.0,0.0,0.0,0.0,0.0,0.0,0.0,0.0,0.0,0.0,0.0,0.0,0.0,0.0,0.0,1.1073,0.0,1.5668,1.7941,1.5774,1.4497,0.0,0.0,0.0,0.0,0.0,0.0,0.0,0.0,0.0,0.0,0.0,0.0,0.0,0.0,0.0,0.0,0.0,0.0,0.0,0.0,0.0,0.0,0.0,0.0,0.0,0.0,0.0,0.0,0.0,0.0,0.0,0.0,0.0,0.0,0.0,0.0,0.0,0.0,0.0,0.0,0.0,0.0,0.0,0.0,0.0,0.0,0.0,0.0,0.0,0.0,0.0,0.0,0.0,0.0,0.0,0.0,0.0,0.0,0.0,0.0,0.0,0.0,0.0,0.0,0.0,0.0,0.0,0.0,0.0,0.0,0.0,0.0,0.0,0.0,0.0,0.0,0.0,0.0,0.0,0.0,0.0,0.0,0.0,0.0,0.0,0.0,0.0,0.0,0.0,0.0,0.0,0.0,0.0,0.0,0.0,0.0,0.0,0.0,0.0,0.0,0.0,0.0,0.0,0.0,0.0,0.0,0.0,0.0,1.1144,1.5334,1.7529,1.8008,1.6834,1.6621,1.4589,0.0,0.0,0.0,0.0,0.0,0.0,0.0,0.0,0.0,0.0,0.0,0.0,0.0,0.0,0.0,0.0,0.0,0.0,0.0,0.0,0.0,0.0,0.0,0.0,0.0,0.0,0.0,0.0,0.0,0.0,0.0,0.0,0.0,0.0,0.0,0.0,0.0,0.0,0.0,0.0,0.0,0.0,0.0,0.0,0.0,0.0,0.0,0.0,0.0,0.0,0.0,0.0,0.0,0.0,0.0,0.0,0.0,0.0,0.0,0.0,0.0,0.0,0.0,0.0,0.0,0.0,0.0,0.0,0.0,0.0,0.0,0.0,0.0,0.0,0.0,0.0,0.0,0.0,0.0,0.0,0.0,0.0,0.0,0.0,0.0,0.0,0.0,0.0,0.0,0.0,0.0,0.0,0.0,0.0,0.0,0.0,0.0,0.0,0.0,0.0,0.0,0.0,0.0,0.0,0.0,0.0,0.0,0.0,0.0,1.4124,1.5735,1.7636,1.9572,1.6287,1.4967,0.0,0.0,0.0,0.0,0.0,0.0,0.0,0.0,0.0,0.0,0.0,0.0,0.0,0.0,0.0,0.0,0.0,0.0,0.0,0.0,0.0,0.0,0.0,0.0,0.0,0.0,0.0,0.0,0.0,0.0,0.0,0.0,0.0,0.0,0.0,0.0,0.0,0.0,0.0,0.0,0.0,0.0,0.0,0.0,0.0,0.0,0.0,0.0,0.0,0.0,0.0,0.0,0.0,0.0,0.0,0.0,0.0,0.0,0.0,0.0,0.0,0.0,0.0,0.0,0.0,0.0,0.0,0.0,0.0,0.0,0.0,0.0,0.0,0.0,0.0,0.0,0.0,0.0,0.0,0.0,0.0,0.0,0.0,0.0,0.0,0.0,0.0,0.0,0.0,0.0,0.0,0.0,0.0,0.0,0.0,0.0,0.0,0.0,0.0,0.0,0.0,0.0,0.0,0.0,0.0,0.0,0.0,0.0,0.0,1.7162,1.8313,1.9769,2.1556,1.8443,1.6988,1.7529,0.0,0.0,0.0,0.0,0.0,0.0,0.0,0.0,0.0,0.0,0.0,0.0,0.0,0.0,0.0,0.0,0.0,0.0,0.0,0.0,0.0,0.0,0.0,0.0,0.0,0.0,0.0,0.0,0.0,0.0,0.0,0.0,0.0,0.0,0.0,0.0,0.0,0.0,0.0,0.0,0.0,0.0,0.0,0.0,0.0,0.0,0.0,0.0,0.0,0.0,0.0,0.0,0.0,0.0,0.0,0.0,0.0,0.0,0.0,0.0,0.0,0.0,0.0,0.0,0.0,0.0,0.0,0.0,0.0,0.0,0.0,0.0,0.0,0.0,0.0,0.0,0.0,0.0,0.0,0.0,0.0,0.0,0.0,0.0,0.0,0.0,0.0,0.0,0.0,0.0,0.0,0.0,0.0,0.0,0.0,0.0,0.0,0.0,0.0,0.0,0.0,0.0,0.0,0.0,0.0,0.0,0.0,0.0,2.3545,2.4372,2.4128,2.2854,2.2489,2.0365,0.0,0.0,0.0,0.0,0.0,0.0,0.0,0.0,0.0,0.0,0.0,0.0,0.0,0.0,0.0,0.0,0.0,0.0,0.0,0.0,0.0,0.0,0.0,0.0,0.0,0.0,0.0,0.0,0.0,0.0,0.0,0.0,0.0,0.0,0.0,0.0,0.0,0.0,0.0,0.0,0.0,0.0,0.0,0.0,0.0,0.0,0.0,0.0,0.0,0.0,0.0,0.0,0.0,0.0,0.0,0.0,0.0,0.0,0.0,0.0,0.0,0.0,0.0,0.0,0.0,0.0,0.0,0.0,0.0,0.0,0.0,0.0,0.0,0.0,0.0,0.0,0.0,0.0,0.0,0.0,0.0,0.0,0.0,0.0,0.0,0.0,0.0,0.0,0.0,0.0,0.0,0.0,0.0,0.0,0.0,0.0,0.0,0.0,0.0,0.0,0.0,0.0,0.0,0.0,0.0,0.0,0.0,0.0,0.0,2.5718,2.7672,2.8441,2.8002,2.4857,2.2564,0.0,0.0,0.0,0.0,0.0,0.0,0.0,0.0,0.0,0.0,0.0,0.0,0.0,0.0,0.0,0.0,0.0,0.0,0.0,0.0,0.0,0.0,0.0,0.0,0.0,0.0,0.0,0.0,0.0,0.0,0.0,0.0,0.0,0.0,0.0,0.0,0.0,0.0,0.0,0.0,0.0,0.0,0.0,0.0,0.0,0.0,0.0,0.0,0.0,0.0,0.0,0.0,0.0,0.0,0.0,0.0,0.0,0.0,0.0,0.0,0.0,0.0,0.0,0.0,0.0,0.0,0.0,0.0,0.0,0.0,0.0,0.0,0.0,0.0,0.0,0.0,0.0,0.0,0.0,0.0,0.0,0.0,0.0,0.0,0.0,0.0,0.0,0.0,0.0,0.0,0.0,0.0,0.0,0.0,0.0,0.0,0.0,0.0,0.0,0.0,0.0,0.0,0.0,0.0,0.0,0.0,0.0,0.0,2.4695,2.8078,3.0954,3.2263,3.1935,2.8831,2.6099,0.0,0.0,0.0,0.0,0.0,0.0,0.0,0.0,0.0,0.0,0.0,0.0,0.0,0.0,0.0,0.0,0.0,0.0,0.0,0.0,0.0,0.0,0.0,0.0,0.0,0.0,0.0,0.0,0.0,0.0,0.0,0.0,0.0,0.0,0.0,0.0,0.0,0.0,0.0,0.0,0.0,0.0,0.0,0.0,0.0,0.0,0.0,0.0,0.0,0.0,0.0,0.0,0.0,0.0,0.0,0.0,0.0,0.0,0.0,0.0,0.0,0.0,0.0,0.0,0.0,0.0,0.0,0.0,0.0,0.0,0.0,0.0,0.0,0.0,0.0,0.0,0.0,0.0,0.0,0.0,0.0,0.0,0.0,0.0,0.0,0.0,0.0,0.0,0.0,0.0,0.0,0.0,0.0,0.0,0.0,0.0,0.0,0.0,0.0,0.0,0.0,0.0,0.0,0.0,0.0,0.0,0.0,0.0,2.7232,3.0311,3.3785,3.5374,3.4821,3.3207,2.9924,0.0,0.0,0.0,0.0,0.0,0.0,0.0,0.0,0.0,0.0,0.0,0.0,0.0,0.0,0.0,0.0,0.0,0.0,0.0,0.0,0.0,0.0,0.0,0.0,0.0,0.0,0.0,0.0,0.0,0.0,0.0,0.0,0.0,0.0,0.0,0.0,0.0,0.0,0.0,0.0,0.0,0.0,0.0,0.0,0.0,0.0,0.0,0.0,0.0,0.0,0.0,0.0,0.0,0.0,0.0,0.0,0.0,0.0,0.0,0.0,0.0,0.0,0.0,0.0,0.0,0.0,0.0,0.0,0.0,0.0,0.0,0.0,0.0,0.0,0.0,0.0,0.0,0.0,0.0,0.0,0.0,0.0,0.0,0.0,0.0,0.0,0.0,0.0,0.0,0.0,0.0,0.0,0.0,0.0,0.0,0.0,0.0,0.0,0.0,0.0,0.0,0.0,0.0,0.0,0.0,0.0,0.0,0.0,2.8213,3.1775,3.4292,3.6107,3.7144,3.3998,3.0398,0.0,0.0,0.0,0.0,0.0,0.0,0.0,0.0,0.0,0.0,0.0,0.0,0.0,0.0,0.0,0.0,0.0,0.0,0.0,0.0,0.0,0.0,0.0,0.0,0.0,0.0,0.0,0.0,0.0,0.0,0.0,0.0,0.0,0.0,0.0,0.0,0.0,0.0,0.0,0.0,0.0,0.0,0.0,0.0,0.0,0.0,0.0,0.0,2.0575,0.0,0.0,0.0,0.0,0.0,0.0,0.0,0.0,0.0,0.0,0.0,0.0,0.0,0.0,0.0,0.0,0.0,0.0,0.0,0.0,0.0,0.0,0.0,0.0,0.0,0.0,0.0,0.0,0.0,0.0,0.0,0.0,0.0,0.0,0.0,0.0,0.0,0.0,0.0,0.0,0.0,0.0,0.0,0.0,0.0,0.0,0.0,0.0,0.0,0.0,0.0,0.0,0.0,0.0,0.0,0.0,0.0,0.0,0.0,2.9939,3.3275,3.552,3.7065,3.7775,3.5633,3.2496,0.0,0.0,0.0,0.0,0.0,0.0,0.0,0.0,0.0,0.0,0.0,0.0,0.0,0.0,0.0,0.0,0.0,0.0,0.0,0.0,0.0,0.0,0.0,0.0,0.0,0.0,0.0,0.0,0.0,0.0,0.0,0.0,0.0,0.0,0.0,0.0,0.0,0.0,0.0,0.0,0.0,0.0,0.0,0.0,0.0,0.0,0.0,0.0,0.0,0.0,0.0,0.0,0.0,0.0,0.0,0.0,0.0,0.0,0.0,0.0,0.0,0.0,0.0,0.0,0.0,0.0,0.0,0.0,0.0,0.0,0.0,0.0,0.0,0.0,0.0,0.0,0.0,0.0,0.0,0.0,0.0,0.0,0.0,0.0,0.0,0.0,0.0,0.0,0.0,0.0,0.0,0.0,0.0,0.0,0.0,0.0,0.0,0.0,0.0,0.0,0.0,0.0,0.0,0.0,0.0,0.0,0.0,2.7833,3.1417,3.4753,3.684,3.8024,3.8215,3.7393,3.4889,3.0437,0.0,0.0,0.0,0.0,0.0,0.0,0.0,0.0,0.0,0.0,0.0,0.0,0.0,0.0,0.0,0.0,0.0,0.0,0.0,0.0,0.0,0.0,0.0,0.0,0.0,0.0,0.0,0.0,0.0,0.0,0.0,0.0,0.0,0.0,0.0,0.0,0.0,0.0,1.7421,2.1051,0.0,0.0,0.0,0.0,0.0,0.0,0.0,0.0,2.24,0.0,0.0,0.0,0.0,0.0,0.0,0.0,0.0,0.0,0.0,0.0,0.0,0.0,0.0,0.0,0.0,0.0,0.0,0.0,0.0,0.0,0.0,0.0,0.0,0.0,0.0,0.0,0.0,0.0,0.0,0.0,0.0,0.0,0.0,0.0,0.0,0.0,0.0,0.0,0.0,0.0,0.0,0.0,0.0,0.0,0.0,0.0,0.0,0.0,0.0,0.0,0.0,0.0,0.0,0.0,0.0,2.6979,2.779,3.0842,3.6276,3.7381,3.8464,3.966,3.8442,3.5622,3.119,0.0,0.0,0.0,0.0,0.0,0.0,0.0,0.0,0.0,0.0,0.0,0.0,0.0,0.0,0.0,0.0,0.0,0.0,0.0,0.0,0.0,0.0,0.0,0.0,0.0,0.0,0.0,0.0,0.0,0.0,0.0,0.0,0.0,0.0,0.0,0.0,0.0,0.0,0.0,2.5163,2.7105,0.0,0.0,0.0,0.0,0.0,0.0,0.0,0.0,2.2582,0.0,0.0,0.0,0.0,0.0,0.0,0.0,0.0,0.0,0.0,0.0,0.0,0.0,0.0,0.0,0.0,0.0,0.0,0.0,0.0,0.0,0.0,0.0,0.0,0.0,0.0,0.0,0.0,0.0,0.0,0.0,0.0,0.0,0.0,0.0,0.0,0.0,0.0,0.0,0.0,0.0,0.0,0.0,0.0,0.0,0.0,0.0,0.0,0.0,0.0,0.0,0.0,0.0,0.0,0.0,2.6953,2.9127,3.2476,3.719,3.7719,3.843,3.9436,3.7313,3.4404,0.0,0.0,0.0,0.0,0.0,0.0,0.0,0.0,0.0,0.0,0.0,0.0,0.0,0.0,0.0,0.0,0.0,0.0,0.0,0.0,0.0,0.0,0.0,0.0,0.0,0.0,0.0,0.0,0.0,0.0,0.0,0.0,0.0,0.0,0.0,0.0,0.0,0.0,0.0,0.0,2.7263,2.8716,2.8761,0.0,0.0,0.0,0.0,0.0,0.0,2.5755,2.4131,0.0,0.0,0.0,0.0,0.0,0.0,0.0,0.0,0.0,0.0,0.0,0.0,0.0,0.0,0.0,0.0,0.0,0.0,0.0,0.0,0.0,0.0,0.0,0.0,0.0,0.0,0.0,0.0,0.0,0.0,0.0,0.0,0.0,0.0,0.0,0.0,0.0,0.0,0.0,0.0,0.0,0.0,0.0,0.0,0.0,0.0,0.0,0.0,0.0,0.0,0.0,0.0,0.0,0.0,0.0,2.6826,3.033,3.3975,3.7674,3.8046,3.8464,3.9153,3.6445,3.3501,0.0,0.0,0.0,0.0,0.0,0.0,0.0,0.0,0.0,0.0,0.0,0.0,0.0,0.0,0.0,0.0,0.0,0.0,0.0,0.0,0.0,0.0,0.0,0.0,0.0,0.0,0.0,0.0,0.0,0.0,0.0,0.0,0.0,0.0,0.0,0.0,0.0,0.0,0.0,0.0,0.0,3.0283,3.1331,3.0691,0.0,0.0,0.0,0.0,2.9998,2.8743,0.0,0.0,0.0,0.0,0.0,0.0,0.0,0.0,0.0,0.0,0.0,0.0,0.0,0.0,0.0,0.0,0.0,0.0,0.0,0.0,0.0,0.0,0.0,0.0,0.0,0.0,0.0,0.0,0.0,0.0,0.0,0.0,0.0,0.0,0.0,0.0,0.0,0.0,0.0,0.0,0.0,0.0,0.0,0.0,0.0,0.0,0.0,0.0,0.0,0.0,0.0,0.0,0.0,0.0,0.0,0.0,2.7519,3.0074,3.3467,3.7652,3.8531,3.922,3.991,3.7731,3.4821,0.0,0.0,0.0,0.0,0.0,0.0,0.0,0.0,0.0,0.0,0.0,0.0,0.0,0.0,0.0,0.0,0.0,0.0,0.0,0.0,0.0,0.0,0.0,0.0,0.0,0.0,0.0,0.0,0.0,0.0,0.0,0.0,0.0,0.0,0.0,0.0,0.0,0.0,0.0,0.0,0.0,3.322,3.1109,3.1734,3.2144,0.0,0.0,3.2641,3.4095,3.4376,0.0,0.0,0.0,0.0,0.0,0.0,0.0,0.0,0.0,0.0,0.0,0.0,0.0,0.0,0.0,0.0,0.0,0.0,0.0,0.0,0.0,0.0,0.0,0.0,0.0,0.0,0.0,0.0,0.0,0.0,0.0,0.0,0.0,0.0,0.0,0.0,0.0,0.0,0.0,0.0,0.0,0.0,0.0,0.0,0.0,0.0,0.0,0.0,0.0,0.0,0.0,0.0,0.0,0.0,0.0,2.3132,2.7722,3.1292,3.4652,3.7775,3.8599,3.8937,3.8836,3.6265,3.3332,0.0,0.0,0.0,0.0,0.0,0.0,0.0,0.0,0.0,0.0,0.0,0.0,0.0,0.0,0.0,0.0,0.0,0.0,0.0,0.0,0.0,0.0,0.0,0.0,0.0,0.0,0.0,0.0,0.0,0.0,0.0,0.0,0.0,0.0,0.0,0.0,0.0,0.0,0.0,0.0,0.0,0.0,3.4689,3.4934,0.0,0.0,0.0,3.5892,3.6535,0.0,0.0,0.0,0.0,0.0,0.0,0.0,0.0,0.0,0.0,0.0,0.0,0.0,0.0,0.0,0.0,0.0,0.0,0.0,0.0,0.0,0.0,0.0,0.0,0.0,0.0,0.0,0.0,0.0,0.0,0.0,0.0,0.0,0.0,0.0,0.0,0.0,0.0,0.0,0.0,0.0,0.0,0.0,0.0,0.0,0.0,0.0,0.0,0.0,0.0,0.0,0.0,0.0,0.0,0.0,0.0,0.0,2.8673,3.2837,3.6159,3.8505,3.9174,3.9112,3.8363,3.5497,0.0,0.0,0.0,0.0,0.0,0.0,0.0,0.0,0.0,0.0,0.0,0.0,0.0,0.0,0.0,0.0,0.0,0.0,0.0,0.0,0.0,0.0,0.0,0.0,0.0,0.0,0.0,1.1515,0.0,0.0,0.0,0.0,0.0,0.0,0.0,0.0,0.0,0.0,0.0,0.0,0.0,0.0,3.4939,3.7623,3.8058,3.8461,0.0,0.0,3.9214,3.929,3.9601,3.7978,0.0,0.0,0.0,0.0,0.0,0.0,0.0,0.0,0.0,0.0,0.0,0.0,0.0,0.0,0.0,0.0,0.0,0.0,0.0,0.0,0.0,0.0,0.0,0.0,0.0,0.0,0.0,0.0,0.0,0.0,0.0,0.0,0.0,0.0,0.0,0.0,0.0,0.0,0.0,0.0,0.0,0.0,0.0,0.0,0.0,0.0,0.0,0.0,0.0,0.0,0.0,0.0,0.0,0.0,2.5225,3.1012,3.4596,3.7689,4.0382,4.0685,4.0447,3.964,3.6944,3.3751,0.0,0.0,0.0,0.0,0.0,0.0,0.0,0.0,0.0,0.0,0.0,0.0,0.0,0.0,0.0,0.0,0.0,0.0,0.0,0.0,0.0,0.0,0.0,0.0,0.0,0.0,0.0,0.0,0.0,0.0,0.0,0.0,0.0,0.0,0.0,0.0,0.0,0.0,0.0,0.0,0.0,3.7077,3.8038,4.0318,4.2449,0.0,4.3497,4.303,4.3037,4.4201,4.2489,3.4529,0.0,0.0,0.0,0.0,0.0,0.0,0.0,0.0,0.0,0.0,0.0,0.0,0.0,0.0,0.0,0.0,0.0,0.0,0.0,0.0,0.0,0.0,0.0,0.0,0.0,0.0,0.0,0.0,0.0,0.0,0.0,0.0,0.0,0.0,0.0,0.0,0.0,0.0,0.0,0.0,0.0,0.0,0.0,0.0,0.0,0.0,0.0,0.0,0.0,0.0,0.0,0.0,0.0,2.6051,3.1061,3.542,3.8647,4.0623,4.1194,4.0923,3.9834,3.7894,3.4716,0.0,0.0,0.0,0.0,0.0,0.0,0.0,0.0,0.0,0.0,0.0,0.0,0.0,0.0,0.0,0.0,0.0,0.0,0.0,0.0,0.0,0.0,0.0,0.0,0.0,0.0,0.0,0.0,1.8221,1.9197,1.9298,0.0,0.0,0.0,0.0,0.0,0.0,0.0,0.0,0.0,0.0,3.9834,4.1856,4.3399,0.0,0.0,4.4601,4.4403,4.5375,4.4418,4.1914,3.6975,3.4596,0.0,0.0,0.0,0.0,0.0,0.0,0.0,0.0,0.0,0.0,0.0,0.0,0.0,0.0,0.0,0.0,0.0,0.0,0.0,0.0,0.0,0.0,0.0,0.0,0.0,0.0,0.0,0.0,0.0,0.0,0.0,0.0,0.0,0.0,0.0,0.0,0.0,0.0,0.0,0.0,0.0,0.0,0.0,0.0,0.0,0.0,0.0,0.0,0.0,0.0,0.0,0.0,2.6854,3.1718,3.6301,3.9606,4.1505,4.1715,4.124,4.0088,3.8531,3.5512,0.0,0.0,0.0,0.0,0.0,0.0,0.0,0.0,0.0,0.0,0.0,0.0,0.0,0.0,0.0,0.0,0.0,0.0,0.0,0.0,0.0,0.0,0.0,0.0,0.0,0.0,0.0,0.0,2.0387,2.0733,2.0075,0.0,0.0,0.0,0.0,0.0,0.0,0.0,0.0,0.0,0.0,4.254,4.493,4.5664,4.6064,4.6306,4.5328,4.4894,4.5983,4.4567,4.2083,3.8485,0.0,0.0,0.0,0.0,0.0,0.0,0.0,0.0,0.0,0.0,0.0,0.0,0.0,0.0,0.0,0.0,0.0,0.0,0.0,0.0,0.0,0.0,0.0,0.0,0.0,0.0,0.0,1.2272,0.0,0.0,1.1096,0.0,0.0,0.0,0.0,0.0,0.0,0.0,0.0,0.0,0.0,0.0,0.0,0.0,0.0,0.0,0.0,0.0,0.0,0.0,0.0,0.0,0.0,2.7507,3.3643,3.7374,4.0578,4.3281,4.2376,4.1498,4.0709,3.8905,3.613,3.2347,0.0,0.0,0.0,0.0,0.0,0.0,0.0,0.0,0.0,0.0,0.0,0.0,0.0,0.0,0.0,0.0,0.0,0.0,0.0,0.0,0.0,0.0,0.0,0.0,0.0,0.0,2.0546,2.0503,2.0148,0.0,0.0,0.0,0.0,0.0,0.0,0.0,0.0,0.0,3.7459,4.1711,4.5074,4.6563,4.6786,4.7128,4.7752,4.6027,4.4688,4.4804,4.5196,4.3876,0.0,0.0,0.0,0.0,0.0,0.0,0.0,0.0,0.0,0.0,0.0,0.0,0.0,0.0,0.0,0.0,0.0,0.0,0.0,0.0,0.0,0.0,0.0,0.0,0.0,0.0,0.0,1.8594,1.7405,0.0,0.0,0.0,0.0,0.0,0.0,0.0,0.0,0.0,0.0,0.0,3.0322,3.0894,0.0,0.0,0.0,0.0,0.0,0.0,0.0,0.0,0.0,0.0,0.0,0.0,2.9712,3.428,3.8887,4.1984,4.3424,4.3114,4.2654,4.2027,4.0922,3.7948,3.303,0.0,0.0,0.0,0.0,0.0,0.0,0.0,0.0,0.0,0.0,0.0,0.0,0.0,0.0,0.0,0.0,0.0,0.0,0.0,0.0,0.0,0.0,0.0,0.0,0.0,2.2075,0.0,0.0,0.0,0.0,0.0,0.0,0.0,0.0,0.0,0.0,0.0,3.7674,4.1089,4.4573,4.7158,4.8139,4.9086,4.9476,0.0,0.0,0.0,0.0,0.0,0.0,0.0,0.0,0.0,0.0,0.0,0.0,0.0,0.0,4.2536,3.5103,3.206,3.1147,3.2713,0.0,0.0,0.0,0.0,0.0,0.0,0.0,0.0,0.0,0.0,0.0,0.0,0.0,0.0,2.4079,0.0,2.232,0.0,0.0,0.0,0.0,0.0,0.0,0.0,0.0,3.0898,3.3511,3.5938,3.6523,3.6422,0.0,3.5103,3.1917,0.0,0.0,0.0,0.0,0.0,0.0,0.0,0.0,3.1479,3.5593,4.004,4.269,4.3461,4.3312,4.3069,4.2693,4.1277,3.8567,3.446,3.0462,2.7503,0.0,0.0,0.0,0.0,0.0,0.0,0.0,0.0,0.0,0.0,0.0,0.0,0.0,0.0,0.0,0.0,0.0,0.0,0.0,0.0,0.0,0.0,0.0,2.3917,0.0,0.0,0.0,0.0,0.0,0.0,0.0,0.0,0.0,3.4561,3.8125,4.18,4.4945,4.7244,4.8951,4.9661,0.0,0.0,0.0,0.0,0.0,0.0,0.0,4.506,4.6264,4.508,4.4032,4.4215,4.6921,4.8714,4.7394,0.0,0.0,4.0629,3.835,3.7922,3.8633,3.9783,4.0629,4.0663,4.2219,4.3423,0.0,0.0,0.0,0.0,0.0,0.0,0.0,0.0,2.9348,2.9314,0.0,2.8374,0.0,0.0,0.0,0.0,2.2675,2.8187,0.0,0.0,3.8289,4.1115,4.1659,4.1912,4.1794,4.1339,4.215,4.0479,3.6274,2.9964,0.0,0.0,0.0,0.0,0.0,0.0,3.2779,3.7485,4.0708,4.269,4.3461,4.2986,4.2722,4.2667,4.0214,3.8149,3.6643,3.4538,3.1765,2.8153,2.5879,0.0,0.0,0.0,0.0,0.0,0.0,0.0,0.0,0.0,0.0,0.0,0.0,0.0,0.0,0.0,0.0,0.0,0.0,0.0,0.0,2.6251,0.0,0.0,0.0,0.0,0.0,0.0,0.0,0.0,0.0,3.9943,3.9525,4.3064,4.6616,4.8748,0.0,0.0,0.0,0.0,4.939,5.0033,4.8984,4.809,4.809,4.8597,4.8766,4.8259,0.0,0.0,4.8529,5.1133,5.2367,4.8868,5.0592,5.1961,5.0338,4.7462,4.594,4.6583,4.6244,4.6481,4.7785,4.8935,5.0015,3.5419,0.0,0.0,0.0,0.0,3.1945,3.384,3.6897,3.6344,3.5532,3.4516,3.3728,0.0,0.0,0.0,0.0,0.0,0.0,3.5059,3.841,4.0501,4.2585,4.4657,4.4746,4.4702,4.4516,4.4254,4.3476,4.2196,3.9213,3.4238,2.7672,0.0,0.0,0.0,0.0,3.6677,3.921,4.1817,4.3286,4.3506,4.3339,4.3268,4.3259,4.1231,3.9926,3.9478,3.7141,3.4584,3.1891,2.9693,0.0,0.0,0.0,0.0,0.0,0.0,0.0,0.0,0.0,0.0,0.0,0.0,0.0,0.0,0.0,0.0,0.0,0.0,0.0,2.5262,2.6251,2.7029,0.0,0.0,0.0,0.0,0.0,0.0,0.0,0.0,0.0,4.653,4.7564,4.8665,0.0,0.0,5.0964,5.1167,5.1269,5.1251,5.093,5.0964,0.0,5.1048,5.0338,5.0439,5.2367,5.3653,5.4211,5.3568,5.4346,5.4718,5.3602,5.4143,5.4465,5.3585,5.142,4.995,5.0371,5.0879,5.1555,5.2503,5.345,5.4042,4.2219,3.8531,3.6299,3.6231,3.7562,3.7584,3.922,4.186,4.1386,4.1023,4.0639,3.9554,3.7508,3.4762,3.3442,0.0,0.0,0.0,4.0057,4.3689,4.4473,4.5891,4.7783,4.7865,4.7682,4.7324,4.6507,4.5984,4.5654,4.437,4.0561,3.4461,0.0,0.0,3.4137,3.6971,3.9541,4.1735,4.3534,4.4314,4.3975,4.369,4.3506,4.3452,4.2178,4.1486,4.1466,3.9529,3.7501,3.5574,3.3162,2.9939,0.0,0.0,0.0,0.0,0.0,0.0,0.0,0.0,0.0,0.0,0.0,1.8916,1.5842,0.0,0.0,0.0,2.2632,2.5728,2.8847,3.0074,0.0,0.0,0.0,0.0,0.0,0.0,0.0,4.2455,4.5283,4.7921,5.0608,5.1386,5.1776,5.208,5.186,5.1844,5.2469,0.0,5.2469,5.2926,5.3112,5.3315,5.3619,5.2909,5.3044,5.5141,5.6089,5.668,5.695,5.7018,5.7119,5.7356,5.7424,5.7171,5.6258,5.5074,5.4109,5.3856,5.4296,5.4938,5.5412,5.6055,5.6494,4.7942,4.6971,4.2892,4.1745,4.263,4.2764,4.362,4.4898,4.4946,4.5651,4.6669,4.53,4.3875,4.2358,3.9554,0.0,4.1432,4.3549,4.593,4.8517,4.9344,5.0078,5.0802,5.0802,5.0398,4.9647,4.8893,4.8113,4.7406,4.6654,4.5112,4.2763,3.9835,3.8961,4.0018,4.0275,4.1846,4.4737,4.5516,4.5516,4.47,4.3975,4.3579,4.3497,4.2995,4.2684,4.2655,4.1527,4.0204,3.8712,3.6123,3.3028,2.9407,0.0,0.0,0.0,0.0,0.0,0.0,0.0,0.0,0.0,0.0,0.0,0.0,0.0,0.0,0.0,2.8865,0.0,3.4483,3.6017,0.0,0.0,0.0,3.7664,3.8768,4.1833,4.4505,4.6128,0.0,0.0,5.257,5.438,5.5192,5.3856,5.3044,5.3078,5.4482,5.3484,5.3348,5.5259,5.5108,5.4938,5.5496,5.5665,5.5969,5.6833,5.7509,5.8051,5.8675,5.8878,5.9216,5.9674,6.0013,5.9674,5.8355,5.8438,5.854,5.6849,5.668,5.6833,5.6867,5.7306,5.7595,5.2045,5.1813,5.0765,4.8517,4.5757,4.687,4.7553,4.7892,4.7857,4.7746,4.7519,4.7166,4.6705,4.6188,4.5452,4.5989,4.7486,4.8053,4.8972,5.0168,5.0435,5.0618,5.0802,5.0802,5.0692,5.0508,5.0315,5.0095,4.9911,4.9738,4.87,4.6902,4.6094,4.4378,4.1882,4.3534,4.4856,4.5635,4.581,4.5516,4.4737,4.4516,4.4121,4.3506,4.2958,4.2684,4.2674,4.1563,4.0204,3.8736,3.7148,3.4798,3.165,2.7782,0.0,0.0,0.0,0.0,0.0,0.0,0.0,0.0,0.0,2.6463,2.0297,0.0,2.8721,0.0,3.1471,3.4415,3.6084,3.7077,0.0,0.0,4.1589,4.2638,4.6733,4.7462,4.8714,5.1352,5.3078,5.4262,5.482,5.5361,5.5564,5.5225,5.504,5.5023,5.5361,5.5158,5.5056,5.5564,5.5599,5.5699,5.6462,5.7036,5.7593,5.8337,5.8152,5.8152,5.8878,5.8979,5.9081,5.925,5.9742,6.0047,6.0148,5.9776,5.9235,5.8727,5.8152,5.7663,5.7663,5.7798,5.7848,5.4292,5.4027,5.4358,5.2831,5.0249,5.0738,5.0941,5.0941,5.0941,5.0692,5.0235,4.9822,4.9438,4.8977,4.8987,4.9606,5.0629,5.0665,5.1096,5.1856,5.1867,5.1856,5.1856,5.1867,5.1856,5.1856,5.1499,5.1353,5.1316,5.0986,5.0325,4.9397,4.9407,4.8122,4.57,4.614,4.6608,4.6948,4.6608,4.6205,4.5764,4.5067,4.448,4.4039,4.3397,4.2887,4.2505,4.1629,4.0327,3.8643,3.7305,3.5456,3.2903,2.988,2.7706,0.0,0.0,0.0,0.0,0.0,0.0,0.0,0.0,0.0,0.0,0.0,3.2452,3.3376,3.6208,3.8882,4.1048,4.2219,4.3978,4.6766,4.7206,4.8443,5.1335,5.1826,5.2621,5.4279,5.5141,5.5852,5.6562,5.7001,5.7346,5.7671,5.7791,5.7396,5.6383,5.5936,5.5902,5.6562,5.6711,5.697,5.7706,5.8153,5.8524,5.8878,5.893,5.9133,5.9877,6.0028,6.0095,6.0452,6.0825,6.1197,6.1467,6.0757,6.008,5.9945,5.9268,5.8592,5.8423,5.866,5.8795,5.564,5.5094,5.5728,5.5618,5.4978,5.4353,5.3962,5.3784,5.3748,5.37,5.3555,5.2802,5.2087,5.1426,5.1426,5.1793,5.2428,5.2464,5.2821,5.3508,5.3508,5.3471,5.3361,5.3361,5.3287,5.3177,5.2491,5.2171,5.2123,5.1463,5.1049,5.0949,5.0939,5.0545,4.9711,4.8306,4.781,4.826,4.759,4.7195,4.7076,4.5617,4.481,4.4663,4.3828,4.302,4.2314,4.1715,4.0548,3.8744,3.7567,3.6039,3.4022,3.1909,3.0372,0.0,2.7985,0.0,0.0,0.0,0.0,0.0,0.0,0.0,0.0,3.4675,3.6987,3.9525,4.1813,4.4215,4.6834,4.8477,4.9729,5.0507,5.2469,5.3805,5.3957,5.516,5.6061,5.6111,5.6879,5.7682,5.8351,5.9064,5.985,6.0388,6.0409,5.9679,5.7913,5.6969,5.6969,5.809,5.8358,5.8773,5.9297,5.9511,5.9648,5.9745,5.9994,6.0559,6.1295,6.1293,6.1467,6.2009,6.2178,6.2333,6.2415,6.167,6.1076,6.0907,6.0317,5.9708,5.9284,5.9573,5.9877,5.7461,5.7375,5.7519,5.7504,5.7346,5.7204,5.6426,5.5222,5.5186,5.517,5.5173,5.499,5.4851,5.4704,5.4704,5.4777,5.4924,5.4924,5.4997,5.5144,5.5144,5.4766,5.4216,5.4179,5.3849,5.3214,5.3031,5.2994,5.2957,5.281,5.2417,5.1803,5.1767,5.1353,5.0618,0.0,0.0,0.0,4.815,4.7746,4.7113,4.6168,4.536,4.47,4.3277,0.0,4.2306,4.1715,4.0951,4.0021,3.9911,0.0,0.0,0.0,0.0,0.0,0.0,0.0,0.0,0.0,0.0,0.0,3.8227,3.7606,3.5374,4.0257,4.3572,4.3633,4.6075,4.7936,4.8545,5.0473,5.1995,5.2807,5.4329,5.5496,5.6106,5.6987,5.7788,5.8409,5.9753,6.0733,6.086,6.1594,6.2114,6.2236,6.1766,6.1239,6.0759,5.9896,5.9615,5.9928,6.0355,6.0834,6.1129,6.162,6.2126,6.2686,6.1866,6.1637,6.2186,6.1801,6.1337,6.1608,6.1975,6.242,6.2415,6.2212,6.1873,6.1313,6.1501,6.1434,6.0182,6.0013,6.008,5.7997,5.7997,5.7997,5.7997,0.0,5.7997,5.7519,5.6796,5.6796,5.6565,5.6161,5.5768,5.5622,5.5622,5.5622,5.5622,5.5622,5.5622,5.5622,5.5622,5.5622,5.5401,5.4987,5.4987,5.4766,5.4363,5.3959,5.3812,5.3765,5.3398,5.2994,5.2601,5.2601,5.2197,5.1389,5.0986,5.0168,4.8967,4.8526,4.8076,4.77,4.6902,4.6094,4.5296,4.4113,0.0,0.0,0.0,0.0,0.0,0.0,0.0,0.0,3.7707,0.0,3.6616,3.6584,3.696,3.7737,3.8791,4.0549,4.3157,4.5117,4.4764,4.137,4.4959,4.7655,4.842,5.0148,5.1687,5.282,5.3925,5.5069,5.6213,5.703,5.7776,5.8486,5.9299,5.994,6.0342,6.1431,6.2317,6.2675,6.3081,6.353,6.3862,6.3674,6.3408,6.3243,6.1643,6.061,6.1379,6.0861,6.1137,6.2536,6.3173,6.361,6.3754,6.3538,6.3409,6.3709,6.3415,6.3021,6.265,6.279,6.2916,6.2498,6.2415,6.2279,6.1975,6.2144,6.2178,6.1366,6.1231,6.1095,5.7997,5.7997,5.7997,5.7997,5.7997,5.7997,5.7997,5.7997,5.7997,0.0,0.0,5.6319,5.6025,5.6025,5.6025,5.6025,5.6025,5.6025,5.6025,5.6025,5.6025,5.5952,5.5805,5.5805,5.5732,5.5585,5.4924,5.462,5.4594,5.3801,5.3434,5.3398,5.3251,5.2847,5.2197,5.1426,5.0702,5.0014,4.904,4.8453,4.8296,4.7516,4.6792,4.6104,4.5214,4.4085,4.2791,4.2727,4.1931,4.028,4.0299,4.0167,3.9737,4.0431,4.1109,4.173,4.3078,4.4218,4.5022,4.5905,4.7149,4.8874,5.0769,5.0778,4.8157,4.9217,5.0822,5.2819,5.353,5.4719,5.67,5.7042,5.7679,5.9147,5.9415,5.9739,6.0311,6.1097,6.1529,6.1844,6.2669,6.3551,6.4276,6.4575,6.4867,6.5395,6.5432,6.5398,6.5011,6.3088,6.196,6.2895,6.226,6.1869,6.3754,6.4824,6.4831,6.4864,6.503,6.5245,6.5229,6.5098,6.4751,6.399,6.3936,6.3665,6.303,6.2659,6.2498,6.2581,6.2498,6.2415,6.2415,6.2381,6.2144,5.7997,5.7997,5.7997,5.7997,5.7997,5.7997,5.7997,5.7997,5.7997,5.7935,5.7824,5.7703,5.7666,5.7666,5.7666,5.7666,5.7666,5.7666,5.7666,5.7666,5.7678,5.731,5.6627,5.6627,5.6271,5.5622,5.5475,5.5438,5.5365,5.462,5.4216,5.4142,5.3544,5.3141,5.2957,5.2234,5.1767,5.162,5.0188,4.904,4.8296,4.7516,4.7039,4.6892,4.5507,4.4626,4.437,4.437,4.4233,4.3969,4.4601,4.4738,4.4325,4.4895,4.5222,4.492,4.5645,4.646,4.7239,4.8643,5.0687,5.3326,5.3965,5.3657,5.2715,5.333,5.4204,5.5143,5.5355,5.5786,5.6794,5.7581,5.8391,5.9263,5.9876,6.0306,6.0524,6.122,6.2004,6.2652,6.4025,6.525,6.5925,6.661,6.6985,6.7135,6.6639,6.6109,6.5519,6.4924,6.4722,6.4948,6.5124,6.545,6.5952,6.6755,6.6934,6.7172,6.6496,6.6201,6.6201,6.5665,6.5147,6.485,6.4851,6.4715,6.4494,6.3388,6.3011,6.3314,6.3049,6.2581,6.2601,6.2576,6.2425,5.7997,5.7997,5.7997,5.7997,5.7997,5.7997,5.7997,5.7997,5.7997,5.7997,5.7997,5.7997,5.7997,5.7997,5.7997,5.7997,5.7997,5.7997,5.7997,5.7997,5.7997,5.7813,5.7483,5.7446,5.7262,5.687,5.6455,5.6235,5.6198,5.5464,5.506,5.5034,5.4693,5.4509,5.4436,5.3712,5.3088,5.2637,5.1059,5.0068,4.9664,4.8857,4.8233,4.7746,4.7012,4.6425,4.6012,4.6425,4.6645,4.6645,4.6985,4.712,4.6937,4.7637,4.8021,4.7886,4.8956,4.9948,5.0737,5.263,5.4327,5.5689,5.6208,5.6329,5.5967,5.5473,5.5693,5.6863,5.7025,5.7703,5.9266,5.9776,6.0341,6.1114,6.152,6.1687,6.1859,6.2867,6.3752,6.423,6.5617,6.6733,6.71,6.748,6.77,6.7664,6.7333,6.6966,6.6623,6.6586,6.6439,6.6072,6.6035,6.6402,6.699,6.7407,6.7664,6.77,6.7392,6.7132,6.7117,6.6671,6.6323,6.5873,6.5779,6.5538,6.5199,6.4427,6.4113,6.4183,6.4148,6.3829,6.3775,6.3464,6.2969,5.7997,5.7997,5.7997,5.7997,5.7997,5.7997,5.7997,5.7997,5.7997,5.7997,5.7997,5.7997,5.7997,5.7997,5.7997,5.7997,5.7997,5.7997,5.7997,5.7997,5.7997,5.7997,5.7997,5.7997,5.7997,5.7923,5.7373,5.7079,5.6969,5.6271,5.5768,5.5622,5.5622,5.5622,5.5585,5.4987,5.4363,5.3702,5.2344,5.1353,5.0802,5.0188,4.9564,4.893,4.8884,4.8553,4.803,4.8517,4.8847,4.8884,4.904,4.9214,4.9444,5.0215,5.0822,5.119,5.2236,5.3263,5.4167,5.5777,5.6884,5.7079,5.7629,5.796,5.7927,5.7098,5.6989,5.8151,5.8313,5.9219,6.0994,6.152,6.1924,6.2683,6.2793,6.2827,6.3147,6.4261,6.5228,6.5582,6.6696,6.7407,6.7664,6.77,6.77,6.77,6.77,6.77,6.77,6.77,6.7407,6.6966,6.6599,6.6783,6.7554,6.7664,6.7774,6.7884,6.7967,6.8073,6.8147,6.8137,6.7913,6.7346,6.712,6.6819,6.6077,6.5727,6.5559,6.54,6.5032,6.4816,6.4495,6.406,6.3406,5.7997,5.7997,5.7997,5.7997,5.7997,5.7997,5.7997,5.7997,5.7997,5.7997,5.7997,5.7997,5.7997,5.7997,5.7997,5.7997,5.7997,5.7997,5.7997,5.7997,5.7997,5.7997,5.7997,5.7997,5.7997,5.7997,5.7886,5.7813,5.7776,5.7079,5.6345,5.5695,5.5622,5.5658,5.5622,5.5548,5.5438,5.5365,5.4509,5.3004,5.0949,5.0729,5.0655,5.0572,5.0545,5.0535,5.0425,5.0545,5.0572,5.0618,5.1279,5.1977,5.2664,5.3482,5.4268,5.4921,5.5166,5.5617,5.6376,5.6678,5.7116,5.7813,5.7923,5.7997,5.8033,5.854,5.8871,5.9114,5.9114,5.992,6.1325,6.163,6.1998,6.2683,6.2866,6.3086,6.3796,6.409,6.4751,6.6256,6.6586,6.6893,6.7554,6.77,6.77,6.77,6.77,6.77,6.77,6.77,6.77,6.7554,6.7517,6.7517,6.77,6.77,6.8017,6.8568,6.8788,6.9009,6.9302,6.9192,6.8903,6.902,6.8961,6.846,6.8282,6.7949,6.7121,6.6489,6.5804,6.4883,6.4131,6.3936,6.3592,5.8437,5.7997,5.7997,5.7997,5.7997,5.7997,5.7997,5.7997,5.7997,5.7997,5.7997,5.7997,5.7997,5.7997,5.7997,5.7997,5.7997,5.7997,5.7997,5.7997,5.7997,5.7997,5.7997,5.7997,5.7997,5.7997,5.7997,5.7997,5.7923,5.7666,5.7336,5.7042,5.7017,5.7017,5.6969,5.6565,5.6308,5.6271,5.55,5.462,5.3602,5.2244,5.151,5.151,5.151,5.1756,5.2186,5.2664,5.3151,5.3602,5.3933,5.4263,5.4583,5.4913,5.5464,5.6235,5.6748,5.7152,5.7483,5.7519,5.7629,5.796,5.7997,5.7997,5.8033,5.8719,5.9368,5.9893,6.0346,6.1117,6.2095,6.2328,6.2426,6.2793,6.3246,6.3723,6.4029,6.4947,6.5852,6.6439,6.6916,6.7297,6.759,6.77,6.77,6.77,6.77,6.7737,6.77,6.77,6.77,6.77,6.77,6.77,6.7737,6.8128,6.8495,6.8862,6.9339,6.9816,6.9889,6.9903,6.9743,7.0073,6.9853,6.9633,6.954,6.9369,6.8815,6.7934,6.72,6.6353,6.5478,6.5316,6.4902,5.9196,5.8694,5.8657,5.8657,5.8621,5.84,5.8474,5.8584,5.818,5.8107,5.829,5.8107,5.7997,5.7997,5.7997,5.7997,5.7997,5.7997,5.7997,5.7997,5.7997,5.7997,5.7997,5.7997,5.7997,5.7997,5.7997,5.7997,5.7997,5.7997,5.7997,5.7997,5.7997,5.7997,5.7923,5.7409,5.7141,5.7079,5.6345,5.5941,5.5647,5.4006,5.3015,5.2978,5.2978,5.3261,5.3801,5.4399,5.4987,5.5548,5.5794,5.5941,5.5952,5.6136,5.6528,5.7079,5.7666,5.7997,5.7997,5.7997,5.7997,5.7997,5.818,5.8327,5.851,5.9269,6.0077,6.0676,6.1447,6.2181,6.2683,6.2793,6.2866,6.3135,6.3759,6.4213,6.48,6.5888,6.6549,6.6843,6.7333,6.77,6.77,6.77,6.77,6.77,6.7884,6.7884,6.7811,6.7884,6.7981,6.7737,6.77,6.77,6.7774,6.8311,6.8825,6.9155,6.9633,7.033,7.0257,7.022,7.0403,7.066,7.0477,7.044,7.044,7.0339,6.9995,6.9105,6.8243,6.7446,6.6323,6.6389,6.5971,6.0346,6.026,6.026,6.0187,6.0236,5.9453,5.9563,6.0052,5.8694,5.8474,5.9013,5.84,5.8045,5.807,5.8143,5.8033,5.8008,5.7997,5.7997,5.7997,5.7997,5.7997,5.7997,5.7997,5.7997,5.7997,5.7997,5.7997,5.7997,5.7997,5.7997,5.7997,5.7997,5.7997,5.796,5.7886,5.7923,5.7776,5.7116,5.6737,5.6664,5.5868,5.5365,5.5365,5.5401,5.5291,5.5438,5.5511,5.5585,5.5622,5.6345,5.6748,5.6822,5.7446,5.7813,5.7886,5.796,5.7997,5.7997,5.7997,5.8033,5.8107,5.8682,5.9123,5.9233,6.0456,6.1263,6.1484,6.2181,6.2719,6.2793,6.2903,6.3196,6.3833,6.4103,6.4861,6.6145,6.6366,6.6856,6.7407,6.7627,6.77,6.77,6.77,6.77,6.7811,6.8311,6.8495,6.7944,6.8311,6.8421,6.8031,6.7811,6.7737,6.7811,6.8568,6.8972,6.9229,7.0,7.0903,7.0734,7.0624,7.0977,7.1197,7.1233,7.1233,7.1233,7.094,7.0426,6.9619,6.8678,6.7789,6.7433,6.6719,6.6499,6.086,6.0407,6.0407,6.0407,6.0382,6.0077,6.015,6.0346,5.9795,5.9685,5.9905,5.9648,5.9538,5.9538,5.9538,5.8988,5.8033,5.7997,5.7997,5.7997,5.7997,5.7997,5.7997,5.7997,5.7997,5.7997,5.7997,5.7997,5.7997,5.7997,5.7997,5.7997,5.7997,5.7997,5.7997,5.7997,5.7997,5.796,5.7703,5.7556,5.7519,5.7262,5.7152,5.709,5.6136,5.5831,5.6381,5.6345,5.6602,5.7116,5.7409,5.7556,5.7593,5.785,5.7997,5.7997,5.7997,5.7997,5.7997,5.7997,5.8253,5.8719,5.9013,5.949,6.004,6.0933,6.1594,6.1741,6.2328,6.2793,6.2903,6.3282,6.3723,6.4139,6.5007,6.5778,6.6439,6.6916,6.737,6.7627,6.77,6.77,6.77,6.77,6.77,6.77,6.7958,6.8031,6.7958,6.8385,6.8825,6.8678,6.8898,6.9242,6.9229,6.9412,6.9669,6.9743,7.022,7.0697,7.077,7.1248,7.1615,7.1087,7.127,7.1821,7.1747,7.1344,7.0866,7.0536,6.9559,6.8853,6.8871,6.8182,6.8168,6.1667,6.1215,6.119,6.1178,6.1141,6.0896,6.0921,6.108,6.0639,6.0529,6.0713,6.0529,6.0407,6.0407,6.0407,5.9869,5.8804,5.8547,5.8253,5.8033,5.8253,5.8253,5.807,5.8253,5.8253,5.8033,5.7997,5.7997,5.7997,5.7997,5.7997,5.7997,5.7997,5.7997,5.7997,5.7997,5.7997,5.7997,5.7997,5.796,5.7997,5.7997,5.7997,5.785,5.6943,5.6613,5.7178,5.7189,5.7409,5.7886,5.7997,5.7997,5.7997,5.7997,5.7997,5.7997,5.7997,5.7997,5.8033,5.8253,5.8609,5.9196,5.971,6.0236,6.0786,6.152,6.1924,6.2108,6.2438,6.2866,6.3306,6.398,6.4494,6.4604,6.5485,6.6366,6.6806,6.737,6.7627,6.7664,6.77,6.77,6.77,6.77,6.77,6.77,6.7884,6.8104,6.8178,6.8752,6.9302,6.9339,6.9669,6.9889,7.0,7.0146,6.9779,6.9779,7.0353,7.077,7.0513,7.1211,7.1541,7.105,7.127,7.1982,7.2129,7.1711,7.149,7.1307,7.0513,6.9577,6.9609,6.9628,6.9386,6.2756,6.2683,6.2793,6.2646,6.2499,6.1887,6.2034,6.2316,6.1141,6.1006,6.1484,6.086,6.0676,6.0554,6.0701,6.0456,6.0199,5.9636,5.8939,5.8364,5.8902,5.8829,5.829,5.8792,5.8682,5.8033,5.7997,5.7997,5.7997,5.7997,5.7997,5.7997,5.7997,5.7997,5.7997,5.7997,5.7997,5.7997,5.7997,5.7997,5.7997,5.7997,5.7997,5.7997,5.785,5.7813,5.7935,5.7923,5.7923,5.796,5.7997,5.7997,5.7997,5.7997,5.7997,5.7997,5.7997,5.7997,5.8143,5.8756,5.9086,5.96,6.0676,6.141,6.1667,6.2254,6.2683,6.2683,6.2756,6.3086,6.3906,6.4604,6.5141,6.5325,6.5632,6.6292,6.726,6.7664,6.77,6.77,6.77,6.77,6.77,6.77,6.77,6.7811,6.8311,6.8752,6.8825,6.9486,7.0036,7.011,7.0403,7.0697,7.0697,7.0624,7.0022,6.9655,7.0499,7.0977,6.9633,6.9646,7.044,7.0293,7.1307,7.2018,7.2386,7.2018,7.1747,7.1454,7.077,7.0477,7.055,7.055,6.9963,6.2793,6.2793,6.2793,6.2793,6.2793,6.2536,6.2572,6.2756,6.2242,6.2205,6.2352,6.2169,6.2059,6.2059,6.2059,6.1728,6.1227,6.0933,6.0419,5.9795,5.993,5.9905,5.9612,5.9343,5.8792,5.8107,5.7997,5.7997,5.8008,5.7997,5.7997,5.7997,5.7997,5.7997,5.7997,5.7997,5.7997,5.7997,5.7997,5.7997,5.7997,5.7997,5.7997,5.7997,5.7997,5.7997,5.7997,5.7997,5.7997,5.7997,5.7997,5.7997,5.8008,5.7997,5.7997,5.7997,5.7997,5.829,5.8756,5.9086,5.9747,6.0639,6.1337,6.1851,6.2328,6.2646,6.2793,6.2793,6.2829,6.316,6.3956,6.4273,6.5007,6.6035,6.6623,6.699,6.7554,6.77,6.77,6.77,6.77,6.77,6.77,6.77,6.7774,6.7847,6.8458,6.8935,6.9119,7.011,7.0881,7.094,7.1284,7.1541,7.1578,7.1431,7.0954,7.0353,7.072,7.061,6.9229,6.8875,6.9522,7.0257,7.1248,7.1908,7.2239,7.2312,7.2055,7.2055,7.1798,7.1688,7.1725,7.1321,7.0683,6.2978,6.2805,6.2793,6.2793,6.2793,6.2793,6.2793,6.2793,6.2793,6.2793,6.2793,6.2793,6.2793,6.2793,6.2793,6.2536,6.2071,6.2034,6.1777,6.1263,6.0933,6.0713,6.0419,5.993,5.9233,5.8572,5.8425,5.829,5.8008,5.7997,5.7997,5.7997,5.7997,5.7997,5.7997,5.7997,5.7997,5.7997,5.7997,5.7997,5.7997,5.7997,5.7997,5.7997,5.7997,5.7997,5.7997,5.7997,5.7997,5.7997,5.7997,5.7997,5.8008,5.8253,5.8437,5.851,5.8767,5.9159,5.96,6.0003,6.0456,6.1447,6.1851,6.2205,6.2683,6.2793,6.2793,6.2793,6.3123,6.3649,6.4383,6.4874,6.5558,6.6783,6.7026,6.7407,6.759,6.77,6.77,6.77,6.77,6.77,6.77,6.8031,6.8141,6.8274,6.8825,6.9559,6.9853,7.0646,7.1197,7.1637,7.2018,7.2202,7.2386,7.2202,7.1872,7.1358,7.0977,7.0206,6.9045,6.9412,7.0036,7.0587,7.1417,7.1872,7.2239,7.2422,7.2349,7.2496,7.2532,7.2349,7.2092,7.1798,7.127,6.3319,6.2953,6.2842,6.2793,6.2793,6.2793,6.2793,6.2793,6.2793,6.2793,6.2793,6.2793,6.2793,6.2793,6.2793,6.2756,6.2793,6.2683,6.2646,6.2438,6.1961,6.1337,6.0627,6.0493,6.004,5.938,5.9159,5.8756,5.8217,5.8033,5.8033,5.8143,5.818,5.8143,5.829,5.8143,5.8143,5.818,5.807,5.7997,5.7997,5.7997,5.7997,5.7997,5.7997,5.7997,5.7997,5.8107,5.8107,5.7997,5.7997,5.8033,5.8217,5.8792,5.9123,5.9233,5.9967,6.0272,6.0566,6.097,6.1484,6.179,6.2328,6.2793,6.2793,6.2793,6.2903,6.3062,6.3613,6.4383,6.5228,6.5888,6.6696,6.748,6.726,6.7136,6.759,6.7737,6.7921,6.7884,6.7811,6.7884,6.8068,6.8605,6.8898,6.9119,6.9633,7.0353,7.0866,7.1307,7.1711,7.2092,7.2422,7.2459,7.2532,7.2459,7.2092,7.1564,7.1233,7.0587,6.9633,7.0036,7.044,7.0977,7.149,7.1894,7.2165,7.2386,7.2532,7.2532,7.2532,7.2532,7.2349,7.2055,7.1908,6.3915,6.4239,6.3235,6.2793,6.2793,6.2793,6.2793,6.2793,6.2793,6.2793,6.2793,6.2793,6.2793,6.2793,6.2793,6.2793,6.2793,6.2793,6.2793,6.2793,6.2609,6.2034,6.141,6.1263,6.086,6.0126,5.96,5.9086,5.8829,5.8364,5.84,5.8866,5.8902,5.9196,5.96,5.9123,5.8902,5.8792,5.8253,5.7997,5.7997,5.7997,5.7997,5.7997,5.7997,5.8033,5.807,5.8584,5.8572,5.8033,5.7997,5.829,5.8829,5.9159,5.9563,6.004,6.0297,6.0713,6.119,6.1533,6.1887,6.2438,6.2793,6.2793,6.2793,6.2829,6.3123,6.3576,6.4029,6.469,6.5852,6.6402,6.7136,6.8201,6.7871,6.748,6.7811,6.8201,6.8568,6.8605,6.9045,6.9265,6.9376,6.9559,6.9779,6.9926,7.044,7.105,7.1454,7.1821,7.2202,7.2312,7.2496,7.2496,7.2532,7.2532,7.2239,7.1674,7.1454,7.1505,7.077,7.0624,7.094,7.127,7.1821,7.2275,7.2349,7.2496,7.2532,7.2532,7.2532,7.2532,7.2532,7.2349,7.2312,6.4288,6.3951,6.315,6.2793,6.2793,6.2793,6.2793,6.2793,6.2793,6.2793,6.2793,6.2793,6.2793,6.2793,6.2793,6.2793,6.2793,6.2793,6.2793,6.2793,6.2793,6.2499,6.2181,6.2108,6.1667,6.0933,6.0419,6.004,5.971,5.9196,5.9306,5.96,5.971,5.993,6.026,5.9967,5.9526,5.9196,5.8719,5.84,5.8033,5.7997,5.7997,5.807,5.829,5.8609,5.9024,5.9453,5.9453,5.9098,5.9024,5.9233,5.9673,6.0077,6.0419,6.0896,6.119,6.1667,6.2034,6.2401,6.2842,6.3319,6.36,6.382,6.3894,6.3857,6.4163,6.453,6.4861,6.5558,6.6256,6.6769,6.776,6.8972,6.8678,6.8398,6.8655,6.8788,6.9082,6.9376,6.9779,7.011,7.0146,7.0403,7.0587,7.0756,7.1321,7.1637,7.1894,7.2312,7.2532,7.2532,7.2532,7.2532,7.2532,7.2532,7.2532,7.1967,7.1821,7.1872,7.1688,7.1358,7.1578,7.1857,7.2275,7.2532,7.2532,7.2532,7.2532,7.2532,7.2532,7.2532,7.2532,7.2532,7.2532,6.4672,6.3076,6.2966,6.2855,6.2805,6.2793,6.2793,6.2793,6.2793,6.2793,6.2829,6.2903,6.2939,6.2793,6.3013,6.2903,6.2829,6.2793,6.2793,6.2866,6.2939,6.2976,6.2952,6.2683,6.2438,6.1936,6.1753,6.1117,6.0566,6.037,6.0407,6.0493,6.0529,6.0591,6.0811,6.0627,6.015,5.971,5.9453,5.9086,5.8657,5.8547,5.8547,5.8621,5.9013,5.971,6.0236,6.0529,6.0529,6.0627,6.0493,6.0346,6.0529,6.1239,6.1606,6.1851,6.2365,6.2866,6.305,6.3649,6.4163,6.431,6.4811,6.5288,6.5105,6.5031,6.5105,6.5398,6.6072,6.6476,6.7026,6.754,6.8641,6.9779,6.9522,6.9486,6.9963,6.9633,6.9449,7.011,7.0257,7.0367,7.0513,7.0881,7.1417,7.1417,7.1945,7.2092,7.2202,7.2386,7.2532,7.2532,7.2532,7.2532,7.2532,7.2532,7.2532,7.2349,7.2275,7.2312,7.2275,7.2165,7.2312,7.2532,7.2532,7.2532,7.2532,7.2532,7.2532,7.2532,7.2532,7.2532,7.2532,7.2532,7.2532,6.5744,6.4919,6.3854,6.318,6.2842,6.2793,6.2829,6.2829,6.2829,6.2939,6.2976,6.3539,6.3429,6.2903,6.3503,6.3466,6.2903,6.2829,6.2793,6.2866,6.3576,6.3796,6.3686,6.327,6.3172,6.3062,6.2157,6.1594,6.1337,6.1043,6.075,6.1337,6.141,6.163,6.2059,6.1557,6.13,6.1006,6.0493,6.004,5.982,5.9722,5.9758,5.9832,6.0052,6.0529,6.1153,6.1337,6.1667,6.1838,6.1215,6.0823,6.13,6.1557,6.1961,6.2585,6.3282,6.3759,6.3943,6.453,6.5031,6.5081,6.5288,6.5325,6.5325,6.5398,6.5655,6.6072,6.6439,6.7063,6.8164,6.9082,6.9926,7.0587,7.0367,7.0367,7.1468,7.1197,7.0793,7.105,7.1527,7.1945,7.1908,7.1908,7.2188,7.2224,7.2312,7.2496,7.2532,7.2532,7.2532,7.2532,7.2532,7.2532,7.2532,7.2532,7.2532,7.2532,7.2532,7.2532,7.2532,7.2532,7.2532,7.2532,7.2532,7.2532,7.2532,7.2532,7.2532,7.2532,7.2532,7.2532,7.2532,7.2532,7.2532,6.5861,6.4605,6.3602,6.3074,6.2903,6.3233,6.338,6.3503,6.3857,6.3967,6.404,6.4494,6.4371,6.4004,6.4383,6.42,6.3429,6.2976,6.305,6.3392,6.3956,6.4506,6.5044,6.4457,6.4237,6.4494,6.387,6.3356,6.3099,6.2548,6.2438,6.2671,6.2401,6.2316,6.2719,6.2352,6.1961,6.1557,6.119,6.0786,6.0493,6.0407,6.0676,6.0896,6.1006,6.1337,6.2071,6.2181,6.2389,6.2462,6.2022,6.1692,6.2071,6.2181,6.2585,6.3356,6.3759,6.431,6.4714,6.5375,6.5888,6.5888,6.6182,6.6402,6.6439,6.6439,6.6586,6.6966,6.7223,6.7737,6.9229,6.9743,7.0587,7.1454,7.1123,7.1248,7.2055,7.1784,7.149,7.1784,7.2188,7.2386,7.2496,7.2532,7.2496,7.2386,7.2386,7.2532,7.2532,7.2532,7.2532,7.2532,7.2532,7.2532,7.2532,7.2532,7.2532,7.2532,7.2532,7.2532,7.2532,7.2532,7.2532,7.2532,7.2532,7.2532,7.2532,7.2532,7.2532,7.2532,7.2532,7.2532,7.2532,7.2532,7.2532,6.5873,6.4042,6.3514,6.3284,6.3419,6.4006,6.4325,6.4536,6.5009,6.5105,6.5325,6.5398,6.5362,6.5288,6.5398,6.4971,6.409,6.3503,6.3466,6.3956,6.4286,6.5118,6.5852,6.5852,6.5668,6.5655,6.5141,6.5044,6.4677,6.4567,6.3906,6.3956,6.3392,6.2939,6.2829,6.2756,6.2462,6.1961,6.1814,6.1557,6.108,6.0958,6.13,6.1667,6.1814,6.2034,6.2536,6.2683,6.2756,6.2793,6.2793,6.2866,6.2976,6.305,6.3282,6.4066,6.4396,6.4934,6.5521,6.6182,6.6696,6.6733,6.721,6.759,6.759,6.748,6.748,6.77,6.7958,6.8765,7.0036,7.0587,7.1248,7.1982,7.1821,7.1857,7.2151,7.1857,7.1931,7.2275,7.2422,7.2496,7.2532,7.2532,7.2532,7.2532,7.2532,7.2532,7.2532,7.2532,7.2532,7.2532,7.2532,7.2532,7.2532,7.2532,7.2532,7.2532,7.2532,7.2569,7.2569,7.2532,7.2532,7.2532,7.2532,7.2532,7.2532,7.2532,7.2532,7.2532,7.2532,7.2532,7.2532,7.2532,7.2606,6.7,6.6229,6.5695,6.5494,6.5473,6.5225,6.5324,6.5674,6.5494,6.5288,6.5435,6.5999,6.5962,6.5655,6.6072,6.5485,6.4506,6.4016,6.4016,6.4396,6.4824,6.5742,6.6439,6.6916,6.7076,6.6893,6.6145,6.5228,6.4897,6.4751,6.4751,6.4249,6.3906,6.3539,6.2939,6.2793,6.2756,6.2511,6.2462,6.2316,6.2205,6.2169,6.2205,6.2462,6.2462,6.2646,6.2756,6.2829,6.2793,6.2793,6.2793,6.3246,6.3723,6.3906,6.4103,6.447,6.5301,6.5925,6.6366,6.699,6.7407,6.7554,6.7627,6.7664,6.77,6.7774,6.7884,6.8214,6.9022,7.0073,7.0977,7.1468,7.2055,7.2422,7.2386,7.2275,7.2422,7.2349,7.2224,7.2459,7.2532,7.2532,7.2532,7.2532,7.2532,7.2532,7.2532,7.2532,7.2532,7.2532,7.2532,7.2532,7.2532,7.2532,7.2532,7.2532,7.2532,7.2569,7.2606,7.2716,7.2679,7.2569,7.2532,7.2936,7.2789,7.2569,7.2569,7.2569,7.2642,7.2716,7.2642,7.2532,7.2569,7.2642,7.301,6.6441,6.5576,6.5427,6.5419,6.5526,6.5828,6.6211,6.667,6.6602,6.6549,6.6659,6.6916,6.693,6.6733,6.688,6.6402,6.5521,6.4861,6.4971,6.5338,6.5778,6.6366,6.699,6.7517,6.7357,6.71,6.6586,6.6292,6.5975,6.5888,6.5485,6.4787,6.4347,6.3649,6.2976,6.2793,6.2793,6.2793,6.2793,6.2829,6.2829,6.2829,6.2829,6.2829,6.2903,6.3013,6.3429,6.3466,6.3723,6.4004,6.4114,6.4347,6.4677,6.5081,6.5314,6.5485,6.6109,6.6733,6.7026,6.7554,6.7664,6.7664,6.77,6.77,6.7811,6.8068,6.8458,6.9096,6.9853,7.0866,7.1233,7.2055,7.2422,7.2532,7.2532,7.2532,7.2532,7.2532,7.2532,7.2532,7.2569,7.2569,7.2532,7.2532,7.2532,7.2532,7.2532,7.2532,7.2532,7.2532,7.2532,7.2532,7.2532,7.2606,7.2606,7.2569,7.2826,7.2899,7.2863,7.2973,7.323,7.3303,7.3597,7.3964,7.3597,7.2936,7.2863,7.2973,7.2973,7.2936,7.2789,7.2679,7.2679,7.2826,7.334,6.586,6.4898,6.5352,6.5534,6.568,6.6507,6.7197,6.7619,6.7649,6.759,6.77,6.7664,6.7664,6.7664,6.7554,6.7223,6.6476,6.5778,6.5888,6.6182,6.6145,6.6623,6.726,6.7407,6.715,6.6806,6.721,6.759,6.704,6.688,6.6219,6.5338,6.4567,6.3759,6.3013,6.2793,6.2793,6.2793,6.2793,6.2829,6.3013,6.305,6.316,6.3306,6.3306,6.371,6.4237,6.431,6.4604,6.4958,6.5178,6.5325,6.5582,6.6145,6.6623,6.6916,6.6953,6.7283,6.7517,6.7958,6.8068,6.8054,6.7994,6.8031,6.8361,6.8935,6.9449,7.0257,7.0793,7.138,7.1637,7.2129,7.2459,7.2532,7.2532,7.2532,7.2532,7.2532,7.2532,7.2532,7.2606,7.2826,7.2973,7.2569,7.2606,7.2789,7.2826,7.2532,7.2532,7.2532,7.2532,7.2532,7.2569,7.2679,7.2679,7.2606,7.3046,7.356,7.3487,7.3487,7.3927,7.4316,7.4573,7.4647,7.4133,7.356,7.3487,7.3377,7.3377,7.3266,7.301,7.3083,7.345,7.3744,7.4111,6.6663,6.6585,6.7569,6.7935,6.7656,6.7993,6.8544,6.8828,6.8036,6.7714,6.77,6.7664,6.7627,6.7627,6.77,6.726,6.6696,6.6476,6.6476,6.6586,6.6072,6.6109,6.6586,6.6623,6.6586,6.6476,6.721,6.721,6.688,6.71,6.6659,6.5508,6.4958,6.4371,6.2939,6.2939,6.2793,6.2829,6.2866,6.3246,6.3796,6.3943,6.4273,6.4677,6.4848,6.4921,6.5118,6.5154,6.5325,6.5398,6.5398,6.5692,6.6219,6.6439,6.7357,6.8128,6.8554,6.8348,6.8104,6.8421,6.8752,6.8752,6.8752,6.9119,6.9522,6.9816,7.0279,7.105,7.1344,7.1637,7.2092,7.2386,7.2532,7.2532,7.2532,7.2532,7.2532,7.2826,7.2789,7.2973,7.3193,7.3523,7.3744,7.3156,7.2716,7.2936,7.3046,7.2789,7.2532,7.2569,7.2532,7.2532,7.2606,7.2716,7.3046,7.2936,7.3413,7.4096,7.4258,7.4184,7.4661,7.5102,7.505,7.5014,7.461,7.45,7.4536,7.4353,7.3949,7.3817,7.3817,7.4147,7.4588,7.4808,7.4955,6.6114,6.5558,6.6975,6.7327,6.7112,6.8031,6.8614,6.8648,6.8034,6.77,6.759,6.7187,6.704,6.7113,6.7444,6.7517,6.7223,6.715,6.7187,6.6953,6.6402,6.6182,6.6292,6.6072,6.5815,6.6072,6.6476,6.6476,6.6329,6.6452,6.6366,6.5398,6.4824,6.4016,6.3013,6.3319,6.3503,6.3686,6.3967,6.4407,6.4664,6.4787,6.4934,6.5301,6.5362,6.5595,6.5888,6.5999,6.6256,6.6512,6.6659,6.6769,6.7063,6.7247,6.7724,6.8701,6.9339,6.9376,6.9192,6.9412,6.9522,6.9596,6.9633,6.9926,7.0536,7.0793,7.1123,7.1894,7.1967,7.2151,7.2386,7.2496,7.2532,7.2532,7.2532,7.2569,7.2679,7.3083,7.3303,7.356,7.3817,7.4258,7.4625,7.4404,7.3964,7.3927,7.3744,7.323,7.2936,7.2753,7.2642,7.2532,7.2642,7.2789,7.3193,7.3428,7.3927,7.4588,7.5285,7.5285,7.5579,7.5799,7.5858,7.6078,7.6188,7.6041,7.5747,7.516,7.461,7.4661,7.4771,7.4992,7.516,7.5506,7.5763,6.5474,6.4879,6.6579,6.7025,6.6742,6.8118,6.8717,6.8625,6.8007,6.77,6.7554,6.7113,6.6769,6.6696,6.7297,6.7664,6.7664,6.77,6.77,6.7444,6.6966,6.6512,6.6292,6.5778,6.5362,6.5338,6.5888,6.5888,6.572,6.5676,6.5679,6.502,6.4457,6.3686,6.327,6.3576,6.4066,6.442,6.4861,6.5251,6.5545,6.5595,6.5742,6.5888,6.5962,6.6182,6.6696,6.6806,6.7187,6.776,6.7907,6.8031,6.8325,6.8471,6.8825,6.9633,7.022,7.0513,7.0513,7.0587,7.044,7.0477,7.0697,7.1027,7.1417,7.16,7.1747,7.2386,7.2422,7.2459,7.2532,7.2532,7.2532,7.2532,7.2532,7.2606,7.2826,7.3377,7.3891,7.4258,7.4625,7.5249,7.5506,7.5601,7.538,7.505,7.4515,7.3817,7.334,7.2973,7.2789,7.2679,7.2973,7.323,7.378,7.4184,7.4625,7.5102,7.5799,7.6203,7.6371,7.6628,7.6812,7.7142,7.7326,7.7069,7.6518,7.5894,7.5344,7.5601,7.5747,7.5527,7.5637,7.6056,7.6387,6.5331,6.57,6.7768,6.8316,6.7922,6.8885,6.9241,6.901,6.8135,6.7717,6.759,6.7554,6.7113,6.6843,6.726,6.77,6.77,6.77,6.77,6.7444,6.6966,6.6549,6.6245,6.583,6.5391,6.5404,6.5864,6.5827,6.5432,6.5659,6.5051,6.424,6.4402,6.3664,6.3491,6.4056,6.4837,6.5228,6.5632,6.5925,6.6256,6.6476,6.6696,6.726,6.7444,6.7554,6.759,6.7627,6.7871,6.8641,6.8788,6.9045,6.9389,6.9522,6.9926,7.0573,7.0866,7.1307,7.1651,7.149,7.127,7.1417,7.1798,7.2202,7.2386,7.2459,7.2532,7.2753,7.2973,7.2826,7.2716,7.2569,7.2899,7.301,7.3193,7.334,7.356,7.3854,7.4368,7.4845,7.5417,7.6041,7.6261,7.6335,7.6298,7.5968,7.5065,7.4346,7.3597,7.3193,7.301,7.2973,7.3377,7.3854,7.461,7.5014,7.527,7.5747,7.6423,7.6775,7.6995,7.7252,7.7326,7.7326,7.7326,7.7326,7.7215,7.6518,7.6188,7.6628,7.6702,7.6335,7.6335,7.6702,7.6922,6.6071,6.6932,6.8082,6.8209,6.7744,6.9199,6.9385,6.8792,6.8393,6.7662,6.699,6.7407,6.726,6.6916,6.7297,6.77,6.77,6.77,6.77,6.7444,6.6953,6.6549,6.6287,6.6149,6.5801,6.5983,6.6488,6.666,6.6347,6.6362,6.6314,6.5864,6.5071,6.4466,6.4409,6.4954,6.5841,6.6489,6.6733,6.6953,6.71,6.726,6.7407,6.7627,6.77,6.77,6.7737,6.8201,6.8568,6.8972,6.9412,6.9853,7.0183,7.022,7.0624,7.1233,7.138,7.1784,7.2386,7.2224,7.2041,7.2188,7.2716,7.3193,7.3193,7.3597,7.3913,7.3986,7.3876,7.3729,7.3949,7.3986,7.4111,7.3986,7.3986,7.4074,7.4331,7.4625,7.5065,7.5601,7.6225,7.6848,7.6959,7.7032,7.6995,7.6812,7.5799,7.4882,7.4147,7.3692,7.3597,7.356,7.3964,7.4515,7.5249,7.5601,7.5894,7.6445,7.6995,7.7105,7.7252,7.7252,7.7326,7.7326,7.7326,7.7326,7.7179,7.6922,7.6885,7.7069,7.7069,7.6943,7.7105,7.7289,7.7326,6.6406,6.7275,6.8081,6.8313,6.8303,6.9565,6.9598,6.8829,6.8544,6.7741,6.6562,6.7283,6.726,6.6893,6.7333,6.7664,6.77,6.77,6.77,6.7517,6.7187,6.6961,6.69,6.6774,6.6605,6.6844,6.7092,6.7265,6.6849,6.7591,6.7373,6.6862,6.6412,6.5949,6.5397,6.6038,6.6893,6.7517,6.77,6.77,6.7664,6.7664,6.7664,6.77,6.77,6.7921,6.8128,6.8605,6.9178,6.9706,7.0183,7.055,7.0734,7.0881,7.1138,7.1431,7.1711,7.2055,7.2569,7.2606,7.2532,7.2496,7.3156,7.3523,7.3891,7.4441,7.461,7.472,7.4793,7.494,7.494,7.472,7.4647,7.45,7.45,7.4647,7.5139,7.5506,7.5946,7.6408,7.6922,7.7215,7.7215,7.7179,7.6922,7.6775,7.6166,7.5322,7.472,7.4426,7.45,7.4536,7.4683,7.5285,7.5873,7.6225,7.6555,7.6738,7.7179,7.7215,7.7289,7.7326,7.7326,7.7326,7.7326,7.7326,7.7215,7.7069,7.7142,7.7252,7.7252,7.7163,7.7215,7.7326,7.7326,6.6106,6.6466,6.7819,6.8929,6.9701,7.0048,6.9802,6.9241,6.8679,6.7827,6.6864,6.746,6.7333,6.693,6.7444,6.7664,6.77,6.77,6.77,6.7627,6.7567,6.7884,6.7949,6.7747,6.7664,6.7781,6.795,6.7796,6.7297,6.8036,6.7989,6.8041,6.8098,6.7675,6.6292,6.6358,6.6943,6.7617,6.7731,6.77,6.77,6.77,6.77,6.77,6.7884,6.8201,6.8568,6.9142,6.9839,7.0646,7.105,7.1505,7.1982,7.2092,7.2202,7.2312,7.2386,7.2789,7.3487,7.2899,7.2789,7.2863,7.3634,7.4037,7.4001,7.4478,7.5234,7.5491,7.527,7.516,7.505,7.505,7.516,7.527,7.5344,7.5454,7.5968,7.624,7.6628,7.6812,7.7069,7.7289,7.7289,7.7215,7.6848,7.6555,7.624,7.5799,7.5344,7.5344,7.5527,7.5564,7.5637,7.5894,7.646,7.6885,7.7179,7.7289,7.7326,7.7326,7.7326,7.7326,7.7326,7.7326,7.7326,7.7326,7.7326,7.7289,7.7326,7.7326,7.7326,7.7289,7.7289,7.7326,7.7326,6.6249,6.6877,6.7352,6.8094,6.9057,7.0169,7.0322,6.9729,6.8935,6.8243,6.7864,6.7804,6.759,6.748,6.748,6.77,6.77,6.77,6.77,6.7727,6.7717,6.8034,6.8291,6.8617,6.8812,6.9317,6.9311,6.9359,6.9682,6.9482,6.9687,6.9879,6.939,6.9122,6.8264,6.7826,6.7639,6.8048,6.7943,6.77,6.77,6.77,6.77,6.7737,6.8164,6.8605,6.9105,6.9802,7.0683,7.138,7.1674,7.2165,7.2459,7.2496,7.2532,7.2532,7.2532,7.2863,7.3597,7.3744,7.3817,7.3927,7.4368,7.4845,7.4698,7.5821,7.6298,7.6408,7.6261,7.6298,7.6555,7.6518,7.6592,7.6592,7.6665,7.6665,7.6922,7.6922,7.7105,7.7142,7.7289,7.7326,7.7326,7.7326,7.7032,7.6959,7.6738,7.6738,7.6445,7.6555,7.6702,7.6702,7.6738,7.6775,7.6995,7.7179,7.7289,7.7289,7.7326,7.7326,7.7326,7.7326,7.7326,7.7326,7.7326,7.7326,7.7326,7.7326,7.7326,7.7326,7.7399,7.7362,7.7326,7.7326,7.7326,6.6211,6.6712,6.6981,6.7404,6.816,6.9783,7.0301,6.9933,6.919,6.8784,6.866,6.8223,6.797,6.7906,6.777,6.77,6.7727,6.7917,6.7994,6.7994,6.7958,6.8344,6.8807,6.9148,6.9417,7.0112,7.06,7.0794,7.0637,7.0801,7.0762,7.0513,7.0187,6.9813,6.9299,6.8805,6.8111,6.8272,6.7996,6.77,6.77,6.7737,6.7834,6.8164,6.8641,6.9142,6.9839,7.0646,7.1454,7.1747,7.2151,7.2532,7.2532,7.2532,7.2532,7.2532,7.3156,7.3523,7.4184,7.5285,7.5234,7.4771,7.5652,7.5763,7.5601,7.6445,7.6959,7.7179,7.7326,7.7289,7.7252,7.7326,7.7289,7.7252,7.7252,7.7252,7.7252,7.7215,7.7215,7.7289,7.7326,7.7326,7.7326,7.7326,7.7215,7.7252,7.7252,7.7326,7.7326,7.7326,7.7326,7.7289,7.7252,7.7142,7.7142,7.7252,7.7289,7.7326,7.7326,7.7326,7.7326,7.7326,7.7326,7.7326,7.7326,7.7326,7.7326,7.7326,7.7326,7.7509,7.7729,7.7619,7.7362,7.7509,7.7729,6.5904,6.6019,6.675,6.7058,6.7366,6.8821,6.9694,6.9989,6.9493,6.9209,6.9207,6.8687,6.8546,6.8416,6.8046,6.7878,6.7982,6.8344,6.8476,6.8535,6.8497,6.8917,6.9169,6.9423,6.9811,7.0187,7.0562,7.0819,7.0871,7.0748,7.0755,7.0585,6.991,6.9892,6.9747,6.9282,6.8671,6.866,6.8085,6.7839,6.7876,6.7901,6.8214,6.8641,6.9192,6.9912,7.0646,7.138,7.1821,7.2165,7.2496,7.2532,7.2532,7.2532,7.2532,7.2973,7.4037,7.4647,7.5102,7.6261,7.6555,7.5983,7.6093,7.6166,7.6276,7.6702,7.7179,7.7326,7.7326,7.7326,7.7326,7.7326,7.7289,7.7289,7.7289,7.7289,7.7289,7.7289,7.7289,7.7326,7.7326,7.7326,7.7326,7.7326,7.7326,7.7326,7.7326,7.7326,7.7326,7.7326,7.7326,7.7289,7.7289,7.7289,7.7326,7.7326,7.7326,7.7326,7.7326,7.7326,7.7326,7.7326,7.7326,7.7326,7.7326,7.7399,7.7656,7.7582,7.7399,7.7582,7.7913,7.7913,7.7693,7.8332,7.8626,6.5904,6.5942,6.6173,6.625,6.6404,6.7404,6.8562,6.961,6.9218,6.8926,6.8946,6.9048,6.8961,6.9042,6.8928,6.884,6.8858,6.8967,6.9032,6.9064,6.9074,6.9443,6.9683,6.9847,7.0187,7.0501,7.0755,7.0755,7.0409,7.0362,7.0112,6.9692,6.972,6.9838,6.9673,6.9302,6.9381,6.9286,6.8552,6.8296,6.8381,6.8598,6.8883,6.9241,7.011,7.0854,7.1284,7.1857,7.2275,7.2422,7.2532,7.2532,7.2532,7.2532,7.2642,7.3487,7.4698,7.5763,7.5946,7.6702,7.7179,7.6922,7.6885,7.657,7.6533,7.6775,7.7289,7.7326,7.7326,7.7326,7.7326,7.7326,7.7326,7.7326,7.7326,7.7326,7.7326,7.7326,7.7326,7.7326,7.7326,7.7326,7.7326,7.7326,7.7326,7.7326,7.7326,7.7326,7.7326,7.7326,7.7326,7.7326,7.7326,7.7326,7.7326,7.7326,7.7326,7.7326,7.7326,7.7326,7.7326,7.7326,7.7326,7.7399,7.7546,7.7839,7.8222,7.8038,7.7693,7.7803,7.8075,7.8075,7.8222,7.8809,7.9396,6.5904,6.5904,6.5904,6.6051,6.6404,6.6558,6.7436,6.8512,6.8646,6.8618,6.8686,6.8946,6.9077,6.9077,6.9194,6.9251,6.9262,6.9511,6.9626,6.9626,6.9617,6.9793,7.0035,7.0137,7.0211,7.0539,7.0769,7.0777,7.0408,7.0129,6.9892,6.9729,6.972,6.9588,6.9433,6.9165,6.963,6.9917,6.9861,6.9271,6.9353,6.9754,7.0029,7.0325,7.132,7.1604,7.1832,7.2369,7.2473,7.2496,7.2532,7.2716,7.2973,7.3266,7.356,7.4368,7.5249,7.5909,7.6166,7.6812,7.7179,7.7326,7.7289,7.7069,7.6922,7.7069,7.7252,7.7326,7.7326,7.7326,7.7326,7.7326,7.7326,7.7326,7.7326,7.7326,7.7326,7.7326,7.7326,7.7326,7.7326,7.7326,7.7326,7.7326,7.7326,7.7326,7.7326,7.7326,7.7326,7.7326,7.7326,7.7326,7.7326,7.7326,7.7326,7.7326,7.7326,7.7326,7.7326,7.7326,7.7326,7.7399,7.7436,7.7656,7.7913,7.8332,7.8883,7.8369,7.806,7.8295,7.8589,7.8809,7.8993,7.925,7.9779,6.5904,6.5904,6.5904,6.625,6.6827,6.625,6.6397,6.7058,6.7795,6.8301,6.8412,6.8663,6.8916,6.9286,6.9402,6.9493,6.9728,7.0026,7.0154,7.0145,7.0154,7.0258,7.0258,7.0225,7.037,7.0448,7.0563,7.0769,7.069,7.0514,7.0322,7.0088,6.9618,6.9536,6.9782,6.9323,6.9998,7.1196,7.1331,7.108,7.0987,7.1405,7.1987,7.212,7.2336,7.252,7.2599,7.2644,7.2582,7.2596,7.262,7.2877,7.356,7.4441,7.4808,7.5197,7.5909,7.624,7.6518,7.6995,7.7215,7.7326,7.7289,7.7252,7.7215,7.7179,7.7289,7.7326,7.7326,7.7326,7.7326,7.7326,7.7326,7.7326,7.7326,7.7326,7.7326,7.7326,7.7326,7.7326,7.7326,7.7326,7.7326,7.7326,7.7326,7.7326,7.7326,7.7326,7.7326,7.7326,7.7326,7.7326,7.7326,7.7326,7.7326,7.7326,7.7326,7.7326,7.7326,7.7326,7.7326,7.7436,7.7619,7.7913,7.8259,7.9029,7.9396,7.8993,7.8846,7.9103,7.9433,7.9706,7.9853,7.9963,8.0404,6.5904,6.5904,6.5904,6.6019,6.6167,6.5981,6.6013,6.6211,6.6397,6.7276,6.8256,6.8566,6.9201,7.0017,6.9789,6.9895,7.0402,7.0471,7.0659,7.0652,7.0645,7.06,7.0659,7.0615,7.0652,7.0748,7.0791,7.0779,7.0701,7.0718,7.064,7.01,7.014,7.0713,7.0367,7.0077,7.1103,7.2327,7.2839,7.2726,7.244,7.2465,7.2763,7.304,7.3248,7.3616,7.3626,7.3366,7.3288,7.3159,7.2714,7.2957,7.3648,7.5028,7.5726,7.5946,7.6481,7.6775,7.6959,7.7105,7.7252,7.7326,7.7326,7.7326,7.7289,7.7326,7.7326,7.7326,7.7326,7.7326,7.7326,7.7326,7.7326,7.7326,7.7326,7.7326,7.7326,7.7326,7.7326,7.7326,7.7326,7.7326,7.7326,7.7326,7.7326,7.7326,7.7326,7.7326,7.7326,7.7326,7.7326,7.7326,7.7326,7.7326,7.7326,7.7326,7.7326,7.7326,7.7326,7.7326,7.7326,7.7582,7.7855,7.8259,7.8699,7.958,8.0094,7.9853,7.98,7.9984,7.9984,8.0131,8.0498,8.0645,8.1158,6.5904,6.5904,6.5904,6.5904,6.5904,6.5904,6.5904,6.5904,6.5904,6.6859,6.8237,6.8507,6.9161,7.0398,7.0206,7.0321,7.086,7.0891,7.0864,7.0878,7.0898,7.0878,7.0898,7.0898,7.0871,7.0898,7.0923,7.0849,7.0976,7.1091,7.1048,7.0975,7.1714,7.1691,7.121,7.1729,7.2325,7.3157,7.4109,7.4125,7.3852,7.4144,7.4125,7.4305,7.4318,7.4588,7.4249,7.3949,7.3937,7.4084,7.408,7.4368,7.5065,7.5983,7.6518,7.6738,7.6995,7.7326,7.7326,7.7326,7.7326,7.7326,7.7326,7.7326,7.7326,7.7326,7.7326,7.7326,7.7326,7.7326,7.7326,7.7326,7.7326,7.7326,7.7326,7.7326,7.7326,7.7326,7.7326,7.7326,7.7326,7.7326,7.7326,7.7326,7.7326,7.7326,7.7326,7.7326,7.7326,7.7326,7.7326,7.7326,7.7326,7.7326,7.7326,7.7326,7.7326,7.7326,7.7326,7.7326,7.7362,7.7729,7.8112,7.8699,7.9433,8.0388,8.0681,8.0571,8.0498,8.0571,8.0534,8.0498,8.0901,8.1342,8.1709,6.5904,6.5904,6.5904,6.5904,6.5904,6.5904,6.5904,6.5904,6.5897,6.6821,6.8276,6.8391,6.8968,6.986,7.036,7.0667,7.086,7.0898,7.0898,7.0898,7.0898,7.0898,7.0898,7.0898,7.0898,7.0898,7.0891,7.1468,7.1944,7.2018,7.2198,7.2585,7.2576,7.2431,7.2557,7.27,7.308,7.401,7.4756,7.501,7.5457,7.5976,7.5523,7.5285,7.5192,7.4952,7.466,7.4471,7.4546,7.4673,7.5038,7.5543,7.6059,7.6706,7.6959,7.7215,7.7179,7.7326,7.7326,7.7326,7.7326,7.7326,7.7289,7.7326,7.7326,7.7326,7.7326,7.7326,7.7326,7.7326,7.7326,7.7326,7.7326,7.7326,7.7326,7.7326,7.7326,7.7326,7.7326,7.7326,7.7326,7.7326,7.7326,7.7326,7.7326,7.7326,7.7326,7.7326,7.7326,7.7326,7.7326,7.7326,7.7326,7.7326,7.7326,7.7326,7.7326,7.7326,7.7326,7.7326,7.7436,7.7876,7.8552,7.947,8.0241,8.0975,8.1379,8.1415,8.1342,8.1195,8.1232,8.1269,8.1672,8.2039,8.215,6.5904,6.5904,6.5904,6.5904,6.5904,6.5904,6.5904,6.5904,6.5897,6.6859,6.8084,6.8507,6.9199,7.0629,7.0052,7.0206,7.0898,7.0898,7.0898,7.0898,7.0898,7.0898,7.0898,7.0898,7.0898,7.0898,7.0975,7.1437,7.236,7.2837,7.326,7.3648,7.4384,7.4258,7.3969,7.4141,7.4498,7.5088,7.5349,7.5656,7.571,7.5969,7.5962,7.5841,7.5818,7.5772,7.5606,7.5192,7.4776,7.4642,7.5078,7.5976,7.661,7.7142,7.724,7.7326,7.7326,7.7396,7.7411,7.7335,7.732,7.742,7.7426,7.7326,7.7326,7.7326,7.7326,7.7326,7.7326,7.7326,7.7326,7.7326,7.7326,7.7326,7.7326,7.7326,7.7326,7.7326,7.7326,7.7326,7.7326,7.7326,7.7326,7.7326,7.7326,7.7326,7.7326,7.7326,7.7326,7.7326,7.7326,7.7326,7.7326,7.7326,7.7326,7.7326,7.7326,7.7326,7.7362,7.7436,7.7656,7.8148,7.8883,7.9874,8.0608,8.1269,8.1599,8.1893,8.1929,8.1782,8.1929,8.2113,8.2443,8.2517,8.248]}]]